[[{"header":{"parameterUnit":"m.s-1","parameterCategory":1,"la1":31.0,"la2":29.5877,"lo1":-88.7671,"lo2":-86.6584,"dy":0.0162,"dx":0.0185,"nx":115,"ny":88,"refTime":"2026-03-15T00:00:00:Z","depth":0,"parameterNumber":2,"parameterNumberName":"U-component_of_WINDS"},"data":[0.0,0.0,0.0,0.0,0.0,0.0,0.0,0.0,0.0,0.0,0.0,0.0,0.0,0.0,0.0,0.0,0.0,0.0,0.0,0.0,0.0,0.0,0.0,0.0,0.0,0.0,0.0,0.0,0.0,0.0,0.0,0.0,0.0,0.0,0.0,0.0,0.0,0.0,0.0,0.0,0.0,0.0,0.0,0.0,0.0,0.0,0.0,0.0,0.0,0.0,0.0,0.0,0.0,0.0,0.0,0.0,0.0,0.0,0.0,0.0,0.0,0.0,0.0,0.0,0.0,0.0,0.0,0.0,0.0,0.0,0.0,0.0,0.0,0.0,0.0,0.0,0.0,0.0,0.0,0.0,0.0,0.0,0.0,0.0,0.0,0.0,0.0,0.0,0.0,0.0,0.0,0.0,0.0,0.0,0.0,0.0,0.0,0.0,0.0,0.0,0.0,0.0,0.0,0.0,0.0,0.0,0.0,0.0,0.0,0.0,0.0,0.0,0.0,0.0,0.0,0.0,0.0,0.0,0.0,0.0,0.0,0.0,0.0,0.0,0.0,0.0,0.0,0.0,0.0,0.0,0.0,0.0,0.0,0.0,0.0,0.0,0.0,0.0,0.0,0.0,0.0,0.0,0.0,0.0,0.0,0.0,0.0,0.0,0.0,0.0,0.0,0.0,0.0,0.0,0.0,0.0,0.0,0.0,0.0,0.0,0.0,0.0,0.0,0.0,0.0,0.0,0.0,0.0,0.0,0.0,0.0,0.0,0.0,0.0,0.0,0.0,0.0,0.0,0.0,0.0,0.0,0.0,0.0,0.0,0.0,0.0,0.0,0.0,0.0,0.0,0.0,0.0,0.0,0.0,0.0,0.0,0.0,0.0,0.0,0.0,0.0,0.0,0.0,0.0,0.0,0.0,0.0,0.0,0.0,0.0,0.0,0.0,0.0,0.0,0.0,0.0,0.0,0.0,0.0,0.0,0.0,0.0,0.0,0.0,0.0,0.0,0.0,0.0,0.0,0.0,0.0,0.0,0.0,0.0,0.0,0.0,0.0,0.0,0.0,0.0,0.0,0.0,0.0,0.0,0.0,0.0,0.0,0.0,0.0,0.0,0.0,0.0,0.0,0.0,0.0,0.0,0.0,0.0,0.0,0.0,0.0,0.0,0.0,0.0,0.0,0.0,0.0,0.0,0.0,0.0,0.0,0.0,0.0,0.0,0.0,0.0,0.0,0.0,0.0,0.0,0.0,0.0,0.0,0.0,0.0,0.0,0.0,0.0,0.0,0.0,0.0,0.0,0.0,0.0,0.0,0.0,0.0,0.0,0.0,0.0,0.0,0.0,0.0,0.0,0.0,0.0,0.0,0.0,0.0,0.0,0.0,0.0,0.0,0.0,0.0,0.0,0.0,0.0,0.0,0.0,0.0,0.0,0.0,0.0,0.0,0.0,0.0,0.0,0.0,0.0,0.0,0.0,0.0,0.0,0.0,0.0,0.0,0.0,0.0,0.0,0.0,0.0,0.0,0.0,0.0,0.0,0.0,0.0,0.0,0.0,0.0,0.0,0.0,0.0,0.0,0.0,0.0,0.0,0.0,0.0,0.0,0.0,0.0,0.0,0.0,0.0,0.0,0.0,0.0,0.0,0.0,0.0,0.0,0.0,0.0,0.0,0.0,0.0,0.0,0.0,0.0,0.0,0.0,0.0,0.0,0.0,0.0,0.0,0.0,0.0,0.0,0.0,0.0,0.0,0.0,0.0,0.0,0.0,0.0,0.0,0.0,0.0,0.0,0.0,0.0,0.0,0.0,0.0,0.0,0.0,0.0,0.0,0.0,0.0,0.0,0.0,0.0,0.0,0.0,0.0,0.0,0.0,0.0,0.0,0.0,0.0,0.0,0.0,0.0,0.0,0.0,0.0,0.0,0.0,0.0,0.0,0.0,0.0,0.0,0.0,0.0,0.0,0.0,0.0,0.0,0.0,0.0,0.0,0.0,0.0,0.0,0.0,0.0,0.0,0.0,0.0,0.0,0.0,0.0,0.0,0.0,0.0,0.0,0.0,0.0,0.0,0.0,0.0,0.0,0.0,0.0,0.0,0.0,0.0,0.0,0.0,0.0,0.0,0.0,0.0,0.0,0.0,0.0,0.0,0.0,0.0,0.0,0.0,0.0,0.0,0.0,0.0,0.0,0.0,0.0,0.0,0.0,0.0,0.0,0.0,0.0,0.0,0.0,0.0,0.0,0.0,0.0,0.0,0.0,0.0,0.0,0.0,0.0,0.0,0.0,0.0,0.0,0.0,0.0,0.0,0.0,0.0,0.0,0.0,0.0,0.0,0.0,0.0,0.0,0.0,0.0,0.0,0.0,0.0,0.0,0.0,0.0,0.0,0.0,0.0,0.0,0.0,0.0,0.0,0.0,0.0,0.0,0.0,0.0,0.0,0.0,0.0,0.0,0.0,0.0,0.0,0.0,0.0,0.0,0.0,0.0,0.0,0.0,0.0,0.0,0.0,0.0,0.0,0.0,0.0,0.0,0.0,0.0,0.0,0.0,0.0,0.0,0.0,0.0,0.0,0.0,0.0,0.0,0.0,0.0,0.0,0.0,0.0,0.0,0.0,0.0,0.0,0.0,0.0,0.0,0.0,0.0,0.0,0.0,0.0,0.0,0.0,0.0,0.0,0.0,0.0,0.0,0.0,0.0,0.0,0.0,0.0,0.0,0.0,0.0,0.0,0.0,0.0,0.0,0.0,0.0,0.0,0.0,0.0,0.0,0.0,0.0,0.0,0.0,0.0,0.0,0.0,0.0,0.0,0.0,0.0,0.0,0.0,0.0,0.0,0.0,0.0,0.0,0.0,0.0,0.0,0.0,0.0,0.0,0.0,0.0,0.0,0.0,0.0,0.0,0.0,0.0,0.0,0.0,0.0,0.0,0.0,0.0,0.0,0.0,0.0,0.0,0.0,0.0,0.0,0.0,0.0,0.0,0.0,0.0,0.0,0.0,0.0,0.0,0.0,0.0,0.0,0.0,0.0,0.0,0.0,0.0,0.0,0.0,0.0,0.0,0.0,0.0,0.0,0.0,0.0,0.0,0.0,0.0,0.0,0.0,0.0,0.0,0.0,0.0,0.0,0.0,0.0,0.0,0.0,0.0,0.0,0.0,0.0,0.0,0.0,0.0,0.0,0.0,0.0,0.0,0.0,0.0,0.0,0.0,0.0,0.0,0.0,0.0,0.0,0.0,0.0,0.0,0.0,0.0,0.0,0.0,0.0,0.0,0.0,0.0,0.0,0.0,0.0,0.0,0.0,0.0,0.0,0.0,0.0,0.0,0.0,0.0,0.0,0.0,0.0,0.0,0.0,0.0,0.0,0.0,0.0,0.0,0.0,0.0,0.0,0.0,0.0,0.0,0.0,0.0,0.0,0.0,0.0,0.0,0.0,0.0,0.0,0.0,0.0,0.0,0.0,0.0,0.0,0.0,0.0,0.0,0.0,0.0,0.0,0.0,0.0,0.0,0.0,0.0,0.0,0.0,0.0,0.0,0.0,0.0,0.0,0.0,0.0,0.0,0.0,0.0,0.0,0.0,0.0,0.0,0.0,0.0,0.0,0.0,0.0,0.0,0.0,0.0,0.0,0.0,0.0,0.0,0.0,0.0,0.0,0.0,0.0,0.0,0.0,0.0,0.0,0.0,0.0,0.0,0.0,0.0,0.0,0.0,0.0,0.0,0.0,0.0,0.0,0.0,0.0,0.0,0.0,0.0,0.0,0.0,0.0,0.0,0.0,0.0,0.0,0.0,0.0,0.0,0.0,0.0,0.0,0.0,0.0,0.0,0.0,0.0,0.0,0.0,0.0,0.0,0.0,0.0,0.0,0.0,0.0,0.0,0.0,0.0,0.0,0.0,0.0,0.0,0.0,0.0,0.0,0.0,0.0,0.0,0.0,0.0,0.0,0.0,0.0,0.0,0.0,0.0,0.0,0.0,0.0,0.0,0.0,0.0,0.0,0.0,0.0,0.0,0.0,0.0,0.0,0.0,0.0,0.0,0.0,0.0,0.0,0.0,0.0,0.0,0.0,0.0,0.0,0.0,0.0,0.0,0.0,0.0,0.0,0.0,0.0,0.0,0.0,0.0,0.0,0.0,0.0,0.0,0.0,0.0,0.0,0.0,0.0,0.0,0.0,0.0,0.0,0.0,0.0,0.0,0.0,0.0,0.0,0.0,0.0,0.0,0.0,0.0,0.0,0.0,0.0,0.0,0.0,0.0,0.0,0.0,0.0,0.7606,0.0,0.0,0.0,0.0,0.0,0.0,0.0,0.0,0.0,0.0,0.0,0.0,0.0,0.0,0.0,0.0,0.0,0.0,0.0,0.0,0.0,0.0,0.0,0.0,0.0,0.0,0.0,0.0,0.0,0.0,0.0,0.0,0.0,0.0,0.0,0.0,0.0,0.0,0.0,0.0,0.0,0.0,0.0,0.0,0.0,0.0,0.0,0.0,0.0,0.0,0.0,0.0,0.0,0.0,0.0,0.0,0.0,0.0,0.0,0.0,0.0,0.0,0.0,0.0,0.0,0.0,0.0,0.0,0.0,0.0,0.0,0.0,0.0,0.0,0.0,0.0,0.0,0.0,0.0,0.0,0.0,0.0,0.0,0.0,0.0,0.0,0.0,0.0,0.0,0.0,0.0,0.0,0.0,0.0,0.0,0.0,0.0,0.0,0.0,0.0,0.0,0.0,0.0,0.0,0.0,0.0,0.0,0.0,0.0,0.0,0.7606,0.7606,0.7606,0.7606,0.7606,0.0,0.0,0.0,0.0,0.0,0.0,0.0,0.0,0.0,0.0,0.0,0.0,0.0,0.0,0.0,0.0,0.0,0.0,0.0,0.0,0.0,0.0,0.0,0.0,0.0,0.0,0.0,0.0,0.0,0.0,0.0,0.0,0.0,0.0,0.0,0.0,0.0,0.0,0.0,0.0,0.0,0.0,0.0,0.0,0.0,0.0,0.0,0.0,0.0,0.0,0.0,0.0,0.0,0.0,0.0,0.0,0.0,0.0,0.0,0.0,0.0,0.0,0.0,0.0,0.0,0.0,0.0,0.0,0.0,0.0,0.0,0.0,0.0,0.0,0.0,0.0,0.0,0.0,0.0,0.0,0.0,0.0,0.0,0.0,0.0,0.0,0.0,0.0,0.0,0.0,0.0,0.0,0.0,0.0,0.0,0.0,0.0,0.0,0.0,0.0,0.0,0.0,0.0,0.0,0.0,0.0,0.0,0.0,0.0,0.0,0.0,0.0,0.7764,0.7717,0.7701,0.0,0.0,0.0,0.0,0.0,0.0,0.0,0.0,0.0,0.0,0.0,0.0,0.0,0.0,0.0,0.0,0.0,0.0,0.0,0.0,0.0,0.0,0.0,0.0,0.0,0.0,0.0,0.0,0.0,0.0,0.0,0.0,0.0,0.0,0.0,0.0,0.0,0.0,0.0,0.0,0.0,0.0,0.0,0.0,0.0,0.0,0.0,0.0,0.0,0.0,0.0,0.0,0.0,0.0,0.0,0.0,0.0,0.0,0.0,0.0,0.0,0.0,0.0,0.0,0.0,0.0,0.0,0.0,0.0,0.0,0.0,0.0,0.0,0.0,0.0,0.0,0.0,0.0,0.0,0.0,0.0,0.0,0.0,0.0,0.0,0.0,0.0,0.0,0.0,0.0,0.0,0.0,0.0,0.0,0.0,0.0,0.0,0.0,0.0,0.0,0.0,0.0,0.0,0.0,0.0,0.0,0.0,0.0,0.0,0.0,0.7884,0.8491,0.8267,0.0,0.7984,0.0,0.0,0.0,0.0,0.0,0.0,0.0,0.0,0.0,0.0,0.0,0.0,0.0,0.0,0.0,0.0,0.0,0.0,0.0,0.0,0.0,0.0,0.0,0.0,0.0,0.0,0.0,0.0,0.0,0.0,0.0,0.0,0.0,0.0,0.0,0.0,0.0,0.0,0.0,0.0,0.0,0.0,0.0,0.0,0.0,0.0,0.0,0.0,0.0,0.0,0.0,0.0,0.0,0.0,0.0,0.0,0.0,0.0,0.0,0.0,0.0,0.0,0.0,0.0,0.0,0.0,0.0,0.0,0.0,0.0,0.0,0.0,0.0,0.0,0.0,0.0,0.0,0.0,0.0,0.0,0.0,0.0,0.0,0.0,0.0,0.0,0.0,0.0,0.0,0.0,0.0,0.0,0.0,0.0,0.0,0.0,0.0,0.0,0.0,0.0,0.0,0.0,0.0,0.0,0.0,0.0,0.0,0.0,0.0,0.0,0.0,0.8363,0.8187,0.8073,0.0,0.0,0.0,0.0,0.0,0.0,0.0,0.0,0.0,0.0,0.0,0.0,0.0,0.0,0.0,0.0,0.0,0.0,0.0,0.0,0.0,0.0,0.0,0.0,0.0,0.0,0.0,0.0,0.0,0.0,0.0,0.0,0.0,0.0,0.0,0.0,0.0,0.0,0.0,0.0,0.0,0.0,0.0,0.0,0.0,0.0,0.0,0.0,0.0,0.0,0.0,0.0,0.0,0.0,0.0,0.0,0.0,0.0,0.0,0.0,0.0,0.0,0.0,0.0,0.0,0.0,0.0,0.0,0.0,0.0,0.0,0.0,0.0,0.0,0.0,0.0,0.0,0.0,0.0,0.0,0.0,0.0,0.0,0.0,0.0,0.0,0.0,0.0,0.0,0.0,0.0,0.0,0.0,0.0,0.0,0.0,0.0,0.0,0.0,0.0,0.0,0.0,0.0,0.0,0.0,0.0,0.0,0.0,0.0,0.0,0.8454,0.0,0.8369,0.8229,0.8048,0.785,0.0,0.0,0.0,0.0,0.0,0.0,0.0,0.0,0.0,0.0,0.0,0.0,0.0,0.0,0.0,0.0,0.0,0.0,0.0,0.0,0.0,0.0,0.0,0.0,0.0,0.0,0.0,0.0,0.0,0.0,0.0,0.0,0.0,0.0,0.0,0.0,0.0,0.0,0.0,0.0,0.0,0.0,0.0,0.0,0.0,0.0,0.0,0.0,0.0,0.0,0.0,0.0,0.0,0.0,0.0,0.0,0.0,0.0,0.0,0.0,0.0,0.0,0.0,0.0,0.0,0.0,0.0,0.0,0.0,0.0,0.0,0.0,0.0,0.0,0.0,0.0,0.0,0.0,0.0,0.0,0.0,0.0,0.0,0.0,0.0,0.0,0.0,0.0,0.0,0.0,0.0,0.0,0.0,0.0,0.0,0.0,0.0,0.0,0.0,0.0,0.0,0.0,0.0,0.0,0.0,0.0,0.0,0.0,0.0,0.8898,0.8678,0.8868,0.8601,0.8142,0.0,0.0,0.0,0.0,0.0,0.0,0.0,0.0,0.0,0.0,0.0,0.0,0.0,0.0,0.0,0.0,0.0,0.0,0.0,0.0,0.0,0.0,0.0,0.0,0.0,0.0,0.0,0.0,0.0,0.0,0.0,0.0,0.0,0.0,0.0,0.0,0.0,0.0,0.0,0.0,0.0,0.0,0.0,0.0,0.0,0.0,0.0,0.0,0.0,0.0,0.0,0.0,0.0,0.0,0.0,0.0,0.0,0.0,0.0,0.0,0.0,0.0,0.0,0.0,0.0,0.0,0.0,0.0,0.0,0.0,0.0,0.0,0.0,0.0,0.0,0.0,0.0,0.0,0.0,0.0,0.0,0.0,0.0,0.0,0.0,0.0,0.0,0.0,0.0,0.0,0.0,0.0,0.0,0.0,0.0,0.0,0.0,0.0,0.0,0.0,0.0,0.0,0.0,0.0,0.0,0.0,0.0,0.0,0.0,0.8335,0.8263,0.8567,0.9214,0.8329,0.7854,0.0,0.0,0.0,0.0,0.0,0.0,0.0,0.0,0.0,0.0,0.0,0.0,0.0,0.0,0.0,0.0,0.0,0.0,0.0,0.0,0.0,0.0,0.0,0.0,0.0,0.0,0.0,0.0,0.0,0.0,0.0,0.0,0.0,0.0,0.0,0.0,0.0,0.0,0.0,0.0,0.0,0.0,0.0,0.0,0.0,0.0,0.0,0.0,0.0,0.0,0.0,0.0,0.0,0.0,0.0,0.0,0.0,0.0,0.0,0.0,0.0,0.0,0.0,0.0,0.0,0.0,0.0,0.0,0.0,0.0,0.0,0.0,0.0,0.0,0.0,0.0,0.0,0.0,0.0,0.0,0.0,0.0,0.0,0.0,0.0,0.0,0.0,0.0,0.0,0.0,0.0,0.0,0.0,0.0,0.0,0.0,0.0,0.0,0.0,0.0,0.0,0.0,0.0,0.0,0.0,0.0,0.0,0.0,0.0,0.8084,0.0,0.8749,0.0,0.8244,0.7711,0.0,0.0,0.0,0.0,0.0,0.0,0.0,0.0,0.0,0.0,0.0,0.0,0.0,0.0,0.0,0.0,0.0,0.0,0.0,0.0,0.0,0.0,0.0,0.0,0.0,0.0,0.0,0.0,0.0,0.0,0.0,0.0,0.0,0.0,0.0,0.0,0.0,0.0,0.0,0.0,0.0,0.0,0.0,0.0,0.0,0.0,0.0,0.0,0.0,0.0,0.0,0.0,0.0,0.0,0.0,0.0,0.0,0.0,0.0,0.0,0.0,0.0,0.0,0.0,0.0,0.0,0.0,0.0,0.0,0.0,0.0,0.0,0.0,0.0,0.0,0.0,0.0,0.0,0.0,0.0,0.0,0.0,0.0,0.0,0.0,0.0,0.0,0.0,0.0,0.0,0.0,0.0,0.0,0.0,0.0,0.0,0.0,0.0,0.0,0.0,0.0,0.0,0.0,0.0,0.0,0.0,0.0,0.0,0.7913,0.8826,0.9227,0.9234,0.8741,0.8436,0.7774,0.0,0.0,0.0,0.0,0.0,0.0,0.0,0.0,0.0,0.0,0.0,0.0,0.0,0.0,0.0,0.0,0.0,0.0,0.0,0.0,0.0,0.0,0.0,0.0,0.0,0.0,0.0,0.0,0.0,0.0,0.0,0.0,0.0,0.0,0.0,0.0,0.0,0.0,0.0,0.0,0.0,0.0,0.0,0.0,0.0,0.0,0.0,0.0,0.0,0.0,0.0,0.0,0.0,0.0,0.0,0.0,0.0,0.0,0.0,0.0,0.0,0.0,0.0,0.0,0.0,0.0,0.0,0.0,0.0,0.0,0.0,0.0,0.0,0.0,0.0,0.0,0.0,0.0,0.0,0.0,0.0,0.0,0.0,0.0,0.0,0.0,0.0,0.0,0.0,0.0,0.0,0.0,0.0,0.0,0.0,0.0,0.0,0.0,0.0,0.0,0.0,0.0,0.0,0.0,0.0,0.0,0.0,0.0,0.0,0.8104,0.8966,0.9479,0.9476,0.8313,0.7889,0.0,0.0,0.0,0.0,0.0,0.0,0.0,0.0,0.0,0.0,0.0,0.0,0.0,0.0,0.0,0.0,0.0,0.0,0.0,0.0,0.0,0.0,0.0,0.0,0.0,0.0,0.0,0.0,0.0,0.0,0.0,0.0,0.0,0.0,0.0,0.0,0.0,0.0,0.0,0.0,0.0,0.0,0.0,0.0,0.0,0.0,0.0,0.0,0.0,0.0,0.0,0.0,0.0,0.0,0.0,0.0,0.0,0.0,0.0,0.0,0.0,0.0,0.0,0.0,0.0,0.0,0.0,0.0,0.0,0.0,0.0,0.0,0.0,0.0,0.0,0.0,0.0,0.0,0.0,0.0,0.0,0.0,0.0,0.0,0.0,0.0,0.0,0.0,0.0,0.0,0.0,0.0,0.0,0.0,0.0,0.0,0.0,0.0,0.0,0.0,0.0,0.0,0.0,0.0,0.0,0.0,0.0,0.0,0.0,0.8848,0.9514,0.9878,0.9883,0.8674,0.8286,0.8752,0.0,0.0,0.0,0.0,0.0,0.0,0.0,0.0,0.0,0.0,0.0,0.0,0.0,0.0,0.0,0.0,0.0,0.0,0.0,0.0,0.0,0.0,0.0,0.0,0.0,0.0,0.0,0.0,0.0,0.0,0.0,0.0,0.0,0.0,0.0,0.0,0.0,0.0,0.0,0.0,0.0,0.0,0.0,0.0,0.0,0.0,0.0,0.0,0.0,0.0,0.0,0.0,0.0,0.0,0.0,0.0,0.0,0.0,0.0,0.0,0.0,0.0,0.0,0.0,0.0,0.0,0.0,0.0,0.0,0.0,0.0,0.0,0.0,0.0,0.0,0.0,0.0,0.0,0.0,0.0,0.0,0.0,0.0,0.0,0.0,0.0,0.0,0.0,0.0,0.0,0.0,0.0,0.0,0.0,0.0,0.0,0.0,0.0,0.0,0.0,0.0,0.0,0.0,0.0,0.0,0.0,0.0,0.0,1.0851,1.0826,1.055,1.0047,0.9456,0.89,0.0,0.0,0.0,0.0,0.0,0.0,0.0,0.0,0.0,0.0,0.0,0.0,0.0,0.0,0.0,0.0,0.0,0.0,0.0,0.0,0.0,0.0,0.0,0.0,0.0,0.0,0.0,0.0,0.0,0.0,0.0,0.0,0.0,0.0,0.0,0.0,0.0,0.0,0.0,0.0,0.0,0.0,0.0,0.0,0.0,0.0,0.0,0.0,0.0,0.0,0.0,0.0,0.0,0.0,0.0,0.0,0.0,0.0,0.0,0.0,0.0,0.0,0.0,0.0,0.0,0.0,0.0,0.0,0.0,0.0,0.0,0.0,0.0,0.0,0.0,0.0,0.0,0.0,0.0,0.0,0.0,0.0,0.0,0.0,0.0,0.0,0.0,0.0,0.0,0.0,0.0,0.0,0.0,0.0,0.0,0.0,0.0,0.0,0.0,0.0,0.0,0.0,0.0,0.0,0.0,0.0,0.0,0.0,0.0,1.2472,1.2154,1.1685,1.1156,1.0204,0.9617,0.0,0.0,0.0,0.0,0.0,0.0,0.0,0.0,0.0,0.0,0.0,0.0,0.0,0.0,0.0,0.0,0.0,0.0,0.0,0.0,0.0,0.0,0.0,0.0,0.0,0.0,0.0,0.0,0.0,0.0,0.0,0.0,0.0,0.0,0.0,0.0,0.0,0.0,0.0,0.0,0.0,0.0,0.0,0.0,0.0,0.0,0.0,0.0,0.0,0.0,0.0,0.0,0.0,0.0,0.0,0.0,0.0,0.0,0.0,0.0,0.0,0.0,0.0,0.0,0.0,0.0,0.0,0.0,0.0,0.0,0.0,0.0,0.0,0.0,0.0,0.0,0.0,0.0,0.0,0.0,0.0,0.0,0.0,0.0,0.0,0.0,0.0,0.0,0.0,0.0,0.0,0.0,0.0,0.0,0.0,0.0,0.0,0.0,0.0,0.0,0.0,0.0,0.0,0.0,0.0,0.0,0.0,0.0,1.1994,1.386,1.36,1.3195,1.265,1.1561,1.0715,0.0,0.0,0.0,0.0,0.0,0.0,0.0,0.0,0.0,0.0,0.0,0.0,0.0,0.0,0.0,0.0,0.0,0.0,0.0,0.0,0.0,0.0,0.0,0.0,0.0,0.0,0.0,0.0,0.0,0.0,0.0,0.0,0.0,0.0,0.0,0.0,0.0,0.0,0.0,0.0,0.0,0.0,0.0,0.0,0.0,0.0,0.0,0.0,0.0,0.0,0.0,0.0,0.0,0.0,0.0,0.0,0.0,0.0,0.0,0.0,0.0,0.0,0.0,0.0,0.0,0.0,0.0,0.0,0.0,0.0,0.0,0.0,0.0,0.0,0.0,0.0,0.0,0.0,0.0,0.0,0.0,0.0,0.0,0.0,0.0,0.0,0.0,0.0,0.0,0.0,0.0,0.0,0.0,0.0,0.0,0.0,0.0,0.0,0.0,0.0,0.0,0.0,0.0,0.0,0.0,0.0,0.0,0.0,1.2764,1.4848,1.4889,1.4697,1.4253,1.3174,1.204,0.0,0.0,0.0,0.0,0.0,0.0,0.0,0.0,0.0,0.0,0.0,0.0,0.0,0.0,0.0,0.0,0.0,0.0,0.0,0.0,0.0,0.0,0.0,0.0,0.0,0.0,0.0,0.0,0.0,0.0,0.0,0.0,0.0,0.0,0.0,0.0,0.0,0.0,0.0,0.0,0.0,0.0,0.0,0.0,0.0,0.0,0.0,0.0,0.0,0.0,0.0,0.0,0.0,0.0,0.0,0.0,0.0,0.0,0.0,0.0,0.0,0.0,0.0,0.0,0.0,0.0,0.0,0.0,0.0,0.0,0.0,0.0,0.0,0.0,0.0,0.0,0.0,0.0,0.0,0.0,0.0,0.0,0.0,0.0,0.0,0.0,0.0,0.0,0.0,0.0,0.0,0.0,0.0,0.0,0.0,0.0,0.0,0.0,0.0,0.0,0.0,0.0,0.0,0.0,0.0,0.0,0.0,0.0,1.3538,1.4838,1.4889,1.5065,1.5356,1.4315,1.3199,0.0,0.0,0.0,0.0,0.0,0.0,0.0,0.0,0.0,0.0,0.0,0.0,0.0,0.0,0.0,0.0,0.0,0.0,0.0,0.0,0.0,0.0,0.0,0.0,0.0,0.0,0.0,0.0,0.0,0.0,0.0,0.0,0.0,0.0,0.0,0.0,0.0,0.0,0.0,0.0,0.0,0.0,0.0,0.0,0.0,0.0,0.0,0.0,1.1918,0.0,0.0,0.0,0.0,0.0,0.0,0.0,0.0,0.0,0.0,0.0,0.0,0.0,0.0,0.0,0.0,0.0,0.0,0.0,0.0,0.0,0.0,0.0,0.0,0.0,0.0,0.0,0.0,0.0,0.0,0.0,0.0,0.0,0.0,0.0,0.0,0.0,0.0,0.0,0.0,0.0,0.0,0.0,0.0,0.0,0.0,0.0,0.0,0.0,0.0,0.0,0.0,0.0,0.0,0.0,0.0,0.0,0.0,0.0,1.4529,1.5593,1.5658,1.5793,1.605,1.5527,1.4442,0.0,0.0,0.0,0.0,0.0,0.0,0.0,0.0,0.0,0.0,0.0,0.0,0.0,0.0,0.0,0.0,0.0,0.0,0.0,0.0,0.0,0.0,0.0,0.0,0.0,0.0,0.0,0.0,0.0,0.0,0.0,0.0,0.0,0.0,0.0,0.0,0.0,0.0,0.0,0.0,0.0,0.0,0.0,0.0,0.0,0.0,0.0,0.0,0.0,0.0,0.0,0.0,0.0,0.0,0.0,0.0,0.0,0.0,0.0,0.0,0.0,0.0,0.0,0.0,0.0,0.0,0.0,0.0,0.0,0.0,0.0,0.0,0.0,0.0,0.0,0.0,0.0,0.0,0.0,0.0,0.0,0.0,0.0,0.0,0.0,0.0,0.0,0.0,0.0,0.0,0.0,0.0,0.0,0.0,0.0,0.0,0.0,0.0,0.0,0.0,0.0,0.0,0.0,0.0,0.0,0.0,0.0,1.4004,1.5306,1.6335,1.6455,1.6505,1.6511,1.643,1.5482,1.3532,0.0,0.0,0.0,0.0,0.0,0.0,0.0,0.0,0.0,0.0,0.0,0.0,0.0,0.0,0.0,0.0,0.0,0.0,0.0,0.0,0.0,0.0,0.0,0.0,0.0,0.0,0.0,0.0,0.0,0.0,0.0,0.0,0.0,0.0,0.0,0.0,0.0,0.0,1.1414,1.3142,0.0,0.0,0.0,0.0,0.0,0.0,0.0,0.0,1.4193,0.0,0.0,0.0,0.0,0.0,0.0,0.0,0.0,0.0,0.0,0.0,0.0,0.0,0.0,0.0,0.0,0.0,0.0,0.0,0.0,0.0,0.0,0.0,0.0,0.0,0.0,0.0,0.0,0.0,0.0,0.0,0.0,0.0,0.0,0.0,0.0,0.0,0.0,0.0,0.0,0.0,0.0,0.0,0.0,0.0,0.0,0.0,0.0,0.0,0.0,0.0,0.0,0.0,0.0,0.0,0.0,1.3027,1.3828,1.4742,1.5824,1.6285,1.6505,1.65,1.607,1.5442,1.4632,0.0,0.0,0.0,0.0,0.0,0.0,0.0,0.0,0.0,0.0,0.0,0.0,0.0,0.0,0.0,0.0,0.0,0.0,0.0,0.0,0.0,0.0,0.0,0.0,0.0,0.0,0.0,0.0,0.0,0.0,0.0,0.0,0.0,0.0,0.0,0.0,0.0,0.0,0.0,1.5057,1.632,0.0,0.0,0.0,0.0,0.0,0.0,0.0,0.0,1.5002,0.0,0.0,0.0,0.0,0.0,0.0,0.0,0.0,0.0,0.0,0.0,0.0,0.0,0.0,0.0,0.0,0.0,0.0,0.0,0.0,0.0,0.0,0.0,0.0,0.0,0.0,0.0,0.0,0.0,0.0,0.0,0.0,0.0,0.0,0.0,0.0,0.0,0.0,0.0,0.0,0.0,0.0,0.0,0.0,0.0,0.0,0.0,0.0,0.0,0.0,0.0,0.0,0.0,0.0,0.0,1.3152,1.4337,1.5457,1.6527,1.6834,1.6968,1.6954,1.6416,1.5718,0.0,0.0,0.0,0.0,0.0,0.0,0.0,0.0,0.0,0.0,0.0,0.0,0.0,0.0,0.0,0.0,0.0,0.0,0.0,0.0,0.0,0.0,0.0,0.0,0.0,0.0,0.0,0.0,0.0,0.0,0.0,0.0,0.0,0.0,0.0,0.0,0.0,0.0,0.0,0.0,1.5856,1.7064,1.6818,0.0,0.0,0.0,0.0,0.0,0.0,1.6155,1.5545,0.0,0.0,0.0,0.0,0.0,0.0,0.0,0.0,0.0,0.0,0.0,0.0,0.0,0.0,0.0,0.0,0.0,0.0,0.0,0.0,0.0,0.0,0.0,0.0,0.0,0.0,0.0,0.0,0.0,0.0,0.0,0.0,0.0,0.0,0.0,0.0,0.0,0.0,0.0,0.0,0.0,0.0,0.0,0.0,0.0,0.0,0.0,0.0,0.0,0.0,0.0,0.0,0.0,0.0,0.0,1.3391,1.491,1.6256,1.7331,1.7518,1.7518,1.7392,1.6912,1.612,0.0,0.0,0.0,0.0,0.0,0.0,0.0,0.0,0.0,0.0,0.0,0.0,0.0,0.0,0.0,0.0,0.0,0.0,0.0,0.0,0.0,0.0,0.0,0.0,0.0,0.0,0.0,0.0,0.0,0.0,0.0,0.0,0.0,0.0,0.0,0.0,0.0,0.0,0.0,0.0,0.0,1.7923,1.7881,1.7443,0.0,0.0,0.0,0.0,1.7942,1.7577,0.0,0.0,0.0,0.0,0.0,0.0,0.0,0.0,0.0,0.0,0.0,0.0,0.0,0.0,0.0,0.0,0.0,0.0,0.0,0.0,0.0,0.0,0.0,0.0,0.0,0.0,0.0,0.0,0.0,0.0,0.0,0.0,0.0,0.0,0.0,0.0,0.0,0.0,0.0,0.0,0.0,0.0,0.0,0.0,0.0,0.0,0.0,0.0,0.0,0.0,0.0,0.0,0.0,0.0,0.0,0.0,1.3946,1.512,1.6251,1.7336,1.7883,1.7883,1.7423,1.7342,1.6538,0.0,0.0,0.0,0.0,0.0,0.0,0.0,0.0,0.0,0.0,0.0,0.0,0.0,0.0,0.0,0.0,0.0,0.0,0.0,0.0,0.0,0.0,0.0,0.0,0.0,0.0,0.0,0.0,0.0,0.0,0.0,0.0,0.0,0.0,0.0,0.0,0.0,0.0,0.0,0.0,0.0,1.9871,1.8732,1.851,1.8668,0.0,0.0,1.9288,1.9464,2.0846,0.0,0.0,0.0,0.0,0.0,0.0,0.0,0.0,0.0,0.0,0.0,0.0,0.0,0.0,0.0,0.0,0.0,0.0,0.0,0.0,0.0,0.0,0.0,0.0,0.0,0.0,0.0,0.0,0.0,0.0,0.0,0.0,0.0,0.0,0.0,0.0,0.0,0.0,0.0,0.0,0.0,0.0,0.0,0.0,0.0,0.0,0.0,0.0,0.0,0.0,0.0,0.0,0.0,0.0,0.0,1.2609,1.4521,1.5603,1.6868,1.8248,1.8543,1.8393,1.7858,1.7562,1.6624,0.0,0.0,0.0,0.0,0.0,0.0,0.0,0.0,0.0,0.0,0.0,0.0,0.0,0.0,0.0,0.0,0.0,0.0,0.0,0.0,0.0,0.0,0.0,0.0,0.0,0.0,0.0,0.0,0.0,0.0,0.0,0.0,0.0,0.0,0.0,0.0,0.0,0.0,0.0,0.0,0.0,0.0,1.9887,2.0164,0.0,0.0,0.0,2.1081,2.1819,0.0,0.0,0.0,0.0,0.0,0.0,0.0,0.0,0.0,0.0,0.0,0.0,0.0,0.0,0.0,0.0,0.0,0.0,0.0,0.0,0.0,0.0,0.0,0.0,0.0,0.0,0.0,0.0,0.0,0.0,0.0,0.0,0.0,0.0,0.0,0.0,0.0,0.0,0.0,0.0,0.0,0.0,0.0,0.0,0.0,0.0,0.0,0.0,0.0,0.0,0.0,0.0,0.0,0.0,0.0,0.0,0.0,1.509,1.6315,1.7609,1.8951,1.9133,1.8901,1.8229,1.7814,0.0,0.0,0.0,0.0,0.0,0.0,0.0,0.0,0.0,0.0,0.0,0.0,0.0,0.0,0.0,0.0,0.0,0.0,0.0,0.0,0.0,0.0,0.0,0.0,0.0,0.0,0.0,0.0,0.0,0.0,0.0,0.0,0.0,0.0,0.0,0.0,0.0,0.0,0.0,0.0,0.0,0.0,2.0861,2.115,2.1899,2.2617,0.0,0.0,2.2946,2.3724,2.3066,2.2108,0.0,0.0,0.0,0.0,0.0,0.0,0.0,0.0,0.0,0.0,0.0,0.0,0.0,0.0,0.0,0.0,0.0,0.0,0.0,0.0,0.0,0.0,0.0,0.0,0.0,0.0,0.0,0.0,0.0,0.0,0.0,0.0,0.0,0.0,0.0,0.0,0.0,0.0,0.0,0.0,0.0,0.0,0.0,0.0,0.0,0.0,0.0,0.0,0.0,0.0,0.0,0.0,0.0,0.0,0.0,1.5618,1.7244,1.8368,1.9002,1.9503,1.9265,1.8248,1.8167,1.713,0.0,0.0,0.0,0.0,0.0,0.0,0.0,0.0,0.0,0.0,0.0,0.0,0.0,0.0,0.0,0.0,0.0,0.0,0.0,0.0,0.0,0.0,0.0,0.0,0.0,0.0,0.0,0.0,0.0,0.0,0.0,0.0,0.0,0.0,0.0,0.0,0.0,0.0,0.0,0.0,0.0,2.2509,2.2548,2.3634,2.442,0.0,0.0,2.5154,2.4634,2.6004,2.5883,2.2233,0.0,0.0,0.0,0.0,0.0,0.0,0.0,0.0,0.0,0.0,0.0,0.0,0.0,0.0,0.0,0.0,0.0,0.0,0.0,0.0,0.0,0.0,0.0,0.0,0.0,0.0,0.0,0.0,0.0,0.0,0.0,0.0,0.0,0.0,0.0,0.0,0.0,0.0,0.0,0.0,0.0,0.0,0.0,0.0,0.0,0.0,0.0,0.0,0.0,0.0,0.0,0.0,0.0,1.4179,1.6154,1.7532,1.8619,1.944,1.9704,1.9459,1.8713,1.8374,1.7331,0.0,0.0,0.0,0.0,0.0,0.0,0.0,0.0,0.0,0.0,0.0,0.0,0.0,0.0,0.0,0.0,0.0,0.0,0.0,0.0,0.0,0.0,0.0,0.0,0.0,0.0,0.0,0.0,1.1861,1.2169,1.1805,0.0,0.0,0.0,0.0,0.0,0.0,0.0,0.0,0.0,0.0,2.3561,2.4363,2.5974,0.0,0.0,2.7278,2.7374,2.7098,2.6333,2.5094,2.3161,2.152,0.0,0.0,0.0,0.0,0.0,0.0,0.0,0.0,0.0,0.0,0.0,0.0,0.0,0.0,0.0,0.0,0.0,0.0,0.0,0.0,0.0,0.0,0.0,0.0,0.0,0.0,0.0,0.0,0.0,0.0,0.0,0.0,0.0,0.0,0.0,0.0,0.0,0.0,0.0,0.0,0.0,0.0,0.0,0.0,0.0,0.0,0.0,0.0,0.0,0.0,0.0,0.0,1.4289,1.6475,1.7621,1.8725,1.9767,1.9817,1.9553,1.9008,1.8499,1.7431,0.0,0.0,0.0,0.0,0.0,0.0,0.0,0.0,0.0,0.0,0.0,0.0,0.0,0.0,0.0,0.0,0.0,0.0,0.0,0.0,0.0,0.0,0.0,0.0,0.0,0.0,0.0,0.0,1.3198,1.3376,1.2655,0.0,0.0,0.0,0.0,0.0,0.0,0.0,0.0,0.0,0.0,2.4687,2.601,2.759,2.868,2.8883,2.8554,2.8278,2.8291,2.6895,2.5298,2.3855,0.0,0.0,0.0,0.0,0.0,0.0,0.0,0.0,0.0,0.0,0.0,0.0,0.0,0.0,0.0,0.0,0.0,0.0,0.0,0.0,0.0,0.0,0.0,0.0,0.0,0.0,0.0,0.0,0.0,0.0,0.0,0.0,0.0,0.0,0.0,0.0,0.0,0.0,0.0,0.0,0.0,0.0,0.0,0.0,0.0,0.0,0.0,0.0,0.0,0.0,0.0,0.0,0.0,0.0,1.648,1.764,1.8725,1.9761,1.9817,1.9553,1.9027,1.8499,1.742,1.5753,0.0,0.0,0.0,0.0,0.0,0.0,0.0,0.0,0.0,0.0,0.0,0.0,0.0,0.0,0.0,0.0,0.0,0.0,0.0,0.0,0.0,0.0,0.0,0.0,0.0,0.0,1.2808,1.2839,1.2704,0.0,0.0,0.0,0.0,0.0,0.0,0.0,0.0,0.0,0.0,2.3474,2.6057,2.7375,2.8164,2.8906,2.9525,2.8513,2.7675,2.7698,2.8111,2.741,0.0,0.0,0.0,0.0,0.0,0.0,0.0,0.0,0.0,0.0,0.0,0.0,0.0,0.0,0.0,0.0,0.0,0.0,0.0,0.0,0.0,0.0,0.0,0.0,0.0,0.0,0.0,1.389,1.3448,0.0,0.0,0.0,0.0,0.0,0.0,0.0,0.0,0.0,0.0,0.0,1.6347,1.6885,0.0,0.0,0.0,0.0,0.0,0.0,0.0,0.0,0.0,0.0,0.0,0.0,1.5241,1.7054,1.8161,1.9064,1.9792,1.9817,1.9698,1.9516,1.902,1.7791,1.5748,0.0,0.0,0.0,0.0,0.0,0.0,0.0,0.0,0.0,0.0,0.0,0.0,0.0,0.0,0.0,0.0,0.0,0.0,0.0,0.0,0.0,0.0,0.0,0.0,0.0,1.4622,0.0,0.0,0.0,0.0,0.0,0.0,0.0,0.0,0.0,0.0,0.0,1.9929,2.2323,2.5117,2.7393,2.8746,2.9834,3.0621,0.0,0.0,0.0,0.0,0.0,0.0,0.0,0.0,0.0,0.0,0.0,0.0,0.0,0.0,2.6524,2.2168,1.975,1.8805,2.0104,0.0,0.0,0.0,0.0,0.0,0.0,0.0,0.0,0.0,0.0,0.0,0.0,0.0,0.0,0.0,0.0,1.5041,0.0,0.0,0.0,0.0,0.0,0.0,0.0,0.0,1.7447,1.816,1.7985,1.8681,1.8711,0.0,1.7345,1.6094,0.0,0.0,0.0,0.0,0.0,0.0,0.0,0.0,1.6005,1.7632,1.8719,1.9647,2.0338,2.0388,2.0295,2.01,1.9202,1.7935,1.6337,1.4533,1.3379,0.0,0.0,0.0,0.0,0.0,0.0,0.0,0.0,0.0,0.0,0.0,0.0,0.0,0.0,0.0,0.0,0.0,0.0,0.0,0.0,0.0,0.0,0.0,1.6016,0.0,0.0,0.0,0.0,0.0,0.0,0.0,0.0,0.0,1.9613,2.0337,2.1709,2.4303,2.6548,2.844,2.9728,0.0,0.0,0.0,0.0,0.0,0.0,0.0,2.8577,2.8334,2.7763,2.7427,2.7596,2.9092,3.011,2.9698,0.0,0.0,2.5483,2.3471,2.2907,2.4382,2.4388,2.4453,2.5471,2.6201,2.6853,0.0,0.0,0.0,0.0,0.0,0.0,0.0,0.0,1.721,1.7806,0.0,1.7007,0.0,0.0,0.0,0.0,0.0,0.0,0.0,0.0,1.8916,1.9776,1.9821,1.9845,1.9585,1.9108,1.9045,1.8486,1.7353,1.4491,0.0,0.0,0.0,0.0,0.0,0.0,1.6602,1.8223,1.934,2.0388,2.1425,2.1468,2.1238,2.0723,1.9145,1.8022,1.7468,1.6362,1.5256,1.4223,1.3061,0.0,0.0,0.0,0.0,0.0,0.0,0.0,0.0,0.0,0.0,0.0,0.0,0.0,0.0,0.0,0.0,0.0,0.0,0.0,0.0,1.5987,0.0,0.0,0.0,0.0,0.0,0.0,0.0,0.0,0.0,0.0,2.2323,2.2668,2.3786,2.6315,0.0,0.0,0.0,0.0,3.1083,3.2362,3.145,3.0837,3.1488,3.2026,3.1764,3.0027,0.0,0.0,3.011,3.0814,3.1286,3.005,3.0964,3.1361,3.0501,2.8786,2.8171,2.9717,2.89,2.8357,2.9345,2.996,3.0605,2.0639,0.0,0.0,0.0,0.0,1.974,2.0582,2.1714,2.1899,2.1404,2.0374,1.9533,0.0,0.0,0.0,0.0,0.0,0.0,1.8914,1.8851,2.0211,2.0707,2.0449,2.0827,2.0929,2.0765,2.0388,2.0056,1.9686,1.8042,1.6258,1.4452,0.0,0.0,0.0,0.0,1.8103,1.9334,2.0439,2.1174,2.1468,2.1493,2.1425,2.1263,2.0012,1.929,1.912,1.7688,1.6583,1.5819,1.4415,0.0,0.0,0.0,0.0,0.0,0.0,0.0,0.0,0.0,0.0,0.0,0.0,0.0,0.0,0.0,0.0,0.0,0.0,0.0,1.601,1.691,1.7362,0.0,0.0,0.0,0.0,0.0,0.0,0.0,0.0,0.0,2.5207,2.5452,2.6099,0.0,0.0,3.0807,3.1145,3.2041,3.2759,3.3155,0.0,0.0,0.0,3.2273,3.1914,3.2325,3.3253,3.3881,3.3814,3.4113,3.4225,3.3821,3.4105,3.4247,3.3926,3.1996,3.0883,3.1809,3.2632,3.2796,3.1958,3.2198,3.2706,2.3562,2.2708,2.099,2.0699,2.1428,2.1883,2.2898,2.422,2.3959,2.355,2.3037,2.187,2.052,1.9166,1.8682,0.0,0.0,0.0,2.0495,2.0322,2.1722,2.2233,2.2049,2.2555,2.2573,2.2132,2.1794,2.1439,2.0993,2.0338,1.9064,1.7247,0.0,0.0,1.7049,1.8461,1.9623,2.047,2.1349,2.1906,2.2114,2.192,2.1812,2.1802,2.0941,2.0376,2.0144,1.8988,1.7978,1.7213,1.5804,1.4617,0.0,0.0,0.0,0.0,0.0,0.0,0.0,0.0,0.0,0.0,0.0,1.1179,0.0,0.0,0.0,0.0,1.4114,1.6054,1.775,1.8501,0.0,0.0,0.0,0.0,0.0,0.0,0.0,2.2897,2.5142,2.6811,2.7459,2.8128,2.8833,2.9641,3.077,3.169,3.2243,0.0,3.359,3.3859,3.3881,3.4001,3.424,3.3619,3.3379,3.4173,3.4622,3.4989,3.54,3.5489,3.5489,3.5489,3.5489,3.5489,3.5489,3.4157,3.3222,3.376,3.4725,3.5003,3.3866,3.4015,3.4285,2.569,2.5488,2.3244,2.2297,2.2382,2.3433,2.4273,2.4889,2.4231,2.4647,2.5639,2.3865,2.3044,2.2924,2.1916,0.0,0.0,2.194,2.2179,2.182,2.3344,2.4079,2.4079,2.4566,2.4249,2.3246,2.3246,2.2726,2.1802,2.1776,2.1482,2.095,1.998,1.9359,1.9183,2.0226,2.1037,2.1575,2.2081,2.2594,2.3063,2.2633,2.2365,2.2357,2.1802,2.1256,2.0767,2.0144,1.9328,1.8298,1.7183,1.5874,1.437,0.0,0.0,0.0,0.0,0.0,0.0,0.0,0.0,0.0,0.0,0.0,0.0,0.0,0.0,0.0,1.6062,0.0,1.9669,2.0438,0.0,0.0,0.0,2.1326,2.2089,2.3778,2.467,2.3999,0.0,0.0,0.0,0.0,3.16,3.166,3.166,3.2116,3.3342,3.3612,3.3881,3.4496,3.4585,3.4817,3.525,3.531,3.528,3.534,3.5489,3.5489,3.5489,3.5489,3.5489,3.5489,3.5489,3.5489,3.5489,3.54,3.5489,3.5391,3.5459,3.5489,3.537,3.5362,3.537,2.5633,2.5582,2.4998,2.4773,2.4838,2.5121,2.5595,2.6136,2.5981,2.562,2.5109,2.4634,2.3915,2.3058,2.2796,2.2858,2.3204,2.3472,2.3732,2.4046,2.4407,2.4616,2.4624,2.4758,2.465,2.4415,2.4374,2.4264,2.4014,2.4014,2.3738,2.3258,2.3336,2.2365,2.0415,2.0961,2.1568,2.2089,2.2626,2.2962,2.3095,2.297,2.292,2.2895,2.1988,2.1457,2.1292,2.0338,1.9497,1.8838,1.7777,1.6803,1.5949,1.4513,0.0,0.0,0.0,0.0,0.0,0.0,0.0,0.0,0.0,1.4604,1.157,0.0,1.632,0.0,1.8369,2.0129,2.0458,2.152,0.0,0.0,2.3583,2.4347,2.6021,2.7057,2.738,2.671,2.9235,3.1009,3.089,3.1697,3.246,3.2938,3.3028,3.3155,3.3484,3.442,3.507,3.522,3.5228,3.531,3.5451,3.5489,3.5489,3.5489,3.5489,3.5489,3.5489,3.5489,3.5489,3.5489,3.5489,3.5489,3.5519,3.5489,3.5489,3.5489,3.5489,3.5489,3.5489,3.5511,3.5511,2.5979,2.6013,2.5979,2.6017,2.6054,2.6046,2.6409,2.6966,2.669,2.624,2.566,2.5115,2.4483,2.388,2.3847,2.4023,2.434,2.4607,2.4875,2.5151,2.5435,2.5569,2.5561,2.5552,2.541,2.5143,2.5143,2.5025,2.4808,2.4816,2.4641,2.4365,2.4658,2.4039,2.2605,2.2824,2.3118,2.3411,2.3705,2.3847,2.3847,2.3637,2.3379,2.308,2.2533,2.187,2.1169,2.0772,2.0087,1.9027,1.8204,1.7501,1.6929,1.5786,1.5067,0.0,0.0,0.0,0.0,0.0,0.0,0.0,0.0,0.0,0.0,0.0,1.7976,0.0,0.0,0.0,2.2811,2.4105,2.5189,2.5854,2.647,2.7267,2.8364,2.9601,3.0066,2.9422,3.1143,3.2333,3.2131,3.2564,3.3066,3.3447,3.3468,3.3678,3.4327,3.507,3.5489,3.5489,3.5489,3.5489,3.5489,3.5489,3.5489,3.5489,3.5489,3.5489,3.5489,3.5489,3.5489,3.5489,3.5489,3.5639,3.596,3.5721,3.5576,3.5772,3.5519,3.5434,3.5849,3.5872,3.5778,2.6499,2.6499,2.6499,2.6499,2.6499,2.6499,2.6841,2.7338,2.6748,2.6569,2.6616,2.5512,2.5025,2.5017,2.5025,2.5009,2.505,2.5511,2.572,2.5745,2.6264,2.6499,2.6499,2.6499,2.6239,2.5711,2.572,2.546,2.5017,2.5017,2.5017,2.5025,2.5017,2.5017,2.5025,2.5017,2.4942,2.4816,2.4816,2.4816,2.4791,2.4356,2.3813,2.3246,2.307,2.2307,2.0893,2.1187,2.0747,1.9315,1.87,1.8204,1.7719,1.7134,1.686,0.0,1.7121,0.0,0.0,0.0,0.0,0.0,0.0,0.0,0.0,1.8984,2.0343,2.2183,2.3406,2.4627,2.5878,2.7123,2.7921,2.8117,2.9225,2.9967,3.002,3.1562,3.2392,3.175,3.2684,3.3212,3.2841,3.3138,3.3333,3.3454,3.3539,3.3901,3.4878,3.5207,3.5294,3.5359,3.5432,3.5541,3.5669,3.5759,3.581,3.578,3.584,3.575,3.5818,3.5789,3.578,3.578,3.5848,3.6041,3.6734,3.6226,3.5891,3.6167,3.5404,3.5105,3.6013,3.6051,3.5987,2.6499,2.6499,2.6499,2.6499,2.6499,2.6499,2.656,2.6671,2.6543,2.6518,2.6519,2.6282,2.6164,2.6172,2.6164,2.6189,2.6189,2.6273,2.6323,2.634,2.6457,2.6499,2.6499,2.6499,2.6457,2.6315,2.6323,2.6273,2.6197,2.6197,2.6189,2.6164,2.6164,2.6164,0.0,0.0,0.0,0.0,2.4816,2.4816,2.4808,2.4699,2.4382,2.3821,2.2935,0.0,2.1382,2.1011,2.071,2.0383,1.9817,0.0,0.0,0.0,0.0,0.0,0.0,0.0,0.0,0.0,0.0,0.0,2.3301,2.217,2.041,2.2666,2.4681,2.5596,2.6381,2.7189,2.7949,2.8746,2.9638,3.0651,3.1465,3.1951,3.1981,3.2759,3.3088,3.2632,3.2612,3.2672,3.2824,3.2629,3.272,3.3352,3.3819,3.3957,3.3691,3.424,3.4551,3.4568,3.5113,3.5704,3.6216,3.6683,3.7028,3.7037,3.7028,3.6982,3.6905,3.6918,3.6973,3.6918,3.7037,3.6926,3.7019,3.7037,3.6622,3.5929,3.4759,3.435,3.5674,3.5428,3.5065,2.6499,0.0,2.6499,2.6499,0.0,2.6499,2.6499,2.6499,2.6499,2.6499,2.6499,2.6499,2.665,2.6901,2.6893,2.7052,2.7286,2.7295,2.7286,2.7277,2.7018,2.6901,2.691,2.6625,2.6499,2.6499,2.6499,2.6499,2.6499,2.6499,2.6499,2.6499,2.6499,2.6499,2.6499,2.6499,2.6214,2.5644,2.5644,2.5653,2.5619,2.5368,2.4833,2.4004,0.0,0.0,0.0,0.0,0.0,0.0,0.0,0.0,0.0,0.0,0.0,2.0394,2.1126,2.1841,2.2491,2.3419,2.4464,2.5601,2.6409,2.5896,2.3773,2.5435,2.7003,2.7998,2.8643,2.9422,3.0425,3.0844,3.127,3.1936,3.2295,3.2602,3.2968,3.359,3.3881,3.3624,3.3187,3.3086,3.3586,3.2762,3.2715,3.359,3.3428,3.3361,3.3684,3.4345,3.4877,3.477,3.5132,3.5522,3.5831,3.7345,3.7891,3.7171,3.6795,3.6795,3.6795,3.6441,3.6166,3.6157,3.6094,3.6045,3.6345,3.6434,3.6245,3.5436,3.4397,3.3996,3.504,3.5029,3.4851,2.67,2.6776,2.6801,2.6776,2.6801,2.6801,2.6776,2.6784,0.0,0.0,0.0,2.6499,2.6801,2.7277,2.7219,2.7503,2.8088,2.7987,2.8012,2.8072,2.7544,2.732,2.7286,2.6751,2.6499,2.6499,2.6499,2.6499,2.6499,2.6499,2.6499,2.6499,2.6499,2.6499,2.6499,2.6499,2.6499,2.6499,2.6499,2.6499,2.6474,2.6005,2.5285,2.4305,2.418,2.3452,2.2028,2.2365,2.197,2.0639,2.1011,2.1062,2.0603,2.0999,2.193,2.3399,2.4075,2.468,2.5348,2.6487,2.7112,2.7072,2.8887,2.9262,2.7607,2.8088,2.8949,3.0177,3.0649,3.136,3.2549,3.2662,3.2676,3.2653,3.2893,3.3154,3.3279,3.3893,3.4137,3.3942,3.3243,3.3244,3.383,3.2797,3.2489,3.3561,3.3092,3.2736,3.3976,3.4686,3.504,3.5076,3.4935,3.4903,3.5416,3.6645,3.7809,3.6667,3.6391,3.6324,3.6224,3.5692,3.5265,3.5461,3.5049,3.5206,3.5566,3.5642,3.5377,3.4958,3.4131,3.363,3.4231,3.4548,3.4617,2.7453,2.7871,2.7862,2.7871,2.7871,2.7871,2.7871,2.7795,2.6893,2.6499,2.6499,2.6499,2.6783,2.7286,2.6809,2.7169,2.8037,2.7629,2.7645,0.0,2.7544,2.732,2.7261,2.6751,2.6499,2.6499,2.6499,2.6499,2.6499,2.6499,2.6499,2.6499,2.6499,2.6499,2.6499,2.6499,2.6499,2.6499,2.6499,2.6499,2.6499,2.6432,2.6063,2.541,2.4917,2.4365,2.3685,2.3703,2.3653,2.3427,2.3484,2.3484,2.3424,2.3412,2.3843,2.4679,2.5218,2.6003,2.7236,2.8013,2.9237,3.0999,3.2078,3.2117,3.0988,3.1435,3.2138,3.2864,3.2497,3.2519,3.3245,3.3365,3.3313,3.3347,3.4322,3.4394,3.2681,3.3095,3.3156,3.2139,3.1589,3.179,3.2535,3.1854,3.1779,3.2836,3.3054,3.3291,3.4223,3.4343,3.4344,3.4594,3.3882,3.3948,3.5153,3.5207,3.5765,3.6689,3.6702,3.6664,3.6607,3.627,3.6028,3.6256,3.5823,3.5768,3.5757,3.5496,3.5019,3.4486,3.3725,3.3293,3.3454,3.3464,3.3639,2.7871,2.8097,2.8113,2.8113,2.8113,2.8113,2.8113,2.8072,2.7595,2.7361,2.7386,2.737,2.7645,2.8147,2.7921,2.8072,2.853,2.8288,2.8147,2.8072,2.7544,2.732,2.727,2.6751,2.6499,2.6499,2.6499,2.6499,2.6499,2.6499,2.6499,2.6499,2.6499,2.6499,2.6499,2.6499,2.6499,2.6499,2.6499,2.6499,2.6499,2.6499,2.6214,2.5628,2.5352,2.5,2.4448,2.444,2.4305,2.402,2.4297,2.4448,2.4456,2.4676,2.527,2.623,2.6803,2.7507,2.8449,2.9146,2.9959,3.1039,3.1895,3.2417,3.24,3.2799,3.3335,3.3949,3.3732,3.3844,3.4502,3.4278,3.3884,3.3433,3.3698,3.3363,3.2492,3.2492,3.2622,3.2319,3.1919,3.204,3.3033,3.2146,3.1929,3.3066,3.3319,3.3539,3.3982,3.4089,3.4259,3.4627,3.4129,3.4061,3.4912,3.4738,3.4965,3.6058,3.6237,3.6188,3.6039,3.5658,3.5271,3.504,3.4846,3.4671,3.4584,3.4283,3.3963,3.3789,3.3443,3.3111,3.3126,3.3126,3.3251,2.8355,2.8473,2.8499,2.8499,2.8473,2.8499,2.8489,2.8489,2.8499,2.8473,2.8448,2.8213,2.8414,2.8872,2.8762,2.8847,2.9057,2.8947,2.8756,2.8439,2.7921,2.7679,2.7578,2.6993,2.6684,2.665,2.6549,2.6499,2.6499,2.6499,2.6499,2.6499,2.6499,2.6499,2.6499,2.6499,2.6499,2.6499,2.6499,2.6499,2.6499,2.6499,2.6273,2.5854,2.5804,2.5619,2.5209,2.5184,2.5059,2.4799,2.5151,2.541,2.5552,2.5929,2.6663,2.7686,2.8213,2.8819,2.9558,3.01,3.0528,3.0818,3.1446,3.2182,3.2958,3.333,3.3783,3.4353,3.4256,3.4348,3.4463,3.4227,3.3698,3.2958,3.2754,3.247,3.205,3.2164,3.2468,3.2786,3.2445,3.2545,3.3117,3.2628,3.2434,3.3307,3.3665,3.3642,3.3509,3.3918,3.426,3.4393,3.4378,3.4288,3.4314,3.4241,3.4475,3.5159,3.521,3.5118,3.4903,3.4371,3.3968,3.3799,3.3556,3.3492,3.3354,3.3272,3.3197,3.3186,3.3133,3.3126,3.3126,3.3126,3.3126,2.9132,2.9603,2.9588,2.9638,2.9613,2.9603,2.9588,2.9613,2.9628,2.9628,2.9478,2.8549,2.843,2.8797,2.8439,2.8765,2.9603,2.9132,2.9142,2.9453,2.9041,2.8756,2.858,2.7704,2.7211,2.7169,2.6767,2.66,2.66,2.6524,2.6499,2.6499,2.6499,2.6499,2.6499,2.6499,2.6499,2.6499,2.6499,2.6499,2.6499,2.6499,2.6491,2.6424,2.6399,2.6416,2.6273,2.634,2.6549,2.6968,2.6959,2.7243,2.7686,2.7812,2.8187,2.8872,2.8994,2.9575,3.0742,3.1009,3.1243,3.2035,3.2063,3.2332,3.2826,3.3305,3.3775,3.41,3.3781,3.3276,3.2636,3.2557,3.2392,3.1852,3.2533,3.2626,3.1653,3.2203,3.2701,3.1971,3.225,3.2381,3.2436,3.2431,3.2726,3.3441,3.3781,3.3918,3.3845,3.3812,3.3837,3.3865,3.3926,3.4042,3.4052,3.3789,3.3842,3.3953,3.3921,3.3995,3.3942,3.3778,3.3464,3.3428,3.3293,3.3165,3.3144,3.3126,3.3126,3.3126,3.3126,3.3126,3.3126,3.3165,3.3165,2.9569,2.9779,2.9779,2.9779,2.9779,2.9779,2.9779,2.9779,2.9779,2.9779,2.9764,2.9302,2.9227,2.9428,2.9192,2.9202,2.9242,2.8998,2.8856,2.88,2.8539,2.843,2.8355,2.7996,2.777,2.7754,2.7553,2.7462,2.7395,2.7144,2.6968,2.6943,2.6675,2.6499,2.6499,2.6499,2.6499,2.6499,2.6499,2.6499,2.6499,2.6499,2.6499,2.6499,2.6499,2.6499,2.6499,2.6499,2.6608,2.6801,2.6817,2.7202,2.8037,2.7795,2.8208,2.9362,2.9518,2.976,3.0284,3.0338,3.0488,3.0809,3.1052,3.1378,3.1883,3.2541,3.3054,3.3251,3.3075,3.2761,3.264,3.3035,3.3019,3.2509,3.3019,3.3113,3.2176,3.236,3.2518,3.2349,3.238,3.2468,3.2586,3.2991,3.3338,3.3549,3.3707,3.3831,3.3704,3.3683,3.3715,3.3704,3.3683,3.3704,3.3799,3.3673,3.3577,3.3662,3.3689,3.3694,3.3524,3.346,3.3354,3.3251,3.3154,3.3126,3.3111,3.3126,3.3126,3.3151,3.3151,3.3176,3.3517,3.3581,3.3682,2.9779,2.9779,2.9779,2.9779,2.9779,2.9779,2.9779,2.9779,2.9779,2.9779,2.9779,2.9779,2.9779,2.9779,2.9779,2.9553,2.9183,2.9157,2.8941,2.8599,2.8574,2.8565,2.8574,2.8389,2.8314,2.8288,2.8138,2.8088,2.8063,2.772,2.7494,2.7453,2.7126,2.6943,2.6943,2.6918,2.6943,2.6943,2.6943,2.6918,2.6934,2.6934,2.6801,2.6533,2.6499,2.6499,2.6499,2.6499,2.665,2.6918,2.6943,2.7446,2.8448,2.8181,2.8524,2.9613,2.9779,2.9779,2.9779,2.9779,2.9779,2.9818,3.0088,3.0496,3.1092,3.1697,3.2149,3.2431,3.2445,3.2585,3.2791,3.322,3.3233,3.2804,3.3109,3.3086,3.2653,3.2534,3.2633,3.2784,3.276,3.2731,3.2988,3.345,3.3706,3.3562,3.3552,3.3588,3.3418,3.3471,3.3513,3.3524,3.3396,3.3432,3.3556,3.346,3.346,3.3481,3.3503,3.3439,3.3358,3.3336,3.3304,3.3165,3.3111,3.3126,3.3126,3.3126,3.3266,3.333,3.3431,3.3643,3.4048,3.4123,3.4262,2.9779,2.9779,2.9779,2.9779,2.9779,2.9779,2.9779,2.9779,2.9779,2.9779,2.9779,2.9779,2.9779,2.9779,2.9779,2.9779,2.9739,2.9694,2.9679,2.9613,2.9628,2.9704,2.9679,2.9132,2.8872,2.8831,2.8464,2.8213,2.8188,2.8088,2.8063,2.8072,2.7971,2.7987,2.7946,2.7921,2.8021,2.7921,2.7896,2.7971,2.798,2.7996,2.7487,2.67,2.6533,2.6575,2.6549,2.6524,2.6977,2.7953,2.7971,2.8499,2.9503,2.9628,2.9663,2.9754,2.9779,2.9779,2.9779,2.9779,2.9804,2.9839,2.9932,3.0186,3.0922,3.1165,3.1465,3.1751,3.2255,3.2482,3.2498,3.2505,3.2352,3.2249,3.218,3.2338,3.2478,3.2756,3.2957,3.3127,3.3239,3.328,3.3358,3.3456,3.3566,3.3566,3.3539,3.3436,3.347,3.3326,3.3302,3.3316,3.328,3.3212,3.3358,3.3315,3.3186,3.3258,3.3301,3.323,3.3147,3.3101,3.3151,3.319,3.3316,3.3341,3.3176,3.3241,3.3495,3.3746,3.4173,3.4474,3.4603,3.4664,3.484,2.9779,2.9779,2.9779,2.9779,2.9779,2.9779,2.9779,2.9779,2.9779,2.9779,2.9779,2.9779,2.9779,2.9779,2.9779,2.9779,2.9779,2.9779,2.9779,2.9779,2.9779,2.9779,2.9754,2.9553,2.9478,2.9453,2.9277,2.9176,2.9126,2.8806,2.8596,2.853,2.8263,2.8113,2.8113,2.8113,2.8113,2.8113,2.8113,2.8113,2.8138,2.8113,2.7905,2.7562,2.7537,2.7537,2.7537,2.7528,2.772,2.8088,2.8113,2.8448,2.9167,2.9603,2.9603,2.9318,2.9578,2.9779,2.9779,2.9779,2.9955,3.0281,3.0424,3.0681,3.1186,3.16,3.197,3.2284,3.2621,3.2893,3.2965,3.2767,3.2618,3.2772,3.2957,3.3074,3.3167,3.3221,3.3296,3.3465,3.356,3.3545,3.3458,3.3443,3.3422,3.3351,3.3543,3.3687,3.378,3.3905,3.4062,3.4123,3.4123,3.4145,3.42,3.3532,3.3126,3.3226,3.3302,3.3578,3.3632,3.3897,3.4022,3.3972,3.3972,3.3947,3.3922,3.4048,3.4187,3.4313,3.4739,3.5041,3.5143,3.5216,3.5429,2.9779,2.9779,2.9779,2.9914,3.0055,3.008,3.0166,3.0291,3.0316,3.0306,3.0306,3.0306,3.0316,3.0316,3.0306,3.0316,3.0276,2.999,2.9779,2.9779,2.9779,2.9779,2.9779,2.9779,2.9779,2.9789,2.9779,2.9779,2.9764,2.9393,2.9192,2.9157,2.8825,2.8658,2.8649,2.8649,2.8649,2.864,2.8649,2.8674,2.8649,2.8649,2.8658,2.8649,2.8649,2.8473,2.8138,2.8113,2.8188,2.8339,2.8355,2.8605,2.9167,2.9569,2.9628,2.9292,2.9578,2.9899,3.003,3.0055,3.0281,3.0799,3.1004,3.1226,3.1618,3.2085,3.2435,3.2723,3.2956,3.3176,3.3282,3.313,3.302,3.3161,3.3347,3.3535,3.3577,3.3418,3.3364,3.3424,3.3471,3.3483,3.3549,3.3557,3.3608,3.3581,3.3947,3.4148,3.4212,3.4438,3.4692,3.4692,3.4628,3.4603,3.4586,3.4084,3.3833,3.3897,3.3872,3.4062,3.4237,3.4589,3.4753,3.4753,3.4717,3.4717,3.4767,3.4879,3.4929,3.4954,3.5292,3.5666,3.573,3.5768,3.5906,2.9804,2.9829,2.9804,3.0156,3.0573,3.0608,3.0899,3.1246,3.1306,3.1231,3.1205,3.1306,3.1231,3.1331,3.1205,3.1321,3.1095,3.0357,2.9965,2.9965,2.9939,2.993,2.9939,2.999,2.998,2.9955,2.9854,2.9839,2.9854,2.9829,2.9779,2.9764,2.9679,2.9578,2.9729,2.9628,2.9679,2.9654,2.9613,2.9688,2.9779,2.9663,2.9628,2.9679,2.9654,2.9227,2.8298,2.8213,2.8455,2.8866,2.8907,2.9202,2.9654,2.9829,2.9839,2.9829,2.9854,3.0105,3.0532,3.0588,3.0834,3.1296,3.1417,3.1668,3.2125,3.2286,3.2508,3.2932,3.3097,3.3176,3.3355,3.3265,3.315,3.3122,3.3197,3.324,3.3326,3.3254,3.3126,3.3233,3.333,3.3377,3.3732,3.393,3.4059,3.4399,3.4628,3.4703,3.4728,3.4876,3.4803,3.4828,3.499,3.5141,3.4929,3.4703,3.4728,3.4728,3.4678,3.4728,3.4764,3.5015,3.5203,3.5216,3.5253,3.5228,3.5266,3.5367,3.5492,3.5593,3.5968,3.613,3.613,3.6143,3.623,3.0005,3.0322,3.0347,3.0658,3.111,3.117,3.1271,3.1406,3.1406,3.1406,3.1406,3.1406,3.1406,3.1396,3.1406,3.1406,3.1381,3.1035,3.0919,3.0894,3.0894,3.0879,3.0869,3.0884,3.0919,3.0894,3.0894,3.0693,3.0397,3.0347,3.0181,2.9854,2.9804,2.9779,2.9829,2.9779,2.9779,2.9779,2.9779,2.9779,2.9779,2.9804,2.9804,2.9779,2.9779,2.9754,2.9794,2.9478,2.9352,2.9518,2.9518,2.9594,2.9829,3.0156,3.0337,3.0397,3.0718,3.0944,3.11,3.115,3.1386,3.1838,3.1964,3.224,3.2717,3.2792,3.2903,3.3101,3.3126,3.3259,3.3633,3.37,3.356,3.3319,3.3197,3.3187,3.3302,3.3499,3.3693,3.3858,3.4048,3.4173,3.4159,3.4285,3.4527,3.4753,3.5043,3.5244,3.5305,3.5554,3.5854,3.5879,3.5879,3.5716,3.5616,3.5529,3.5541,3.5429,3.5342,3.5292,3.5342,3.5429,3.5616,3.5666,3.5716,3.5741,3.5792,3.5867,3.5956,3.6068,3.623,3.6318,3.6393,3.6405,3.6405,3.0306,3.0623,3.0799,3.121,3.1687,3.1687,3.1848,3.1999,3.2024,3.2014,3.2024,3.2035,3.1816,3.1613,3.1857,3.1816,3.155,3.1837,3.2024,3.1934,3.1522,3.1406,3.1406,3.1406,3.1406,3.1406,3.1406,3.1246,3.0909,3.0874,3.0723,3.0432,3.0392,3.0417,3.0392,3.0392,3.0392,3.0392,3.0417,3.0382,3.0417,3.0392,3.0382,3.0392,3.0401,3.0567,3.0849,3.0557,3.0392,3.0392,3.0392,3.0382,3.0407,3.0708,3.0899,3.0959,3.1195,3.1472,3.1662,3.1677,3.1938,3.2416,3.2552,3.2677,3.3054,3.3215,3.3391,3.3416,3.3632,3.3822,3.4112,3.4198,3.4089,3.3907,3.3809,3.3707,3.3757,3.3972,3.4134,3.4271,3.4461,3.4625,3.4687,3.4801,3.5104,3.5317,3.5606,3.5832,3.5894,3.613,3.6318,3.6393,3.6267,3.6217,3.6343,3.6343,3.6343,3.618,3.5993,3.5906,3.5881,3.5993,3.6142,3.6105,3.6142,3.6117,3.613,3.6217,3.6292,3.6393,3.6405,3.6405,3.6405,3.6405,3.6405,3.0558,3.0668,3.1154,3.1593,3.2047,3.2072,3.2325,3.285,3.2746,3.261,3.2678,3.2471,3.2285,3.1895,3.2341,3.232,3.1974,3.2553,3.2925,3.2688,3.2135,3.1673,3.1683,3.1708,3.1708,3.1658,3.1633,3.1522,3.1436,3.1446,3.1432,3.1271,3.122,3.1346,3.1256,3.1346,3.1281,3.122,3.1296,3.1306,3.1296,3.1321,3.1321,3.1296,3.1271,3.1331,3.1411,3.1461,3.1446,3.1386,3.1281,3.122,3.1346,3.1421,3.1446,3.1472,3.1482,3.1813,3.2154,3.2265,3.2505,3.3054,3.314,3.3176,3.3366,3.3721,3.3947,3.3972,3.4313,3.4639,3.4703,3.4753,3.4739,3.4815,3.4625,3.4564,3.4703,3.4728,3.4714,3.4561,3.465,3.494,3.5326,3.5467,3.578,3.6105,3.6256,3.6256,3.6292,3.6343,3.6393,3.6405,3.6405,3.6405,3.6405,3.6405,3.6405,3.6368,3.6256,3.6244,3.6219,3.6331,3.6405,3.6405,3.6405,3.6405,3.6405,3.6405,3.6405,3.6405,3.6405,3.6405,3.6443,3.6468,3.6619,3.0004,3.074,3.0886,3.1272,3.1723,3.1758,3.182,3.1878,3.1281,3.1091,3.099,3.0957,3.1293,3.1592,3.1856,3.2209,3.2579,3.2939,3.3126,3.3065,3.2849,3.2663,3.2663,3.2638,3.2623,3.2587,3.2537,3.2426,3.2014,3.1989,3.1813,3.1406,3.1497,3.1457,3.1406,3.1482,3.1406,3.1406,3.1421,3.1457,3.1457,3.1457,3.1406,3.1406,3.1432,3.1647,3.1989,3.2426,3.221,3.1446,3.1406,3.1406,3.1507,3.1788,3.1989,3.2039,3.2401,3.2688,3.2803,3.2853,3.314,3.3596,3.3696,3.3858,3.4274,3.4377,3.4477,3.4502,3.4653,3.4892,3.5193,3.5294,3.5492,3.5767,3.5278,3.4929,3.5205,3.5294,3.5406,3.5765,3.5865,3.5941,3.6004,3.608,3.618,3.6343,3.6405,3.6405,3.6405,3.6405,3.6405,3.6405,3.6405,3.6405,3.6405,3.6405,3.6405,3.6405,3.6393,3.6381,3.6356,3.6368,3.6405,3.6405,3.6405,3.6405,3.6405,3.6405,3.6405,3.6468,3.6494,3.6544,3.6619,3.6695,3.6959,2.9767,3.0192,3.0437,3.0731,3.1002,3.1025,3.1002,3.089,3.0475,3.0204,3.0204,3.0204,3.0497,3.1013,3.1437,3.1878,3.246,3.2918,3.3126,3.3126,3.3075,3.3075,3.3101,3.3101,3.3126,3.3126,3.3126,3.2903,3.2616,3.2566,3.239,3.221,3.2125,3.2135,3.216,3.2135,3.211,3.2135,3.211,3.21,3.21,3.2125,3.2135,3.2135,3.21,3.23,3.2627,3.2903,3.2774,3.2261,3.2135,3.211,3.2135,3.239,3.2566,3.2591,3.2928,3.3165,3.3406,3.3431,3.3682,3.4087,3.4237,3.4377,3.4653,3.4867,3.5043,3.5043,3.5241,3.5543,3.5794,3.5894,3.6031,3.6205,3.5792,3.5554,3.5844,3.5881,3.6031,3.6292,3.6405,3.6405,3.6405,3.6405,3.6393,3.6405,3.6405,3.6405,3.6405,3.643,3.6468,3.6544,3.6519,3.6544,3.6544,3.6544,3.6758,3.6733,3.6909,3.6859,3.6619,3.6569,3.6519,3.6519,3.6443,3.6443,3.6544,3.6569,3.6569,3.6619,3.6669,3.6859,3.7034,3.7185,3.7436,2.9551,2.9282,2.9806,3.0056,3.0034,3.0045,3.0022,3.0022,2.9795,2.9738,2.9761,2.9943,3.0091,3.0272,3.1237,3.1691,3.19,3.2788,3.3036,3.3126,3.3126,3.3126,3.3126,3.3126,3.3126,3.3126,3.3126,3.3101,3.3014,3.304,3.3075,3.295,3.2964,3.304,3.2889,3.3,3.3101,3.2975,3.2925,3.2889,3.2889,3.2889,3.2889,3.2889,3.2889,3.2914,3.304,3.3165,3.3154,3.3165,3.314,3.2989,3.3014,3.309,3.319,3.3205,3.333,3.3607,3.3886,3.3986,3.4212,3.4664,3.4767,3.4828,3.5029,3.538,3.5606,3.5606,3.6093,3.623,3.6292,3.6356,3.6406,3.6519,3.6468,3.6494,3.6544,3.6468,3.6405,3.6405,3.6405,3.6405,3.6405,3.6418,3.6406,3.6695,3.6695,3.6795,3.6871,3.6984,3.6934,3.6859,3.6808,3.6683,3.6683,3.6683,3.6984,3.7198,3.7525,3.75,3.706,3.6909,3.6758,3.6733,3.6984,3.7009,3.6884,3.6884,3.6909,3.706,3.7248,3.7525,3.7789,3.7902,3.8102,2.821,2.8848,2.8948,2.9037,2.9025,2.9025,2.9025,2.8957,2.8258,2.8115,2.8139,2.8701,2.9463,3.0238,3.1113,3.1988,3.2626,3.2982,3.3126,3.3126,3.3126,3.3126,3.3126,3.3126,3.3126,3.3126,3.3126,3.3126,3.3126,3.3126,3.3126,3.3126,3.3126,3.3126,3.3126,3.3126,3.3126,3.3126,3.3126,3.3126,3.3115,3.314,3.3165,3.319,3.319,3.314,3.3226,3.3506,3.3732,3.3632,3.338,3.3241,3.3291,3.3556,3.3732,3.3796,3.4112,3.4352,3.4502,3.4541,3.4742,3.5244,3.5344,3.5531,3.6004,3.608,3.618,3.6205,3.6318,3.643,3.6468,3.6418,3.6669,3.6946,3.7034,3.7173,3.7399,3.6909,3.6569,3.6468,3.6468,3.6418,3.6443,3.6544,3.6658,3.6934,3.711,3.7248,3.7374,3.7475,3.7424,3.7299,3.7324,3.7274,3.7299,3.7349,3.7575,3.7851,3.8128,3.8316,3.7851,3.76,3.76,3.7625,3.7701,3.7563,3.7248,3.7449,3.75,3.7663,3.7839,3.804,3.8241,3.8467,3.868,2.7534,2.8035,2.8045,2.8057,2.8057,2.8033,2.8045,2.7951,2.7538,2.7309,2.7404,2.788,2.8852,3.0192,3.0767,3.168,3.2853,3.3126,3.3126,3.3126,3.3126,3.3126,3.3126,3.3126,3.3126,3.3126,3.3126,3.3126,3.3126,3.3126,3.3126,3.3126,3.3126,3.3126,3.3126,3.3151,3.3126,3.3126,3.3126,3.3126,3.3115,3.3366,3.3657,3.3796,3.3847,3.3858,3.3922,3.4087,3.4262,3.4212,3.4022,3.3847,3.3872,3.4112,3.4274,3.4338,3.4502,3.4842,3.4968,3.5093,3.533,3.5869,3.5931,3.6093,3.6318,3.6405,3.6405,3.6405,3.643,3.648,3.6733,3.7073,3.7299,3.7475,3.7563,3.7726,3.7839,3.7475,3.7085,3.7034,3.7098,3.7311,3.7336,3.7085,3.7173,3.7538,3.7575,3.7701,3.7688,3.7789,3.7839,3.7789,3.7864,3.7914,3.7977,3.8102,3.8303,3.8555,3.8806,3.8982,3.8881,3.8705,3.858,3.8442,3.8165,3.7814,3.7588,3.7839,3.809,3.8191,3.8316,3.8454,3.8705,3.9044,3.9233,2.7103,2.7309,2.7309,2.7309,2.7309,2.7333,2.7369,2.7345,2.7309,2.7428,2.7618,2.7632,2.9106,3.0204,3.0767,3.1724,3.2712,3.3126,3.3126,3.3126,3.3126,3.3126,3.3126,3.3126,3.319,3.319,3.314,3.314,3.3251,3.3241,3.3416,3.3366,3.3416,3.3531,3.3416,3.3366,3.3481,3.3531,3.3531,3.3517,3.3506,3.3847,3.4212,3.4452,3.4552,3.4539,3.4552,3.4703,3.4828,3.4828,3.4915,3.4965,3.494,3.4865,3.484,3.4828,3.4979,3.5292,3.5581,3.5693,3.5881,3.6393,3.6393,3.6443,3.6519,3.6619,3.6695,3.6745,3.682,3.6934,3.7299,3.7588,3.7902,3.809,3.8128,3.8153,3.8228,3.8253,3.809,3.7626,3.7613,3.7776,3.7927,3.7864,3.8015,3.8103,3.814,3.8165,3.8178,3.8253,3.8391,3.8517,3.8642,3.8668,3.8718,3.8705,3.8931,3.9032,3.9308,3.9409,3.9534,3.9383,3.9069,3.8718,3.8417,3.8216,3.8191,3.8417,3.8592,3.8693,3.8818,3.9019,3.9295,3.966,3.966,2.6586,2.7309,2.7309,2.7309,2.7309,2.7309,2.7309,2.7309,2.7345,2.7762,2.848,2.9326,3.0181,3.1247,3.2286,3.2831,3.3015,3.3126,3.3126,3.3126,3.3126,3.3115,3.319,3.3215,3.338,3.3531,3.3456,3.3431,3.3707,3.3771,3.3947,3.4313,3.4352,3.4338,3.4313,3.4413,3.4288,3.4201,3.4237,3.4262,3.4301,3.4452,3.4653,3.4853,3.4904,3.4879,3.4904,3.5143,3.5357,3.5419,3.5855,3.6029,3.5917,3.5593,3.5406,3.5456,3.573,3.6004,3.613,3.6205,3.6292,3.6393,3.6443,3.672,3.6934,3.7085,3.721,3.7525,3.765,3.7764,3.7827,3.8078,3.8291,3.8542,3.8756,3.8894,3.9195,3.922,3.8919,3.8253,3.8165,3.8165,3.8391,3.8517,3.8567,3.8642,3.8718,3.8881,3.9019,3.912,3.927,3.9371,3.9471,3.9496,3.9496,3.9446,3.9484,3.9434,3.9559,3.9559,3.966,3.9685,3.9446,3.912,3.9094,3.9145,3.9157,3.9082,3.9157,3.922,3.9396,3.9521,3.9622,3.971,3.971,2.6323,2.6945,2.7194,2.7309,2.7309,2.7309,2.7309,2.7393,2.7809,2.8279,2.8898,2.9761,3.0734,3.1525,3.201,3.2557,3.3015,3.3126,3.3126,3.3126,3.3115,3.3291,3.3481,3.3506,3.3847,3.4112,3.4073,3.4022,3.4288,3.4313,3.4488,3.4603,3.4692,3.4692,3.4692,3.4653,3.4728,3.4728,3.4728,3.4728,3.4767,3.4954,3.5241,3.5504,3.5566,3.5591,3.5641,3.578,3.5956,3.6006,3.623,3.6368,3.6318,3.618,3.5956,3.6006,3.623,3.6418,3.6393,3.6418,3.6494,3.6795,3.682,3.7085,3.7449,3.7638,3.7801,3.799,3.8379,3.8454,3.8467,3.8655,3.8994,3.9195,3.9283,3.9409,3.9609,3.9685,3.932,3.8868,3.8944,3.8969,3.8994,3.9094,3.9107,3.9183,3.9283,3.9459,3.9685,3.971,3.971,3.971,3.9672,3.9672,3.9672,3.9697,3.971,3.971,3.971,3.971,3.971,3.971,3.971,3.9546,3.9685,3.971,3.9635,3.9434,3.9609,3.971,3.966,3.9622,3.9672,3.971,3.9772,2.6167,2.6634,2.7111,2.7309,2.7309,2.7309,2.7309,2.7499,2.8291,2.8805,2.9141,3.0068,3.1046,3.1724,3.2045,3.2384,3.309,3.3126,3.3165,3.3316,3.3341,3.3556,3.3947,3.4112,3.4338,3.4778,3.4828,3.4853,3.4842,3.4867,3.4929,3.5141,3.5091,3.5041,3.5127,3.5228,3.5041,3.5041,3.5041,3.5041,3.5155,3.5456,3.5894,3.6343,3.6405,3.6355,3.6267,3.6292,3.6343,3.6343,3.6393,3.6405,3.6405,3.6405,3.6405,3.6405,3.6405,3.6443,3.6569,3.6619,3.6871,3.7299,3.7349,3.7675,3.8077,3.8316,3.8417,3.8442,3.873,3.9044,3.9107,3.9396,3.9609,3.966,3.966,3.971,3.9685,3.971,3.971,3.9546,3.971,3.9622,3.9446,3.9446,3.9409,3.9409,3.9509,3.9509,3.971,3.971,3.971,3.971,3.971,3.971,3.971,3.9697,3.971,3.971,3.971,3.971,3.971,3.971,3.9722,3.9772,3.971,3.971,3.971,3.971,3.971,3.971,3.971,3.9798,3.9973,4.0074,4.0149,2.6167,2.6634,2.7123,2.7309,2.7309,2.7309,2.7309,2.7428,2.8361,2.9233,2.9966,3.1025,3.1966,3.2647,3.2842,3.2972,3.3093,3.319,3.338,3.3657,3.3807,3.4098,3.4527,3.4614,3.494,3.5355,3.5419,3.5408,3.5419,3.5419,3.5656,3.5968,3.6004,3.613,3.5954,3.5929,3.6192,3.6167,3.6142,3.6142,3.6105,3.6192,3.6318,3.6368,3.6405,3.6405,3.6405,3.6405,3.6405,3.6405,3.6405,3.6405,3.6405,3.6405,3.6405,3.6405,3.6455,3.6606,3.6959,3.711,3.7349,3.7789,3.7914,3.8228,3.8655,3.9107,3.932,3.9496,3.9559,3.9534,3.9509,3.9622,3.971,3.971,3.971,3.971,3.971,3.971,3.971,3.971,3.971,3.971,3.9622,3.9647,3.9685,3.971,3.971,3.971,3.971,3.971,3.971,3.971,3.971,3.971,3.971,3.971,3.9848,3.9798,3.9823,3.9848,4.0049,4.0124,3.9898,3.9923,3.9873,3.9873,3.9923,3.9898,3.9785,3.9836,3.9986,4.0174,4.0362,4.0462,4.0538,2.6033,2.6261,2.6987,2.7309,2.7309,2.7309,2.7309,2.762,2.891,2.9784,3.0464,3.1823,3.2723,3.3058,3.3126,3.3115,3.3165,3.3406,3.3657,3.3997,3.4248,3.4639,3.5043,3.5205,3.5456,3.5855,3.6006,3.6018,3.6006,3.6006,3.6168,3.6331,3.6405,3.6343,3.6405,3.6405,3.6405,3.6368,3.6393,3.6393,3.6405,3.6405,3.6405,3.6405,3.6405,3.6405,3.6405,3.6405,3.6405,3.6405,3.6405,3.6405,3.6494,3.6658,3.6859,3.6872,3.7173,3.7274,3.7248,3.7487,3.7939,3.8329,3.8555,3.8756,3.9233,3.9534,3.971,3.9672,3.9697,3.971,3.971,3.971,3.971,3.971,3.9785,3.981,3.981,3.971,3.971,3.971,3.976,3.9898,3.9973,3.9923,3.9848,3.971,3.971,3.971,3.971,3.971,3.971,3.971,3.971,3.971,3.971,3.9722,4.0074,4.0124,4.0236,4.0337,4.0638,4.065,4.0437,4.0474,4.0675,4.0588,4.0325,4.0023,3.9836,4.0062,4.0338,4.0651,4.0939,4.0976,4.1051,2.5783,2.5969,2.6892,2.7309,2.7309,2.7309,2.7443,2.788,2.9429,3.0328,3.0957,3.2286,3.3093,3.3176,3.3241,3.3366,3.3366,3.3847,3.4137,3.4413,3.4739,3.5216,3.5593,3.5768,3.5956,3.6405,3.6318,3.6318,3.6343,3.6368,3.6343,3.6405,3.6405,3.6405,3.6405,3.6405,3.6405,3.6405,3.6405,3.6405,3.6405,3.6405,3.6405,3.6405,3.6405,3.6405,3.6405,3.6405,3.6405,3.6644,3.6669,3.6733,3.6934,3.7235,3.7399,3.7487,3.7839,3.8039,3.7952,3.8102,3.8542,3.8894,3.9107,3.922,3.9559,3.971,3.971,3.971,3.971,3.971,3.971,3.971,3.9823,3.9898,3.9973,3.9998,4.0074,4.0174,4.0199,4.0224,4.0325,4.045,4.045,4.0275,4.0074,3.9772,3.971,3.9722,3.9772,3.9823,3.9772,3.9823,4.0062,4.0087,4.0049,4.0099,4.035,4.0512,4.0638,4.0775,4.1051,4.1152,4.1026,4.1163,4.1389,4.1152,4.0789,4.0325,3.9986,4.0664,4.1242,4.1379,4.1542,4.1578,4.1679,2.5491,2.5992,2.6904,2.7309,2.7321,2.7309,2.7809,2.8561,2.9738,3.0767,3.1603,3.2568,3.3115,3.3251,3.3592,3.3807,3.3883,3.4413,3.4828,3.5168,3.5458,3.5768,3.6068,3.623,3.6281,3.6393,3.6405,3.6405,3.6405,3.6405,3.6405,3.6405,3.6405,3.6405,3.6405,3.6405,3.6405,3.6405,3.6405,3.6405,3.6418,3.6443,3.6468,3.6468,3.6443,3.6405,3.6418,3.6544,3.6745,3.7135,3.7148,3.7299,3.7575,3.7851,3.7939,3.8065,3.8504,3.8718,3.8705,3.8756,3.9095,3.9459,3.9597,3.9546,3.9672,3.971,3.971,3.9722,3.9798,3.981,3.9785,3.9772,4.0149,4.0325,4.0487,4.0588,4.07,4.0876,4.0901,4.0814,4.0839,4.0889,4.0939,4.0775,4.0563,4.0287,4.0161,4.0186,4.0099,4.0086,3.996,4.0049,4.0463,4.0589,4.0601,4.0777,4.1103,4.1204,4.1254,4.1316,4.1453,4.1478,4.1679,4.1628,4.1768,4.1503,4.1302,4.1053,4.1091,4.1733,4.211,4.2146,4.2222,4.2272,4.2434,2.5459,2.5948,2.6602,2.704,2.7345,2.7915,2.8351,2.8956,3.0373,3.1614,3.2514,3.2953,3.328,3.3581,3.3782,3.4087,3.4427,3.4954,3.5294,3.5581,3.5869,3.618,3.6393,3.6405,3.6393,3.6405,3.6405,3.6405,3.6405,3.6405,3.6405,3.6405,3.6443,3.6405,3.6405,3.6455,3.6443,3.6443,3.6443,3.643,3.6468,3.6758,3.6884,3.6884,3.7299,3.7349,3.7399,3.7399,3.7525,3.7625,3.7701,3.7876,3.8128,3.8379,3.8529,3.8567,3.9057,3.9283,3.9333,3.9358,3.9509,3.9584,3.9697,3.971,3.971,3.9735,3.971,3.9772,4.0049,4.0199,4.0224,4.0487,4.0864,4.0951,4.1051,4.1177,4.1327,4.1503,4.1503,4.1416,4.1252,4.1202,4.1264,4.1289,4.1038,4.0826,4.0725,4.0625,4.0524,4.0487,4.0412,4.0412,4.0802,4.1028,4.104,4.143,4.187,4.187,4.187,4.1932,4.2032,4.2359,4.2484,4.2359,4.2258,4.2208,4.2108,4.197,4.2034,4.2261,4.2537,4.2788,4.2864,4.2864,4.2914,2.5346,2.5918,2.625,2.6747,2.7351,2.801,2.8631,2.9337,3.0531,3.1933,3.3068,3.3126,3.3416,3.3807,3.4112,3.4452,3.4979,3.5481,3.5695,3.5919,3.618,3.6393,3.6405,3.6405,3.6405,3.6405,3.6405,3.6405,3.6405,3.6405,3.6405,3.6443,3.6544,3.6594,3.6455,3.6581,3.6695,3.6833,3.6884,3.6884,3.6984,3.7223,3.7424,3.7449,3.7739,3.7864,3.7864,3.7864,3.8027,3.8178,3.8303,3.8379,3.8605,3.8856,3.9082,3.9258,3.9421,3.971,3.971,3.971,3.971,3.971,3.971,3.971,3.9735,3.9823,4.0023,4.0049,4.0412,4.0763,4.075,4.1001,4.1341,4.1455,4.1555,4.1681,4.1932,4.2133,4.2044,4.1968,4.1904,4.1943,4.1968,4.2019,4.1578,4.1302,4.1051,4.1001,4.1001,4.0976,4.1026,4.1065,4.1204,4.1366,4.1542,4.1982,4.2397,4.2462,4.2448,4.2562,4.2738,4.2964,4.3,4.2774,4.2749,4.295,4.2799,4.2498,4.2436,4.2487,4.2738,4.2989,4.2989,4.2939,4.2964,2.5077,2.5877,2.5939,2.6468,2.7292,2.7357,2.8468,2.9966,3.0475,3.1547,3.3004,3.314,3.3456,3.3986,3.4452,3.4979,3.5517,3.6043,3.6281,3.6318,3.6318,3.6393,3.6405,3.6405,3.6405,3.6405,3.6405,3.6405,3.6405,3.6405,3.6405,3.6644,3.6909,3.6997,3.6556,3.6934,3.7424,3.7839,3.7839,3.7789,3.7789,3.7877,3.799,3.804,3.8216,3.8341,3.8341,3.8341,3.8529,3.8806,3.8869,3.9032,3.9371,3.9484,3.9584,3.9635,3.966,3.971,3.971,3.971,3.9747,3.9747,3.9772,3.9848,3.9873,4.0111,4.0487,4.0538,4.0989,4.1252,4.1302,4.1389,4.1781,4.1996,4.2096,4.221,4.2448,4.2573,4.2484,4.2434,4.271,4.2925,4.29,4.2774,4.2258,4.1843,4.1453,4.1364,4.1503,4.1603,4.1729,4.1768,4.1831,4.1932,4.2183,4.2598,4.2875,4.2964,4.2939,4.2914,4.2914,4.2989,4.3,4.3,4.3,4.3,4.3,4.295,4.2864,4.2738,4.2838,4.3,4.3,4.3,4.3,2.5057,2.5897,2.5918,2.6436,2.7437,2.8724,2.9635,3.0362,3.1514,3.2503,3.3082,3.3431,3.3922,3.4452,3.4968,3.5517,3.6043,3.6205,3.6405,3.6405,3.6405,3.6405,3.6405,3.6405,3.6405,3.6405,3.6405,3.6405,3.6405,3.6468,3.6683,3.6947,3.7449,3.7613,3.7538,3.7688,3.7864,3.7965,3.799,3.799,3.8065,3.8379,3.8605,3.8592,3.8868,3.9019,3.8994,3.8969,3.9132,3.9333,3.9358,3.9484,3.9672,3.971,3.971,3.971,3.971,3.971,3.9823,3.9923,4.0036,3.9973,4.0049,4.0211,4.03,4.0725,4.0951,4.1165,4.158,4.1806,4.1895,4.2283,4.2598,4.2649,4.2724,4.2724,4.285,4.2875,4.285,4.2824,4.3,4.3,4.3,4.3,4.2624,4.2484,4.2169,4.2233,4.2359,4.2459,4.2559,4.2573,4.2612,4.2663,4.2813,4.2925,4.2975,4.2975,4.2989,4.2989,4.2975,4.3,4.3,4.3,4.3,4.3,4.3,4.3,4.3,4.2975,4.3,4.3,4.3,4.3,4.3,2.5046,2.5877,2.5918,2.6436,2.7475,2.9003,3.0011,3.0856,3.2373,3.3126,3.3215,3.3646,3.4187,3.4703,3.5269,3.5819,3.6368,3.6405,3.6405,3.6405,3.6405,3.6405,3.6405,3.6405,3.6405,3.6405,3.6405,3.6405,3.643,3.6619,3.7147,3.7763,3.814,3.8417,3.8442,3.8504,3.8454,3.8592,3.8743,3.873,3.8806,3.8956,3.917,3.9271,3.9434,3.966,3.9685,3.971,3.971,3.971,3.971,3.971,3.971,3.971,3.971,3.971,3.971,3.9798,4.0036,4.0211,4.0324,4.0412,4.06,4.0763,4.0889,4.1316,4.1517,4.1795,4.216,4.2336,4.2512,4.295,4.295,4.2975,4.2975,4.2975,4.2975,4.3,4.3,4.3,4.3,4.3,4.3,4.3,4.2875,4.2925,4.295,4.3,4.3,4.3,4.3,4.2989,4.2964,4.2914,4.2875,4.295,4.3,4.3,4.3,4.3,4.3,4.3,4.3,4.3,4.3,4.3,4.3,4.3,4.3051,4.3025,4.3,4.3,4.3,4.3051,4.3076,2.5057,2.5803,2.5886,2.645,2.7421,2.8644,3.0011,3.168,3.2655,3.3126,3.3151,3.3707,3.4262,3.4753,3.5305,3.5881,3.6318,3.6393,3.6405,3.6405,3.6405,3.6405,3.6405,3.6405,3.6405,3.6405,3.6418,3.6468,3.6505,3.7172,3.7939,3.8567,3.8818,3.9082,3.9208,3.9157,3.912,3.927,3.9346,3.9358,3.9409,3.9534,3.9559,3.9609,3.966,3.971,3.971,3.971,3.971,3.971,3.971,3.971,3.971,3.971,3.971,3.9697,3.9697,4.0061,4.0349,4.0499,4.0926,4.114,4.1378,4.1378,4.1491,4.1856,4.2121,4.2311,4.2601,4.2788,4.3,4.2975,4.2975,4.3,4.3,4.3,4.3,4.3,4.3,4.3,4.3,4.3,4.3,4.3,4.3,4.3,4.3,4.3,4.3,4.3,4.3,4.3,4.2975,4.3,4.3,4.3,4.3,4.3,4.3,4.3,4.3,4.3,4.3,4.3,4.3,4.3,4.3,4.3051,4.3151,4.3151,4.3302,4.3277,4.3377,4.3251,4.3302,2.4849,2.5418,2.5762,2.6639,2.7994,2.9908,3.1503,3.2633,3.3015,3.3126,3.3165,3.4073,3.4527,3.479,3.5705,3.6155,3.6343,3.6405,3.6405,3.6405,3.6405,3.6405,3.6405,3.6405,3.6405,3.6405,3.6443,3.6594,3.711,3.7813,3.8391,3.8869,3.9233,3.9547,3.9584,3.9521,3.9597,3.9647,3.971,3.971,3.971,3.971,3.971,3.971,3.971,3.971,3.971,3.971,3.971,3.971,3.971,3.971,3.971,3.971,3.971,3.9747,3.9985,4.0374,4.06,4.1242,4.1744,4.1932,4.2208,4.2235,4.2261,4.2347,4.2688,4.2788,4.2838,4.2964,4.3,4.3,4.3,4.3,4.3,4.3,4.3,4.3,4.3,4.3,4.3,4.3,4.3,4.3,4.3,4.3,4.3,4.3,4.3,4.3,4.3,4.3,4.3,4.3,4.3,4.3,4.3,4.3,4.3,4.3,4.3,4.3,4.3,4.3101,4.3302,4.3201,4.3,4.3176,4.3553,4.374,4.3865,4.379,4.3714,4.3678,4.3754,2.5101,2.5308,2.608,2.7373,2.9038,3.0805,3.2187,3.2993,3.3126,3.3126,3.3205,3.4212,3.4692,3.4879,3.5817,3.6393,3.6393,3.6405,3.6405,3.6405,3.6405,3.6405,3.6405,3.6405,3.6405,3.6405,3.6494,3.6669,3.7386,3.8266,3.8957,3.9258,3.9609,3.966,3.9685,3.966,3.9685,3.9697,3.971,3.971,3.971,3.971,3.971,3.971,3.971,3.971,3.971,3.971,3.971,3.971,3.971,3.971,3.9772,3.9873,4.0023,4.0136,4.0524,4.0939,4.1304,4.1758,4.2199,4.2512,4.2774,4.2738,4.2713,4.2763,4.2889,4.2964,4.2975,4.3,4.3,4.3,4.3,4.3,4.3,4.3,4.3,4.3,4.3,4.3,4.3,4.3,4.3,4.3,4.3,4.3,4.3,4.3,4.3,4.3,4.3,4.3,4.3,4.3,4.3,4.3,4.3,4.3,4.3,4.3,4.3025,4.3277,4.3463,4.3614,4.3714,4.3639,4.3589,4.384,4.4141,4.4303,4.4428,4.4468,4.4367,4.4267,4.4468,2.5456,2.5278,2.6713,2.8388,3.0191,3.1302,3.2296,3.3036,3.3126,3.3126,3.3316,3.4173,3.4628,3.4853,3.5741,3.6292,3.6368,3.6405,3.6405,3.6405,3.6405,3.6405,3.6405,3.6405,3.6405,3.6405,3.6519,3.677,3.7487,3.8416,3.9321,3.971,3.971,3.971,3.971,3.971,3.971,3.971,3.971,3.971,3.971,3.971,3.971,3.971,3.971,3.971,3.971,3.971,3.971,3.971,3.971,3.971,3.9973,4.0287,4.0474,4.0738,4.1115,4.148,4.1845,4.2224,4.2512,4.2788,4.3,4.2964,4.2939,4.2925,4.2975,4.3,4.3,4.3,4.3,4.3,4.3,4.3,4.3,4.3,4.3,4.3,4.3,4.3,4.3,4.3,4.3,4.3,4.3,4.3,4.3,4.3,4.3051,4.3051,4.3076,4.3076,4.3,4.3,4.3,4.3,4.3,4.3,4.3076,4.3176,4.3302,4.3639,4.4027,4.4077,4.4127,4.4328,4.4403,4.4579,4.4669,4.4754,4.4905,4.5095,4.507,4.4955,4.5106,2.4763,2.4929,2.7366,2.9119,3.0383,3.2045,3.2853,3.3115,3.3126,3.3126,3.3241,3.3771,3.4349,3.484,3.5467,3.5981,3.6343,3.6405,3.6405,3.6405,3.6405,3.6405,3.6405,3.6405,3.6405,3.6405,3.6544,3.6984,3.7876,3.8831,3.9509,3.9685,3.971,3.971,3.971,3.971,3.971,3.971,3.971,3.971,3.971,3.971,3.971,3.971,3.971,3.971,3.971,3.971,3.971,3.971,3.971,3.9923,4.0312,4.0826,4.1076,4.1215,4.163,4.2034,4.2261,4.2537,4.2813,4.29,4.3,4.3,4.3,4.3,4.3,4.3,4.3,4.3,4.3,4.3,4.3,4.3,4.3,4.3,4.3,4.3,4.3,4.3,4.3,4.3051,4.3051,4.3076,4.3,4.3,4.3,4.3025,4.3126,4.3176,4.3277,4.3251,4.3025,4.3,4.3,4.3126,4.3176,4.3302,4.3413,4.3514,4.3628,4.4091,4.4529,4.4503,4.4539,4.479,4.5031,4.5121,4.5196,4.5282,4.5432,4.5633,4.5784,4.5733,4.5884,2.5421,2.5455,2.8155,2.9687,3.0493,3.2286,3.3126,3.3126,3.3126,3.3126,3.3201,3.3657,3.4187,3.4728,3.5269,3.5844,3.6318,3.6393,3.6405,3.6405,3.6405,3.6405,3.6405,3.6405,3.6405,3.6443,3.7021,3.765,3.8391,3.912,3.9685,3.971,3.971,3.971,3.971,3.971,3.971,3.971,3.971,3.971,3.971,3.971,3.971,3.971,3.971,3.971,3.971,3.9722,3.9873,4.0099,4.0325,4.0538,4.0939,4.1404,4.1642,4.1856,4.2185,4.2537,4.2637,4.2788,4.3,4.3,4.3,4.3,4.3,4.3,4.3,4.3,4.3,4.3,4.3,4.3,4.3,4.3,4.3,4.3,4.3,4.3,4.3,4.3,4.3151,4.3438,4.3539,4.384,4.379,4.3865,4.374,4.3639,4.3639,4.3489,4.3539,4.3514,4.3363,4.3101,4.3025,4.3226,4.3452,4.3589,4.3815,4.4217,4.4518,4.4794,4.502,4.5131,4.5242,4.5432,4.5608,4.5648,4.5748,4.5834,4.601,4.621,4.6311,4.6311,4.6261,2.6583,2.6577,2.8847,3.0123,3.0641,3.2307,3.3126,3.3126,3.3126,3.3126,3.3151,3.3581,3.4123,3.4728,3.5168,3.578,3.623,3.6368,3.6405,3.6405,3.6405,3.6405,3.6405,3.6405,3.6468,3.6871,3.7436,3.8115,3.8793,3.9383,3.971,3.971,3.971,3.971,3.971,3.971,3.971,3.971,3.971,3.971,3.971,3.971,3.971,3.971,3.971,3.9735,3.9772,3.9898,4.0111,4.0563,4.1053,4.1304,4.1555,4.1945,4.2185,4.2425,4.2612,4.2864,4.295,4.2925,4.3,4.3,4.3,4.3,4.3,4.3,4.3,4.3,4.3,4.3,4.3,4.3025,4.3025,4.3076,4.3076,4.3226,4.3226,4.3226,4.3226,4.3226,4.3478,4.384,4.4127,4.4453,4.4529,4.4589,4.4614,4.4589,4.4489,4.4227,4.4102,4.4001,4.3851,4.3589,4.3352,4.3528,4.393,4.4091,4.4367,4.492,4.5372,4.5497,4.5698,4.5959,4.611,4.5984,4.6035,4.606,4.621,4.621,4.6261,4.6311,4.6311,4.6311,4.6311,2.687,2.8208,2.8864,2.9894,3.1363,3.259,3.3126,3.3126,3.3126,3.3126,3.3151,3.3241,3.3746,3.4692,3.4767,3.5378,3.6318,3.6405,3.6405,3.6405,3.6405,3.6405,3.6443,3.6519,3.6695,3.7185,3.7776,3.8316,3.8994,3.9484,3.971,3.971,3.971,3.971,3.971,3.971,3.971,3.971,3.971,3.971,3.9735,3.9735,3.971,3.971,3.971,3.9973,4.0186,4.0337,4.0675,4.114,4.1656,4.192,4.216,4.2436,4.2663,4.2727,4.2939,4.295,4.3,4.3,4.3,4.3,4.3,4.3,4.3,4.3,4.3,4.3,4.3,4.3,4.3,4.3076,4.3126,4.3302,4.3377,4.379,4.4027,4.4041,4.4041,4.4041,4.4156,4.4468,4.478,4.4905,4.478,4.484,4.488,4.4855,4.489,4.4765,4.469,4.4589,4.4478,4.4389,4.4303,4.4267,4.4493,4.4669,4.492,4.5422,4.5824,4.606,4.6286,4.6286,4.6311,4.621,4.6286,4.6311,4.6286,4.6261,4.6286,4.6311,4.6311,4.6311,4.6311]},{"header":{"parameterUnit":"m.s-1","parameterCategory":1,"la1":31.0,"la2":29.5877,"lo1":-88.7671,"lo2":-86.6584,"dy":0.0162,"dx":0.0185,"nx":115,"ny":88,"refTime":"2026-03-15T00:00:00:Z","depth":0,"parameterNumber":3,"parameterNumberName":"V-component_of_WINDS"},"data":[0.0,0.0,0.0,0.0,0.0,0.0,0.0,0.0,0.0,0.0,0.0,0.0,0.0,0.0,0.0,0.0,0.0,0.0,0.0,0.0,0.0,0.0,0.0,0.0,0.0,0.0,0.0,0.0,0.0,0.0,0.0,0.0,0.0,0.0,0.0,0.0,0.0,0.0,0.0,0.0,0.0,0.0,0.0,0.0,0.0,0.0,0.0,0.0,0.0,0.0,0.0,0.0,0.0,0.0,0.0,0.0,0.0,0.0,0.0,0.0,0.0,0.0,0.0,0.0,0.0,0.0,0.0,0.0,0.0,0.0,0.0,0.0,0.0,0.0,0.0,0.0,0.0,0.0,0.0,0.0,0.0,0.0,0.0,0.0,0.0,0.0,0.0,0.0,0.0,0.0,0.0,0.0,0.0,0.0,0.0,0.0,0.0,0.0,0.0,0.0,0.0,0.0,0.0,0.0,0.0,0.0,0.0,0.0,0.0,0.0,0.0,0.0,0.0,0.0,0.0,0.0,0.0,0.0,0.0,0.0,0.0,0.0,0.0,0.0,0.0,0.0,0.0,0.0,0.0,0.0,0.0,0.0,0.0,0.0,0.0,0.0,0.0,0.0,0.0,0.0,0.0,0.0,0.0,0.0,0.0,0.0,0.0,0.0,0.0,0.0,0.0,0.0,0.0,0.0,0.0,0.0,0.0,0.0,0.0,0.0,0.0,0.0,0.0,0.0,0.0,0.0,0.0,0.0,0.0,0.0,0.0,0.0,0.0,0.0,0.0,0.0,0.0,0.0,0.0,0.0,0.0,0.0,0.0,0.0,0.0,0.0,0.0,0.0,0.0,0.0,0.0,0.0,0.0,0.0,0.0,0.0,0.0,0.0,0.0,0.0,0.0,0.0,0.0,0.0,0.0,0.0,0.0,0.0,0.0,0.0,0.0,0.0,0.0,0.0,0.0,0.0,0.0,0.0,0.0,0.0,0.0,0.0,0.0,0.0,0.0,0.0,0.0,0.0,0.0,0.0,0.0,0.0,0.0,0.0,0.0,0.0,0.0,0.0,0.0,0.0,0.0,0.0,0.0,0.0,0.0,0.0,0.0,0.0,0.0,0.0,0.0,0.0,0.0,0.0,0.0,0.0,0.0,0.0,0.0,0.0,0.0,0.0,0.0,0.0,0.0,0.0,0.0,0.0,0.0,0.0,0.0,0.0,0.0,0.0,0.0,0.0,0.0,0.0,0.0,0.0,0.0,0.0,0.0,0.0,0.0,0.0,0.0,0.0,0.0,0.0,0.0,0.0,0.0,0.0,0.0,0.0,0.0,0.0,0.0,0.0,0.0,0.0,0.0,0.0,0.0,0.0,0.0,0.0,0.0,0.0,0.0,0.0,0.0,0.0,0.0,0.0,0.0,0.0,0.0,0.0,0.0,0.0,0.0,0.0,0.0,0.0,0.0,0.0,0.0,0.0,0.0,0.0,0.0,0.0,0.0,0.0,0.0,0.0,0.0,0.0,0.0,0.0,0.0,0.0,0.0,0.0,0.0,0.0,0.0,0.0,0.0,0.0,0.0,0.0,0.0,0.0,0.0,0.0,0.0,0.0,0.0,0.0,0.0,0.0,0.0,0.0,0.0,0.0,0.0,0.0,0.0,0.0,0.0,0.0,0.0,0.0,0.0,0.0,0.0,0.0,0.0,0.0,0.0,0.0,0.0,0.0,0.0,0.0,0.0,0.0,0.0,0.0,0.0,0.0,0.0,0.0,0.0,0.0,0.0,0.0,0.0,0.0,0.0,0.0,0.0,0.0,0.0,0.0,0.0,0.0,0.0,0.0,0.0,0.0,0.0,0.0,0.0,0.0,0.0,0.0,0.0,0.0,0.0,0.0,0.0,0.0,0.0,0.0,0.0,0.0,0.0,0.0,0.0,0.0,0.0,0.0,0.0,0.0,0.0,0.0,0.0,0.0,0.0,0.0,0.0,0.0,0.0,0.0,0.0,0.0,0.0,0.0,0.0,0.0,0.0,0.0,0.0,0.0,0.0,0.0,0.0,0.0,0.0,0.0,0.0,0.0,0.0,0.0,0.0,0.0,0.0,0.0,0.0,0.0,0.0,0.0,0.0,0.0,0.0,0.0,0.0,0.0,0.0,0.0,0.0,0.0,0.0,0.0,0.0,0.0,0.0,0.0,0.0,0.0,0.0,0.0,0.0,0.0,0.0,0.0,0.0,0.0,0.0,0.0,0.0,0.0,0.0,0.0,0.0,0.0,0.0,0.0,0.0,0.0,0.0,0.0,0.0,0.0,0.0,0.0,0.0,0.0,0.0,0.0,0.0,0.0,0.0,0.0,0.0,0.0,0.0,0.0,0.0,0.0,0.0,0.0,0.0,0.0,0.0,0.0,0.0,0.0,0.0,0.0,0.0,0.0,0.0,0.0,0.0,0.0,0.0,0.0,0.0,0.0,0.0,0.0,0.0,0.0,0.0,0.0,0.0,0.0,0.0,0.0,0.0,0.0,0.0,0.0,0.0,0.0,0.0,0.0,0.0,0.0,0.0,0.0,0.0,0.0,0.0,0.0,0.0,0.0,0.0,0.0,0.0,0.0,0.0,0.0,0.0,0.0,0.0,0.0,0.0,0.0,0.0,0.0,0.0,0.0,0.0,0.0,0.0,0.0,0.0,0.0,0.0,0.0,0.0,0.0,0.0,0.0,0.0,0.0,0.0,0.0,0.0,0.0,0.0,0.0,0.0,0.0,0.0,0.0,0.0,0.0,0.0,0.0,0.0,0.0,0.0,0.0,0.0,0.0,0.0,0.0,0.0,0.0,0.0,0.0,0.0,0.0,0.0,0.0,0.0,0.0,0.0,0.0,0.0,0.0,0.0,0.0,0.0,0.0,0.0,0.0,0.0,0.0,0.0,0.0,0.0,0.0,0.0,0.0,0.0,0.0,0.0,0.0,0.0,0.0,0.0,0.0,0.0,0.0,0.0,0.0,0.0,0.0,0.0,0.0,0.0,0.0,0.0,0.0,0.0,0.0,0.0,0.0,0.0,0.0,0.0,0.0,0.0,0.0,0.0,0.0,0.0,0.0,0.0,0.0,0.0,0.0,0.0,0.0,0.0,0.0,0.0,0.0,0.0,0.0,0.0,0.0,0.0,0.0,0.0,0.0,0.0,0.0,0.0,0.0,0.0,0.0,0.0,0.0,0.0,0.0,0.0,0.0,0.0,0.0,0.0,0.0,0.0,0.0,0.0,0.0,0.0,0.0,0.0,0.0,0.0,0.0,0.0,0.0,0.0,0.0,0.0,0.0,0.0,0.0,0.0,0.0,0.0,0.0,0.0,0.0,0.0,0.0,0.0,0.0,0.0,0.0,0.0,0.0,0.0,0.0,0.0,0.0,0.0,0.0,0.0,0.0,0.0,0.0,0.0,0.0,0.0,0.0,0.0,0.0,0.0,0.0,0.0,0.0,0.0,0.0,0.0,0.0,0.0,0.0,0.0,0.0,0.0,0.0,0.0,0.0,0.0,0.0,0.0,0.0,0.0,0.0,0.0,0.0,0.0,0.0,0.0,0.0,0.0,0.0,0.0,0.0,0.0,0.0,0.0,0.0,0.0,0.0,0.0,0.0,0.0,0.0,0.0,0.0,0.0,0.0,0.0,0.0,0.0,0.0,0.0,0.0,0.0,0.0,0.0,0.0,0.0,0.0,0.0,0.0,0.0,0.0,0.0,0.0,0.0,0.0,0.0,0.0,0.0,0.0,0.0,0.0,0.0,0.0,0.0,0.0,0.0,0.0,0.0,0.0,0.0,0.0,0.0,0.0,0.0,0.0,0.0,0.0,0.0,0.0,0.0,0.0,0.0,0.0,0.0,0.0,0.0,0.0,0.0,0.0,0.0,0.0,0.0,0.0,0.0,0.0,0.0,0.0,0.0,0.0,0.0,0.0,0.0,0.0,0.0,0.0,0.0,0.0,0.0,0.0,0.0,0.0,0.0,0.0,0.0,0.0,0.0,0.0,0.0,0.0,0.0,0.0,0.0,0.0,0.0,0.0,0.0,0.0,0.0,0.0,0.0,0.0,0.0,0.0,0.0,0.0,0.0,0.0,0.0,0.0,0.0,0.0,0.0,0.0,0.0,0.0,0.0,0.0,0.0,0.0,0.0,0.0,0.0,0.0,0.0,0.0,0.0,0.0,0.0,0.0,0.0,0.0,0.0,0.0,0.0,0.0,0.0,0.0,0.0,0.0,0.0,0.0,0.0,0.0,0.0,0.0,0.0,0.0,0.6905,0.0,0.0,0.0,0.0,0.0,0.0,0.0,0.0,0.0,0.0,0.0,0.0,0.0,0.0,0.0,0.0,0.0,0.0,0.0,0.0,0.0,0.0,0.0,0.0,0.0,0.0,0.0,0.0,0.0,0.0,0.0,0.0,0.0,0.0,0.0,0.0,0.0,0.0,0.0,0.0,0.0,0.0,0.0,0.0,0.0,0.0,0.0,0.0,0.0,0.0,0.0,0.0,0.0,0.0,0.0,0.0,0.0,0.0,0.0,0.0,0.0,0.0,0.0,0.0,0.0,0.0,0.0,0.0,0.0,0.0,0.0,0.0,0.0,0.0,0.0,0.0,0.0,0.0,0.0,0.0,0.0,0.0,0.0,0.0,0.0,0.0,0.0,0.0,0.0,0.0,0.0,0.0,0.0,0.0,0.0,0.0,0.0,0.0,0.0,0.0,0.0,0.0,0.0,0.0,0.0,0.0,0.0,0.0,0.0,0.0,0.6905,0.6905,0.6905,0.6905,0.6905,0.0,0.0,0.0,0.0,0.0,0.0,0.0,0.0,0.0,0.0,0.0,0.0,0.0,0.0,0.0,0.0,0.0,0.0,0.0,0.0,0.0,0.0,0.0,0.0,0.0,0.0,0.0,0.0,0.0,0.0,0.0,0.0,0.0,0.0,0.0,0.0,0.0,0.0,0.0,0.0,0.0,0.0,0.0,0.0,0.0,0.0,0.0,0.0,0.0,0.0,0.0,0.0,0.0,0.0,0.0,0.0,0.0,0.0,0.0,0.0,0.0,0.0,0.0,0.0,0.0,0.0,0.0,0.0,0.0,0.0,0.0,0.0,0.0,0.0,0.0,0.0,0.0,0.0,0.0,0.0,0.0,0.0,0.0,0.0,0.0,0.0,0.0,0.0,0.0,0.0,0.0,0.0,0.0,0.0,0.0,0.0,0.0,0.0,0.0,0.0,0.0,0.0,0.0,0.0,0.0,0.0,0.0,0.0,0.0,0.0,0.0,0.0,0.7138,0.7189,0.7264,0.0,0.0,0.0,0.0,0.0,0.0,0.0,0.0,0.0,0.0,0.0,0.0,0.0,0.0,0.0,0.0,0.0,0.0,0.0,0.0,0.0,0.0,0.0,0.0,0.0,0.0,0.0,0.0,0.0,0.0,0.0,0.0,0.0,0.0,0.0,0.0,0.0,0.0,0.0,0.0,0.0,0.0,0.0,0.0,0.0,0.0,0.0,0.0,0.0,0.0,0.0,0.0,0.0,0.0,0.0,0.0,0.0,0.0,0.0,0.0,0.0,0.0,0.0,0.0,0.0,0.0,0.0,0.0,0.0,0.0,0.0,0.0,0.0,0.0,0.0,0.0,0.0,0.0,0.0,0.0,0.0,0.0,0.0,0.0,0.0,0.0,0.0,0.0,0.0,0.0,0.0,0.0,0.0,0.0,0.0,0.0,0.0,0.0,0.0,0.0,0.0,0.0,0.0,0.0,0.0,0.0,0.0,0.0,0.0,0.0,0.7122,0.7616,0.7858,0.0,0.8255,0.0,0.0,0.0,0.0,0.0,0.0,0.0,0.0,0.0,0.0,0.0,0.0,0.0,0.0,0.0,0.0,0.0,0.0,0.0,0.0,0.0,0.0,0.0,0.0,0.0,0.0,0.0,0.0,0.0,0.0,0.0,0.0,0.0,0.0,0.0,0.0,0.0,0.0,0.0,0.0,0.0,0.0,0.0,0.0,0.0,0.0,0.0,0.0,0.0,0.0,0.0,0.0,0.0,0.0,0.0,0.0,0.0,0.0,0.0,0.0,0.0,0.0,0.0,0.0,0.0,0.0,0.0,0.0,0.0,0.0,0.0,0.0,0.0,0.0,0.0,0.0,0.0,0.0,0.0,0.0,0.0,0.0,0.0,0.0,0.0,0.0,0.0,0.0,0.0,0.0,0.0,0.0,0.0,0.0,0.0,0.0,0.0,0.0,0.0,0.0,0.0,0.0,0.0,0.0,0.0,0.0,0.0,0.0,0.0,0.0,0.0,0.7928,0.8165,0.8332,0.0,0.0,0.0,0.0,0.0,0.0,0.0,0.0,0.0,0.0,0.0,0.0,0.0,0.0,0.0,0.0,0.0,0.0,0.0,0.0,0.0,0.0,0.0,0.0,0.0,0.0,0.0,0.0,0.0,0.0,0.0,0.0,0.0,0.0,0.0,0.0,0.0,0.0,0.0,0.0,0.0,0.0,0.0,0.0,0.0,0.0,0.0,0.0,0.0,0.0,0.0,0.0,0.0,0.0,0.0,0.0,0.0,0.0,0.0,0.0,0.0,0.0,0.0,0.0,0.0,0.0,0.0,0.0,0.0,0.0,0.0,0.0,0.0,0.0,0.0,0.0,0.0,0.0,0.0,0.0,0.0,0.0,0.0,0.0,0.0,0.0,0.0,0.0,0.0,0.0,0.0,0.0,0.0,0.0,0.0,0.0,0.0,0.0,0.0,0.0,0.0,0.0,0.0,0.0,0.0,0.0,0.0,0.0,0.0,0.0,0.7599,0.0,0.8369,0.8615,0.8678,0.8543,0.0,0.0,0.0,0.0,0.0,0.0,0.0,0.0,0.0,0.0,0.0,0.0,0.0,0.0,0.0,0.0,0.0,0.0,0.0,0.0,0.0,0.0,0.0,0.0,0.0,0.0,0.0,0.0,0.0,0.0,0.0,0.0,0.0,0.0,0.0,0.0,0.0,0.0,0.0,0.0,0.0,0.0,0.0,0.0,0.0,0.0,0.0,0.0,0.0,0.0,0.0,0.0,0.0,0.0,0.0,0.0,0.0,0.0,0.0,0.0,0.0,0.0,0.0,0.0,0.0,0.0,0.0,0.0,0.0,0.0,0.0,0.0,0.0,0.0,0.0,0.0,0.0,0.0,0.0,0.0,0.0,0.0,0.0,0.0,0.0,0.0,0.0,0.0,0.0,0.0,0.0,0.0,0.0,0.0,0.0,0.0,0.0,0.0,0.0,0.0,0.0,0.0,0.0,0.0,0.0,0.0,0.0,0.0,0.0,0.7981,0.8163,0.9139,0.9391,0.933,0.0,0.0,0.0,0.0,0.0,0.0,0.0,0.0,0.0,0.0,0.0,0.0,0.0,0.0,0.0,0.0,0.0,0.0,0.0,0.0,0.0,0.0,0.0,0.0,0.0,0.0,0.0,0.0,0.0,0.0,0.0,0.0,0.0,0.0,0.0,0.0,0.0,0.0,0.0,0.0,0.0,0.0,0.0,0.0,0.0,0.0,0.0,0.0,0.0,0.0,0.0,0.0,0.0,0.0,0.0,0.0,0.0,0.0,0.0,0.0,0.0,0.0,0.0,0.0,0.0,0.0,0.0,0.0,0.0,0.0,0.0,0.0,0.0,0.0,0.0,0.0,0.0,0.0,0.0,0.0,0.0,0.0,0.0,0.0,0.0,0.0,0.0,0.0,0.0,0.0,0.0,0.0,0.0,0.0,0.0,0.0,0.0,0.0,0.0,0.0,0.0,0.0,0.0,0.0,0.0,0.0,0.0,0.0,0.0,0.7439,0.7863,0.8723,0.9941,0.9477,0.9268,0.0,0.0,0.0,0.0,0.0,0.0,0.0,0.0,0.0,0.0,0.0,0.0,0.0,0.0,0.0,0.0,0.0,0.0,0.0,0.0,0.0,0.0,0.0,0.0,0.0,0.0,0.0,0.0,0.0,0.0,0.0,0.0,0.0,0.0,0.0,0.0,0.0,0.0,0.0,0.0,0.0,0.0,0.0,0.0,0.0,0.0,0.0,0.0,0.0,0.0,0.0,0.0,0.0,0.0,0.0,0.0,0.0,0.0,0.0,0.0,0.0,0.0,0.0,0.0,0.0,0.0,0.0,0.0,0.0,0.0,0.0,0.0,0.0,0.0,0.0,0.0,0.0,0.0,0.0,0.0,0.0,0.0,0.0,0.0,0.0,0.0,0.0,0.0,0.0,0.0,0.0,0.0,0.0,0.0,0.0,0.0,0.0,0.0,0.0,0.0,0.0,0.0,0.0,0.0,0.0,0.0,0.0,0.0,0.0,0.7597,0.0,0.9413,0.0,0.9552,0.9235,0.0,0.0,0.0,0.0,0.0,0.0,0.0,0.0,0.0,0.0,0.0,0.0,0.0,0.0,0.0,0.0,0.0,0.0,0.0,0.0,0.0,0.0,0.0,0.0,0.0,0.0,0.0,0.0,0.0,0.0,0.0,0.0,0.0,0.0,0.0,0.0,0.0,0.0,0.0,0.0,0.0,0.0,0.0,0.0,0.0,0.0,0.0,0.0,0.0,0.0,0.0,0.0,0.0,0.0,0.0,0.0,0.0,0.0,0.0,0.0,0.0,0.0,0.0,0.0,0.0,0.0,0.0,0.0,0.0,0.0,0.0,0.0,0.0,0.0,0.0,0.0,0.0,0.0,0.0,0.0,0.0,0.0,0.0,0.0,0.0,0.0,0.0,0.0,0.0,0.0,0.0,0.0,0.0,0.0,0.0,0.0,0.0,0.0,0.0,0.0,0.0,0.0,0.0,0.0,0.0,0.0,0.0,0.0,0.7831,0.9125,0.9982,1.0188,0.9581,0.9747,0.9285,0.0,0.0,0.0,0.0,0.0,0.0,0.0,0.0,0.0,0.0,0.0,0.0,0.0,0.0,0.0,0.0,0.0,0.0,0.0,0.0,0.0,0.0,0.0,0.0,0.0,0.0,0.0,0.0,0.0,0.0,0.0,0.0,0.0,0.0,0.0,0.0,0.0,0.0,0.0,0.0,0.0,0.0,0.0,0.0,0.0,0.0,0.0,0.0,0.0,0.0,0.0,0.0,0.0,0.0,0.0,0.0,0.0,0.0,0.0,0.0,0.0,0.0,0.0,0.0,0.0,0.0,0.0,0.0,0.0,0.0,0.0,0.0,0.0,0.0,0.0,0.0,0.0,0.0,0.0,0.0,0.0,0.0,0.0,0.0,0.0,0.0,0.0,0.0,0.0,0.0,0.0,0.0,0.0,0.0,0.0,0.0,0.0,0.0,0.0,0.0,0.0,0.0,0.0,0.0,0.0,0.0,0.0,0.0,0.0,0.8839,0.9904,1.0703,1.1016,0.9852,0.9443,0.0,0.0,0.0,0.0,0.0,0.0,0.0,0.0,0.0,0.0,0.0,0.0,0.0,0.0,0.0,0.0,0.0,0.0,0.0,0.0,0.0,0.0,0.0,0.0,0.0,0.0,0.0,0.0,0.0,0.0,0.0,0.0,0.0,0.0,0.0,0.0,0.0,0.0,0.0,0.0,0.0,0.0,0.0,0.0,0.0,0.0,0.0,0.0,0.0,0.0,0.0,0.0,0.0,0.0,0.0,0.0,0.0,0.0,0.0,0.0,0.0,0.0,0.0,0.0,0.0,0.0,0.0,0.0,0.0,0.0,0.0,0.0,0.0,0.0,0.0,0.0,0.0,0.0,0.0,0.0,0.0,0.0,0.0,0.0,0.0,0.0,0.0,0.0,0.0,0.0,0.0,0.0,0.0,0.0,0.0,0.0,0.0,0.0,0.0,0.0,0.0,0.0,0.0,0.0,0.0,0.0,0.0,0.0,0.0,1.0217,1.0932,1.1495,1.1798,1.0365,0.9875,1.0401,0.0,0.0,0.0,0.0,0.0,0.0,0.0,0.0,0.0,0.0,0.0,0.0,0.0,0.0,0.0,0.0,0.0,0.0,0.0,0.0,0.0,0.0,0.0,0.0,0.0,0.0,0.0,0.0,0.0,0.0,0.0,0.0,0.0,0.0,0.0,0.0,0.0,0.0,0.0,0.0,0.0,0.0,0.0,0.0,0.0,0.0,0.0,0.0,0.0,0.0,0.0,0.0,0.0,0.0,0.0,0.0,0.0,0.0,0.0,0.0,0.0,0.0,0.0,0.0,0.0,0.0,0.0,0.0,0.0,0.0,0.0,0.0,0.0,0.0,0.0,0.0,0.0,0.0,0.0,0.0,0.0,0.0,0.0,0.0,0.0,0.0,0.0,0.0,0.0,0.0,0.0,0.0,0.0,0.0,0.0,0.0,0.0,0.0,0.0,0.0,0.0,0.0,0.0,0.0,0.0,0.0,0.0,0.0,1.2975,1.2945,1.2615,1.1967,1.1238,1.0583,0.0,0.0,0.0,0.0,0.0,0.0,0.0,0.0,0.0,0.0,0.0,0.0,0.0,0.0,0.0,0.0,0.0,0.0,0.0,0.0,0.0,0.0,0.0,0.0,0.0,0.0,0.0,0.0,0.0,0.0,0.0,0.0,0.0,0.0,0.0,0.0,0.0,0.0,0.0,0.0,0.0,0.0,0.0,0.0,0.0,0.0,0.0,0.0,0.0,0.0,0.0,0.0,0.0,0.0,0.0,0.0,0.0,0.0,0.0,0.0,0.0,0.0,0.0,0.0,0.0,0.0,0.0,0.0,0.0,0.0,0.0,0.0,0.0,0.0,0.0,0.0,0.0,0.0,0.0,0.0,0.0,0.0,0.0,0.0,0.0,0.0,0.0,0.0,0.0,0.0,0.0,0.0,0.0,0.0,0.0,0.0,0.0,0.0,0.0,0.0,0.0,0.0,0.0,0.0,0.0,0.0,0.0,0.0,0.0,1.4929,1.4533,1.3957,1.328,1.2141,1.1461,0.0,0.0,0.0,0.0,0.0,0.0,0.0,0.0,0.0,0.0,0.0,0.0,0.0,0.0,0.0,0.0,0.0,0.0,0.0,0.0,0.0,0.0,0.0,0.0,0.0,0.0,0.0,0.0,0.0,0.0,0.0,0.0,0.0,0.0,0.0,0.0,0.0,0.0,0.0,0.0,0.0,0.0,0.0,0.0,0.0,0.0,0.0,0.0,0.0,0.0,0.0,0.0,0.0,0.0,0.0,0.0,0.0,0.0,0.0,0.0,0.0,0.0,0.0,0.0,0.0,0.0,0.0,0.0,0.0,0.0,0.0,0.0,0.0,0.0,0.0,0.0,0.0,0.0,0.0,0.0,0.0,0.0,0.0,0.0,0.0,0.0,0.0,0.0,0.0,0.0,0.0,0.0,0.0,0.0,0.0,0.0,0.0,0.0,0.0,0.0,0.0,0.0,0.0,0.0,0.0,0.0,0.0,0.0,1.431,1.6518,1.6226,1.5699,1.5034,1.3755,1.2783,0.0,0.0,0.0,0.0,0.0,0.0,0.0,0.0,0.0,0.0,0.0,0.0,0.0,0.0,0.0,0.0,0.0,0.0,0.0,0.0,0.0,0.0,0.0,0.0,0.0,0.0,0.0,0.0,0.0,0.0,0.0,0.0,0.0,0.0,0.0,0.0,0.0,0.0,0.0,0.0,0.0,0.0,0.0,0.0,0.0,0.0,0.0,0.0,0.0,0.0,0.0,0.0,0.0,0.0,0.0,0.0,0.0,0.0,0.0,0.0,0.0,0.0,0.0,0.0,0.0,0.0,0.0,0.0,0.0,0.0,0.0,0.0,0.0,0.0,0.0,0.0,0.0,0.0,0.0,0.0,0.0,0.0,0.0,0.0,0.0,0.0,0.0,0.0,0.0,0.0,0.0,0.0,0.0,0.0,0.0,0.0,0.0,0.0,0.0,0.0,0.0,0.0,0.0,0.0,0.0,0.0,0.0,0.0,1.5194,1.7627,1.7694,1.7447,1.6902,1.5666,1.4373,0.0,0.0,0.0,0.0,0.0,0.0,0.0,0.0,0.0,0.0,0.0,0.0,0.0,0.0,0.0,0.0,0.0,0.0,0.0,0.0,0.0,0.0,0.0,0.0,0.0,0.0,0.0,0.0,0.0,0.0,0.0,0.0,0.0,0.0,0.0,0.0,0.0,0.0,0.0,0.0,0.0,0.0,0.0,0.0,0.0,0.0,0.0,0.0,0.0,0.0,0.0,0.0,0.0,0.0,0.0,0.0,0.0,0.0,0.0,0.0,0.0,0.0,0.0,0.0,0.0,0.0,0.0,0.0,0.0,0.0,0.0,0.0,0.0,0.0,0.0,0.0,0.0,0.0,0.0,0.0,0.0,0.0,0.0,0.0,0.0,0.0,0.0,0.0,0.0,0.0,0.0,0.0,0.0,0.0,0.0,0.0,0.0,0.0,0.0,0.0,0.0,0.0,0.0,0.0,0.0,0.0,0.0,0.0,1.6125,1.7635,1.7694,1.7904,1.8271,1.7003,1.5695,0.0,0.0,0.0,0.0,0.0,0.0,0.0,0.0,0.0,0.0,0.0,0.0,0.0,0.0,0.0,0.0,0.0,0.0,0.0,0.0,0.0,0.0,0.0,0.0,0.0,0.0,0.0,0.0,0.0,0.0,0.0,0.0,0.0,0.0,0.0,0.0,0.0,0.0,0.0,0.0,0.0,0.0,0.0,0.0,0.0,0.0,0.0,0.0,0.9923,0.0,0.0,0.0,0.0,0.0,0.0,0.0,0.0,0.0,0.0,0.0,0.0,0.0,0.0,0.0,0.0,0.0,0.0,0.0,0.0,0.0,0.0,0.0,0.0,0.0,0.0,0.0,0.0,0.0,0.0,0.0,0.0,0.0,0.0,0.0,0.0,0.0,0.0,0.0,0.0,0.0,0.0,0.0,0.0,0.0,0.0,0.0,0.0,0.0,0.0,0.0,0.0,0.0,0.0,0.0,0.0,0.0,0.0,0.0,1.7334,1.8583,1.863,1.8822,1.9117,1.8484,1.7202,0.0,0.0,0.0,0.0,0.0,0.0,0.0,0.0,0.0,0.0,0.0,0.0,0.0,0.0,0.0,0.0,0.0,0.0,0.0,0.0,0.0,0.0,0.0,0.0,0.0,0.0,0.0,0.0,0.0,0.0,0.0,0.0,0.0,0.0,0.0,0.0,0.0,0.0,0.0,0.0,0.0,0.0,0.0,0.0,0.0,0.0,0.0,0.0,0.0,0.0,0.0,0.0,0.0,0.0,0.0,0.0,0.0,0.0,0.0,0.0,0.0,0.0,0.0,0.0,0.0,0.0,0.0,0.0,0.0,0.0,0.0,0.0,0.0,0.0,0.0,0.0,0.0,0.0,0.0,0.0,0.0,0.0,0.0,0.0,0.0,0.0,0.0,0.0,0.0,0.0,0.0,0.0,0.0,0.0,0.0,0.0,0.0,0.0,0.0,0.0,0.0,0.0,0.0,0.0,0.0,0.0,0.0,1.6652,1.8211,1.9489,1.9643,1.9703,1.9699,1.9613,1.8471,1.6181,0.0,0.0,0.0,0.0,0.0,0.0,0.0,0.0,0.0,0.0,0.0,0.0,0.0,0.0,0.0,0.0,0.0,0.0,0.0,0.0,0.0,0.0,0.0,0.0,0.0,0.0,0.0,0.0,0.0,0.0,0.0,0.0,0.0,0.0,0.0,0.0,0.0,0.0,0.8803,1.0648,0.0,0.0,0.0,0.0,0.0,0.0,0.0,0.0,1.189,0.0,0.0,0.0,0.0,0.0,0.0,0.0,0.0,0.0,0.0,0.0,0.0,0.0,0.0,0.0,0.0,0.0,0.0,0.0,0.0,0.0,0.0,0.0,0.0,0.0,0.0,0.0,0.0,0.0,0.0,0.0,0.0,0.0,0.0,0.0,0.0,0.0,0.0,0.0,0.0,0.0,0.0,0.0,0.0,0.0,0.0,0.0,0.0,0.0,0.0,0.0,0.0,0.0,0.0,0.0,0.0,1.5585,1.6443,1.7511,1.8848,1.9429,1.9703,1.9708,1.9151,1.8403,1.74,0.0,0.0,0.0,0.0,0.0,0.0,0.0,0.0,0.0,0.0,0.0,0.0,0.0,0.0,0.0,0.0,0.0,0.0,0.0,0.0,0.0,0.0,0.0,0.0,0.0,0.0,0.0,0.0,0.0,0.0,0.0,0.0,0.0,0.0,0.0,0.0,0.0,0.0,0.0,1.1817,1.3179,0.0,0.0,0.0,0.0,0.0,0.0,0.0,0.0,1.2567,0.0,0.0,0.0,0.0,0.0,0.0,0.0,0.0,0.0,0.0,0.0,0.0,0.0,0.0,0.0,0.0,0.0,0.0,0.0,0.0,0.0,0.0,0.0,0.0,0.0,0.0,0.0,0.0,0.0,0.0,0.0,0.0,0.0,0.0,0.0,0.0,0.0,0.0,0.0,0.0,0.0,0.0,0.0,0.0,0.0,0.0,0.0,0.0,0.0,0.0,0.0,0.0,0.0,0.0,0.0,1.5735,1.7086,1.839,1.9685,2.004,2.0233,2.0194,1.9574,1.8732,0.0,0.0,0.0,0.0,0.0,0.0,0.0,0.0,0.0,0.0,0.0,0.0,0.0,0.0,0.0,0.0,0.0,0.0,0.0,0.0,0.0,0.0,0.0,0.0,0.0,0.0,0.0,0.0,0.0,0.0,0.0,0.0,0.0,0.0,0.0,0.0,0.0,0.0,0.0,0.0,1.257,1.3687,1.4049,0.0,0.0,0.0,0.0,0.0,0.0,1.3563,1.3015,0.0,0.0,0.0,0.0,0.0,0.0,0.0,0.0,0.0,0.0,0.0,0.0,0.0,0.0,0.0,0.0,0.0,0.0,0.0,0.0,0.0,0.0,0.0,0.0,0.0,0.0,0.0,0.0,0.0,0.0,0.0,0.0,0.0,0.0,0.0,0.0,0.0,0.0,0.0,0.0,0.0,0.0,0.0,0.0,0.0,0.0,0.0,0.0,0.0,0.0,0.0,0.0,0.0,0.0,0.0,1.5994,1.7779,1.9352,2.0643,2.0842,2.0842,2.0693,2.0178,1.9211,0.0,0.0,0.0,0.0,0.0,0.0,0.0,0.0,0.0,0.0,0.0,0.0,0.0,0.0,0.0,0.0,0.0,0.0,0.0,0.0,0.0,0.0,0.0,0.0,0.0,0.0,0.0,0.0,0.0,0.0,0.0,0.0,0.0,0.0,0.0,0.0,0.0,0.0,0.0,0.0,0.0,1.4489,1.497,1.4702,0.0,0.0,0.0,0.0,1.508,1.4725,0.0,0.0,0.0,0.0,0.0,0.0,0.0,0.0,0.0,0.0,0.0,0.0,0.0,0.0,0.0,0.0,0.0,0.0,0.0,0.0,0.0,0.0,0.0,0.0,0.0,0.0,0.0,0.0,0.0,0.0,0.0,0.0,0.0,0.0,0.0,0.0,0.0,0.0,0.0,0.0,0.0,0.0,0.0,0.0,0.0,0.0,0.0,0.0,0.0,0.0,0.0,0.0,0.0,0.0,0.0,0.0,1.6547,1.801,1.9356,2.0638,2.1301,2.1301,2.0718,2.0633,1.9676,0.0,0.0,0.0,0.0,0.0,0.0,0.0,0.0,0.0,0.0,0.0,0.0,0.0,0.0,0.0,0.0,0.0,0.0,0.0,0.0,0.0,0.0,0.0,0.0,0.0,0.0,0.0,0.0,0.0,0.0,0.0,0.0,0.0,0.0,0.0,0.0,0.0,0.0,0.0,0.0,0.0,1.6609,1.5718,1.5558,1.5673,0.0,0.0,1.6149,1.6305,1.7453,0.0,0.0,0.0,0.0,0.0,0.0,0.0,0.0,0.0,0.0,0.0,0.0,0.0,0.0,0.0,0.0,0.0,0.0,0.0,0.0,0.0,0.0,0.0,0.0,0.0,0.0,0.0,0.0,0.0,0.0,0.0,0.0,0.0,0.0,0.0,0.0,0.0,0.0,0.0,0.0,0.0,0.0,0.0,0.0,0.0,0.0,0.0,0.0,0.0,0.0,0.0,0.0,0.0,0.0,0.0,1.5018,1.7238,1.8574,2.0113,2.1759,2.2124,2.1944,2.1271,2.0907,1.9757,0.0,0.0,0.0,0.0,0.0,0.0,0.0,0.0,0.0,0.0,0.0,0.0,0.0,0.0,0.0,0.0,0.0,0.0,0.0,0.0,0.0,0.0,0.0,0.0,0.0,0.0,0.0,0.0,0.0,0.0,0.0,0.0,0.0,0.0,0.0,0.0,0.0,0.0,0.0,0.0,0.0,0.0,1.6651,1.6929,0.0,0.0,0.0,1.7659,1.8298,0.0,0.0,0.0,0.0,0.0,0.0,0.0,0.0,0.0,0.0,0.0,0.0,0.0,0.0,0.0,0.0,0.0,0.0,0.0,0.0,0.0,0.0,0.0,0.0,0.0,0.0,0.0,0.0,0.0,0.0,0.0,0.0,0.0,0.0,0.0,0.0,0.0,0.0,0.0,0.0,0.0,0.0,0.0,0.0,0.0,0.0,0.0,0.0,0.0,0.0,0.0,0.0,0.0,0.0,0.0,0.0,0.0,1.7934,1.9455,2.1021,2.2648,2.2853,2.2538,2.1724,2.1206,0.0,0.0,0.0,0.0,0.0,0.0,0.0,0.0,0.0,0.0,0.0,0.0,0.0,0.0,0.0,0.0,0.0,0.0,0.0,0.0,0.0,0.0,0.0,0.0,0.0,0.0,0.0,0.0,0.0,0.0,0.0,0.0,0.0,0.0,0.0,0.0,0.0,0.0,0.0,0.0,0.0,0.0,1.7006,1.7698,1.8386,1.8988,0.0,0.0,1.9265,1.9918,1.9365,1.8561,0.0,0.0,0.0,0.0,0.0,0.0,0.0,0.0,0.0,0.0,0.0,0.0,0.0,0.0,0.0,0.0,0.0,0.0,0.0,0.0,0.0,0.0,0.0,0.0,0.0,0.0,0.0,0.0,0.0,0.0,0.0,0.0,0.0,0.0,0.0,0.0,0.0,0.0,0.0,0.0,0.0,0.0,0.0,0.0,0.0,0.0,0.0,0.0,0.0,0.0,0.0,0.0,0.0,0.0,0.0,1.8612,2.0562,2.1914,2.2708,2.3256,2.2946,2.1759,2.1675,2.0403,0.0,0.0,0.0,0.0,0.0,0.0,0.0,0.0,0.0,0.0,0.0,0.0,0.0,0.0,0.0,0.0,0.0,0.0,0.0,0.0,0.0,0.0,0.0,0.0,0.0,0.0,0.0,0.0,0.0,0.0,0.0,0.0,0.0,0.0,0.0,0.0,0.0,0.0,0.0,0.0,0.0,1.8814,1.8889,1.9842,2.0547,0.0,0.0,2.113,2.0717,2.182,2.1659,1.8656,0.0,0.0,0.0,0.0,0.0,0.0,0.0,0.0,0.0,0.0,0.0,0.0,0.0,0.0,0.0,0.0,0.0,0.0,0.0,0.0,0.0,0.0,0.0,0.0,0.0,0.0,0.0,0.0,0.0,0.0,0.0,0.0,0.0,0.0,0.0,0.0,0.0,0.0,0.0,0.0,0.0,0.0,0.0,0.0,0.0,0.0,0.0,0.0,0.0,0.0,0.0,0.0,0.0,1.6964,1.9284,2.0882,2.2213,2.3207,2.3495,2.3191,2.2338,2.1909,2.0643,0.0,0.0,0.0,0.0,0.0,0.0,0.0,0.0,0.0,0.0,0.0,0.0,0.0,0.0,0.0,0.0,0.0,0.0,0.0,0.0,0.0,0.0,0.0,0.0,0.0,0.0,0.0,0.0,0.8989,0.9486,0.9629,0.0,0.0,0.0,0.0,0.0,0.0,0.0,0.0,0.0,0.0,1.9748,2.0432,2.1794,0.0,0.0,2.2914,2.2982,2.2763,2.2096,2.108,1.9434,1.8047,0.0,0.0,0.0,0.0,0.0,0.0,0.0,0.0,0.0,0.0,0.0,0.0,0.0,0.0,0.0,0.0,0.0,0.0,0.0,0.0,0.0,0.0,0.0,0.0,0.0,0.0,0.0,0.0,0.0,0.0,0.0,0.0,0.0,0.0,0.0,0.0,0.0,0.0,0.0,0.0,0.0,0.0,0.0,0.0,0.0,0.0,0.0,0.0,0.0,0.0,0.0,0.0,1.7076,1.9678,2.1011,2.2328,2.3544,2.3604,2.3316,2.2703,2.2059,2.0762,0.0,0.0,0.0,0.0,0.0,0.0,0.0,0.0,0.0,0.0,0.0,0.0,0.0,0.0,0.0,0.0,0.0,0.0,0.0,0.0,0.0,0.0,0.0,0.0,0.0,0.0,0.0,0.0,1.0516,1.0917,1.038,0.0,0.0,0.0,0.0,0.0,0.0,0.0,0.0,0.0,0.0,2.0715,2.1812,2.315,2.4039,2.4222,2.3946,2.3728,2.3712,2.258,2.1263,2.0005,0.0,0.0,0.0,0.0,0.0,0.0,0.0,0.0,0.0,0.0,0.0,0.0,0.0,0.0,0.0,0.0,0.0,0.0,0.0,0.0,0.0,0.0,0.0,0.0,0.0,0.0,0.0,0.0,0.0,0.0,0.0,0.0,0.0,0.0,0.0,0.0,0.0,0.0,0.0,0.0,0.0,0.0,0.0,0.0,0.0,0.0,0.0,0.0,0.0,0.0,0.0,0.0,0.0,0.0,1.9673,2.1046,2.2328,2.355,2.3604,2.3316,2.2738,2.2059,2.0772,1.8753,0.0,0.0,0.0,0.0,0.0,0.0,0.0,0.0,0.0,0.0,0.0,0.0,0.0,0.0,0.0,0.0,0.0,0.0,0.0,0.0,0.0,0.0,0.0,0.0,0.0,0.0,1.0623,1.0708,1.0443,0.0,0.0,0.0,0.0,0.0,0.0,0.0,0.0,0.0,0.0,1.973,2.1877,2.292,2.362,2.4255,2.4733,2.3873,2.317,2.3203,2.3562,2.3,0.0,0.0,0.0,0.0,0.0,0.0,0.0,0.0,0.0,0.0,0.0,0.0,0.0,0.0,0.0,0.0,0.0,0.0,0.0,0.0,0.0,0.0,0.0,0.0,0.0,0.0,0.0,1.2302,1.18,0.0,0.0,0.0,0.0,0.0,0.0,0.0,0.0,0.0,0.0,0.0,1.6356,1.7362,0.0,0.0,0.0,0.0,0.0,0.0,0.0,0.0,0.0,0.0,0.0,0.0,1.8164,2.0313,2.168,2.2757,2.3574,2.3604,2.3501,2.3296,2.2692,2.1225,1.8758,0.0,0.0,0.0,0.0,0.0,0.0,0.0,0.0,0.0,0.0,0.0,0.0,0.0,0.0,0.0,0.0,0.0,0.0,0.0,0.0,0.0,0.0,0.0,0.0,0.0,1.2107,0.0,0.0,0.0,0.0,0.0,0.0,0.0,0.0,0.0,0.0,0.0,1.6722,1.8731,2.1053,2.296,2.4081,2.5034,2.5737,0.0,0.0,0.0,0.0,0.0,0.0,0.0,0.0,0.0,0.0,0.0,0.0,0.0,0.0,2.2293,1.8612,1.6572,1.5753,1.6879,0.0,0.0,0.0,0.0,0.0,0.0,0.0,0.0,0.0,0.0,0.0,0.0,0.0,0.0,0.0,0.0,1.33,0.0,0.0,0.0,0.0,0.0,0.0,0.0,0.0,1.7687,1.8846,1.9067,2.0287,2.0577,0.0,1.9179,1.7993,0.0,0.0,0.0,0.0,0.0,0.0,0.0,0.0,1.9053,2.1002,2.2333,2.3441,2.4238,2.4298,2.4173,2.3928,2.2897,2.141,1.9437,1.733,1.5953,0.0,0.0,0.0,0.0,0.0,0.0,0.0,0.0,0.0,0.0,0.0,0.0,0.0,0.0,0.0,0.0,0.0,0.0,0.0,0.0,0.0,0.0,0.0,1.3424,0.0,0.0,0.0,0.0,0.0,0.0,0.0,0.0,0.0,1.643,1.7027,1.8186,2.0382,2.2264,2.3838,2.4917,0.0,0.0,0.0,0.0,0.0,0.0,0.0,2.3979,2.3722,2.3309,2.304,2.3143,2.4398,2.5251,2.4892,0.0,0.0,2.1407,1.9673,1.919,2.047,2.0464,2.0507,2.1361,2.201,2.257,0.0,0.0,0.0,0.0,0.0,0.0,0.0,0.0,1.5504,1.6068,0.0,1.5263,0.0,0.0,0.0,0.0,0.0,0.0,0.0,0.0,2.0655,2.2036,2.2049,2.312,2.334,2.2823,2.2722,2.2019,2.0624,1.6698,0.0,0.0,0.0,0.0,0.0,0.0,1.9775,2.1729,2.3036,2.4298,2.5519,2.5585,2.5268,2.4629,2.2791,2.149,2.0783,1.9467,1.8151,1.6876,1.5557,0.0,0.0,0.0,0.0,0.0,0.0,0.0,0.0,0.0,0.0,0.0,0.0,0.0,0.0,0.0,0.0,0.0,0.0,0.0,0.0,1.3459,0.0,0.0,0.0,0.0,0.0,0.0,0.0,0.0,0.0,0.0,1.8731,1.8989,1.9904,2.2056,0.0,0.0,0.0,0.0,2.6097,2.7185,2.6389,2.5904,2.6465,2.6918,2.6683,2.5168,0.0,0.0,2.5251,2.5871,2.6281,2.5201,2.5996,2.6373,2.5636,2.4155,2.3612,2.4991,2.4263,2.3755,2.4583,2.5126,2.5695,2.0127,0.0,0.0,0.0,0.0,1.7774,1.8532,1.9551,1.9696,1.9602,1.9218,1.8516,0.0,0.0,0.0,0.0,0.0,0.0,1.9909,2.0925,2.2644,2.356,2.3837,2.4643,2.4915,2.4747,2.4298,2.3863,2.3409,2.1371,1.9248,1.7194,0.0,0.0,0.0,0.0,2.1575,2.3041,2.4358,2.522,2.5585,2.5615,2.5519,2.5298,2.3849,2.2976,2.2761,2.1057,1.974,1.8852,1.7123,0.0,0.0,0.0,0.0,0.0,0.0,0.0,0.0,0.0,0.0,0.0,0.0,0.0,0.0,0.0,0.0,0.0,0.0,0.0,1.3493,1.4244,1.4617,0.0,0.0,0.0,0.0,0.0,0.0,0.0,0.0,0.0,2.1128,2.1322,2.1888,0.0,0.0,2.5879,2.6206,2.69,2.7503,2.7821,0.0,0.0,0.0,2.711,2.6809,2.7109,2.7887,2.8414,2.8373,2.8624,2.8734,2.8364,2.8633,2.8768,2.8483,2.6893,2.5971,2.6751,2.7412,2.7519,2.6816,2.7017,2.7444,2.4055,2.1977,2.0326,2.0065,2.0716,2.1201,2.1836,2.2598,2.2874,2.268,2.2198,2.1716,2.1019,2.0208,1.9752,0.0,0.0,0.0,2.265,2.3585,2.5112,2.596,2.6219,2.6865,2.6901,2.6405,2.5974,2.5507,2.4963,2.4238,2.2707,2.0509,0.0,0.0,2.0318,2.1989,2.336,2.4382,2.5429,2.6135,2.6369,2.6123,2.601,2.5968,2.4956,2.4257,2.3993,2.2617,2.1425,2.0537,1.8813,1.7362,0.0,0.0,0.0,0.0,0.0,0.0,0.0,0.0,0.0,0.0,0.0,0.9527,0.0,0.0,0.0,0.0,1.1863,1.3501,1.4944,1.5568,0.0,0.0,0.0,0.0,0.0,0.0,0.0,1.9202,2.1085,2.2498,2.3002,2.3602,2.4221,2.4899,2.5862,2.665,2.7085,0.0,2.8154,2.838,2.8414,2.8514,2.8715,2.8241,2.804,2.8674,2.9051,2.9343,2.9704,2.9779,2.9779,2.9779,2.9779,2.9779,2.9779,2.8693,2.7923,2.8376,2.917,2.9387,2.8432,2.8558,2.8784,2.7264,2.7079,2.4899,2.3859,2.378,2.4883,2.4998,2.4552,2.5147,2.5343,2.5182,2.4686,2.4444,2.4289,2.3145,0.0,0.0,2.4608,2.5388,2.6004,2.7835,2.8697,2.8697,2.9309,2.8963,2.7764,2.7764,2.7129,2.5968,2.5938,2.5573,2.4898,2.3825,2.3122,2.2912,2.4077,2.5029,2.5698,2.6345,2.6986,2.7561,2.7003,2.6668,2.6674,2.5968,2.5304,2.4694,2.3993,2.3046,2.1819,2.0512,1.8907,1.7059,0.0,0.0,0.0,0.0,0.0,0.0,0.0,0.0,0.0,0.0,0.0,0.0,0.0,0.0,0.0,1.3492,0.0,1.6486,1.7149,0.0,0.0,0.0,1.7914,1.8524,1.9974,2.0735,2.0137,0.0,0.0,0.0,0.0,2.6575,2.6625,2.6625,2.6993,2.7962,2.8188,2.8414,2.8897,2.8972,2.9183,2.9578,2.9628,2.9603,2.9654,2.9779,2.9779,2.9779,2.9779,2.9779,2.9779,2.9779,2.9779,2.9779,2.9704,2.9779,2.9713,2.9754,2.9779,2.9679,2.9688,2.9679,2.9683,2.9624,2.9044,2.7787,2.6188,2.6458,2.6708,2.6946,2.7096,2.7116,2.7059,2.6912,2.6824,2.6745,2.6456,2.666,2.7289,2.7573,2.8018,2.8673,2.9136,2.9368,2.9362,2.9555,2.9442,2.9129,2.9112,2.8949,2.865,2.865,2.8321,2.7703,2.7842,2.6668,2.4276,2.4939,2.5704,2.6339,2.701,2.7441,2.7585,2.7435,2.7375,2.7345,2.6219,2.5543,2.5375,2.4238,2.3261,2.2488,2.1186,2.0014,1.8997,1.6368,0.0,0.0,0.0,0.0,0.0,0.0,0.0,0.0,0.0,1.2494,0.973,0.0,1.3732,0.0,1.5422,1.6909,1.7186,1.8047,0.0,0.0,1.9843,2.0452,2.1798,2.2691,2.2975,2.2375,2.4531,2.6063,2.5963,2.6641,2.7252,2.7654,2.7729,2.7821,2.8097,2.8866,2.9428,2.9553,2.9543,2.9628,2.9764,2.9779,2.9779,2.9779,2.9779,2.9779,2.9779,2.9779,2.9779,2.9779,2.9779,2.9779,2.9804,2.9779,2.9779,2.9779,2.9779,2.9779,2.9779,2.9814,2.9814,3.0927,3.095,3.0927,3.0177,2.8999,2.9007,2.8994,2.9013,2.9319,2.9095,2.8514,2.8528,2.8508,2.8507,2.8483,2.8693,2.9039,2.9325,2.9661,2.999,3.0313,3.0455,3.0462,3.0469,3.0283,2.9997,2.9997,2.9841,2.9615,2.9608,2.9398,2.9069,2.9435,2.868,2.6925,2.72,2.7566,2.7931,2.8297,2.8483,2.8483,2.8201,2.7908,2.7597,2.6884,2.6063,2.5173,2.4741,2.3939,2.2738,2.1695,2.0857,2.0164,1.816,1.6605,0.0,0.0,0.0,0.0,0.0,0.0,0.0,0.0,0.0,0.0,0.0,1.51,0.0,0.0,0.0,1.9183,2.0193,2.1089,2.1694,2.2236,2.2867,2.3747,2.4825,2.5243,2.4674,2.6147,2.716,2.7036,2.737,2.7745,2.8081,2.86,2.8955,2.8916,2.9428,2.9779,2.9779,2.9779,2.9779,2.9779,2.9779,2.9779,2.9779,2.9779,2.9779,2.9779,2.9779,2.9779,2.9779,2.9779,2.9905,3.0191,2.999,3.0101,3.1251,3.1597,3.128,3.0382,3.0234,3.0406,3.1511,3.1511,3.1511,3.1511,3.1511,3.1511,3.1168,3.0681,3.1248,3.0835,2.9755,2.9838,2.9841,2.9847,2.9841,2.9854,2.9871,3.0402,3.0635,3.0665,3.1249,3.1511,3.1511,3.1511,3.1219,3.0642,3.0635,3.0342,2.9847,2.9847,2.9847,2.9841,2.9847,2.9847,2.9841,2.9847,2.9758,2.9608,2.9608,2.9608,2.9578,2.9026,2.841,2.7764,2.7555,2.6614,2.4844,2.5208,2.4711,2.3057,2.2298,2.1695,2.1082,2.0195,1.9089,0.0,1.7623,0.0,0.0,0.0,0.0,0.0,0.0,0.0,0.0,1.5965,1.708,1.8594,1.9629,2.0665,2.1726,2.2734,2.3363,2.3554,2.4482,2.5118,2.5176,2.6498,2.7211,2.67,2.7592,2.8116,2.7648,2.8084,2.8517,2.8556,2.9413,3.0125,3.0136,3.0053,3.0011,2.9934,2.9847,2.9839,2.993,3.0005,3.0065,3.004,3.009,3.0015,3.0055,3.003,3.004,3.004,3.008,3.0276,3.0909,3.0481,3.0875,3.2978,3.4022,3.3826,3.1687,3.1287,3.1716,3.1511,3.1511,3.1511,3.1511,3.1511,3.1511,3.1408,3.1314,3.1423,3.1341,3.1136,3.1132,3.1129,3.1122,3.1129,3.1159,3.1159,3.1241,3.1301,3.1338,3.1444,3.1511,3.1511,3.1511,3.1444,3.1308,3.1301,3.1241,3.1152,3.1152,3.1159,3.1129,3.1129,3.1129,0.0,0.0,0.0,0.0,2.9608,2.9608,2.9615,2.9452,2.9106,2.8404,2.7363,0.0,2.5453,2.4999,2.464,2.4251,2.3604,0.0,0.0,0.0,0.0,0.0,0.0,0.0,0.0,0.0,0.0,0.0,1.9934,1.8852,1.7183,1.9051,2.0722,2.1454,2.2099,2.2777,2.3452,2.4081,2.4842,2.5762,2.6432,2.6825,2.685,2.7503,2.7779,2.7472,2.8396,2.8684,2.791,2.9379,3.0379,2.9801,3.0334,3.0996,3.1572,3.1033,3.0686,3.0667,3.0222,3.0009,3.0372,3.0849,3.1105,3.1095,3.1105,3.11,3.107,3.1115,3.111,3.1115,3.1095,3.1226,3.16,3.1337,3.1642,3.3122,3.5779,3.6815,3.334,3.3146,3.3586,3.1511,0.0,3.1511,3.1511,0.0,3.1511,3.1511,3.1511,3.1511,3.1511,3.1511,3.1511,3.169,3.1989,3.1996,3.2168,3.2482,3.2475,3.2482,3.249,3.2146,3.1989,3.1982,3.166,3.1511,3.1511,3.1511,3.1511,3.1511,3.1511,3.1511,3.1511,3.1511,3.1511,3.1511,3.1511,3.1189,3.0545,3.0545,3.0538,3.0515,3.0216,2.9594,2.8607,0.0,0.0,0.0,0.0,0.0,0.0,0.0,0.0,0.0,0.0,0.0,2.1304,2.108,2.0737,2.0206,2.0926,2.1691,2.2291,2.273,2.2068,1.9981,2.1343,2.2633,2.3454,2.4021,2.4674,2.5544,2.5896,2.6239,2.6842,2.7144,2.7386,2.7679,2.8154,2.8414,2.8355,2.9104,2.9336,2.8401,2.9988,3.1012,3.0645,3.1395,3.2146,3.2316,3.1266,3.0553,3.1204,3.0439,3.0405,3.1893,3.2179,3.2202,3.2082,3.2039,3.2039,3.2039,3.2382,3.2689,3.2699,3.2768,3.2939,3.3304,3.3149,3.3413,3.5108,3.7251,3.8194,3.5832,3.524,3.5195,3.175,3.1839,3.1869,3.1839,3.1869,3.1869,3.1839,3.1832,0.0,0.0,0.0,3.1511,3.1869,3.249,3.2385,3.2759,3.3492,3.3372,3.3402,3.3455,3.2826,3.2505,3.2482,3.1809,3.1511,3.1511,3.1511,3.1511,3.1511,3.1511,3.1511,3.1511,3.1511,3.1511,3.1511,3.1511,3.1511,3.1511,3.1511,3.1511,3.1481,3.0957,3.0133,2.8966,2.8816,2.7949,2.6237,2.6668,2.6183,2.4597,2.4999,2.5059,2.4526,2.4805,2.4774,2.4376,2.47,2.4319,2.2987,2.3823,2.4238,2.3872,2.5,2.4923,2.3191,2.3529,2.4264,2.5293,2.5703,2.6314,2.7327,2.7437,2.754,2.775,2.7769,2.8005,2.858,2.8884,2.914,2.9247,2.9981,3.0213,2.9554,3.0869,3.1754,3.1709,3.259,3.3331,3.3026,3.1993,3.1429,3.2088,3.1837,3.193,3.3443,3.4246,3.3783,3.3416,3.3255,3.3212,3.3321,3.3834,3.4279,3.4301,3.4499,3.4786,3.5199,3.5121,3.5609,3.7263,3.8388,3.8879,3.8247,3.7271,3.6779,3.2699,3.3215,3.3223,3.3215,3.3215,3.3215,3.3215,3.3125,3.1996,3.1511,3.1511,3.1511,3.1884,3.2482,3.1914,3.2325,3.3432,3.2908,3.2946,0.0,3.2826,3.2505,3.2452,3.1809,3.1511,3.1511,3.1511,3.1511,3.1511,3.1511,3.1511,3.1511,3.1511,3.1511,3.1511,3.1511,3.1511,3.1511,3.1511,3.1511,3.1511,3.1414,3.1009,3.0283,2.9728,2.9069,2.8211,2.8248,2.8188,2.7919,2.7972,2.7972,2.787,2.7007,2.6206,2.5584,2.5273,2.4919,2.4685,2.5223,2.6023,2.7036,2.764,2.7355,2.6089,2.6407,2.6967,2.7561,2.7268,2.7302,2.7896,2.7996,2.842,2.9454,2.9525,2.98,3.0592,3.026,3.0018,3.02,3.1332,3.1738,3.1145,3.261,3.3764,3.3725,3.3949,3.41,3.4112,3.4213,3.4157,3.4014,3.4724,3.5096,3.5115,3.6378,3.6434,3.5391,3.5096,3.5079,3.5082,3.543,3.5676,3.5668,3.5882,3.6102,3.6387,3.6697,3.7206,3.807,3.8797,3.9219,3.9083,3.8816,3.8613,3.3215,3.3484,3.3522,3.3522,3.3522,3.3522,3.3522,3.3455,3.2886,3.2572,3.2602,3.2564,3.2946,3.3544,3.3275,3.3455,3.4039,3.3732,3.3544,3.3455,3.2826,3.2505,3.2445,3.1809,3.1511,3.1511,3.1511,3.1511,3.1511,3.1511,3.1511,3.1511,3.1511,3.1511,3.1511,3.1511,3.1511,3.1511,3.1511,3.1511,3.1511,3.1511,3.1189,3.0508,3.023,2.9811,2.9152,2.9159,2.8966,2.8594,2.8973,2.9152,2.9146,2.8908,2.8704,2.8469,2.8523,2.8391,2.8063,2.8579,2.9089,2.96,3.0003,2.9786,2.8697,2.806,2.7971,2.8455,2.8288,2.8398,2.895,2.8731,2.8955,3.0004,2.9764,3.0023,3.102,3.102,3.094,3.1312,3.2217,3.2427,3.1415,3.3415,3.4692,3.4372,3.4996,3.5809,3.5928,3.6417,3.6418,3.5526,3.638,3.7029,3.6769,3.7415,3.7577,3.6474,3.6296,3.6346,3.6494,3.6865,3.729,3.7453,3.7634,3.7795,3.7928,3.82,3.8537,3.8741,3.9092,3.9373,3.9412,3.9412,3.9256,3.3829,3.3933,3.3963,3.3963,3.3933,3.3963,3.3971,3.3971,3.3963,3.3933,3.3903,3.3642,3.3881,3.4466,3.4354,3.4436,3.4667,3.4555,3.4308,3.3911,3.3275,3.2968,3.2849,3.2116,3.1713,3.169,3.157,3.1511,3.1511,3.1511,3.1511,3.1511,3.1511,3.1511,3.1511,3.1511,3.1511,3.1511,3.1511,3.1511,3.1511,3.1511,3.1241,3.0777,3.0717,3.0515,3.0043,3.0013,2.9864,2.9521,2.999,3.0333,3.0469,3.0918,3.1167,3.1156,3.1471,3.1502,3.1079,3.1426,3.1665,3.1601,3.1861,3.1677,3.0868,2.965,2.9013,2.9308,2.9241,2.9434,2.9958,2.9753,2.9764,3.0466,3.0228,3.0645,3.1754,3.1972,3.2221,3.2786,3.3506,3.3573,3.3009,3.4251,3.5395,3.5329,3.6438,3.7568,3.7791,3.8107,3.78,3.7308,3.764,3.8143,3.8277,3.8343,3.8079,3.7395,3.7347,3.7434,3.7634,3.8173,3.8584,3.8732,3.8943,3.8998,3.9117,3.9237,3.9301,3.931,3.9355,3.9412,3.9412,3.9412,3.9412,3.4757,3.528,3.5242,3.5302,3.5272,3.528,3.5242,3.5272,3.531,3.531,3.513,3.4023,3.3919,3.4376,3.3911,3.43,3.528,3.4757,3.4749,3.51,3.4629,3.4308,3.4099,3.2998,3.2392,3.2325,3.1847,3.163,3.163,3.154,3.1511,3.1511,3.1511,3.1511,3.1511,3.1511,3.1511,3.1511,3.1511,3.1511,3.1511,3.1511,3.1466,3.1421,3.1391,3.1377,3.1241,3.1338,3.157,3.2086,3.2093,3.2467,3.3013,3.3163,3.2948,3.2401,3.2396,3.2346,3.2271,3.2286,3.2495,3.2706,3.2788,3.2633,3.2135,3.1639,3.1136,3.0839,3.0317,3.0409,3.1038,3.1065,3.1349,3.2008,3.1988,3.2449,3.3722,3.4009,3.4235,3.5024,3.5563,3.6022,3.534,3.5978,3.6606,3.6856,3.76,3.8316,3.8381,3.8513,3.8648,3.8467,3.8621,3.8519,3.851,3.8741,3.8695,3.8546,3.8574,3.8509,3.8555,3.8751,3.9074,3.9053,3.9219,3.9328,3.9346,3.9412,3.9412,3.9412,3.9412,3.9412,3.9412,3.9481,3.9481,3.5258,3.5489,3.5489,3.5489,3.5489,3.5489,3.5489,3.5489,3.5489,3.5489,3.5451,3.4921,3.4831,3.507,3.4809,3.4801,3.4869,3.4615,3.4428,3.4322,3.4031,3.3919,3.3829,3.3365,3.3095,3.3058,3.2819,3.2691,3.2594,3.2295,3.2086,3.2056,3.172,3.1511,3.1511,3.1511,3.1511,3.1511,3.1511,3.1511,3.1511,3.1511,3.1511,3.1511,3.1511,3.1511,3.1511,3.1511,3.1623,3.1869,3.1906,3.24,3.3432,3.3125,3.3339,3.4152,3.4276,3.4273,3.423,3.4234,3.4309,3.4442,3.4223,3.3871,3.3342,3.2755,3.2517,3.2873,3.2273,3.181,3.1935,3.2146,3.2608,3.3335,3.371,3.4327,3.5365,3.5568,3.5741,3.5947,3.6338,3.6678,3.673,3.731,3.789,3.8277,3.8605,3.8705,3.8815,3.8833,3.8806,3.8815,3.8833,3.8815,3.8732,3.8843,3.8925,3.8852,3.8776,3.8824,3.8971,3.9026,3.9117,3.9256,3.9337,3.9412,3.9373,3.9412,3.9412,3.9442,3.9442,3.9472,3.99,3.9999,4.0118,3.5489,3.5489,3.5489,3.5489,3.5489,3.5489,3.5489,3.5489,3.5489,3.5489,3.5489,3.5489,3.5489,3.5489,3.5489,3.522,3.4817,3.4787,3.451,3.4083,3.4053,3.4061,3.4053,3.3851,3.3761,3.3732,3.3552,3.3492,3.3462,3.3036,3.2766,3.2699,3.231,3.2056,3.2056,3.2026,3.2056,3.2056,3.2056,3.2026,3.2063,3.2063,3.1869,3.1533,3.1511,3.1511,3.1511,3.1511,3.169,3.2026,3.2056,3.2654,3.3903,3.3567,3.3993,3.5272,3.5489,3.5489,3.5489,3.5489,3.5489,3.5457,3.5228,3.4927,3.4608,3.4215,3.4381,3.5026,3.4585,3.4076,3.3606,3.3842,3.432,3.4891,3.5408,3.591,3.6304,3.6672,3.6845,3.6711,3.715,3.7384,3.7781,3.8311,3.871,3.8886,3.8896,3.8916,3.9062,3.9017,3.898,3.8971,3.908,3.9101,3.8943,3.9026,3.9026,3.9007,3.8989,3.9044,3.9165,3.9183,3.921,3.9328,3.9373,3.9412,3.9412,3.9412,3.9601,3.9699,3.9819,4.0049,4.0576,4.0666,4.0855,3.5489,3.5489,3.5489,3.5489,3.5489,3.5489,3.5489,3.5489,3.5489,3.5489,3.5489,3.5489,3.5489,3.5489,3.5489,3.5489,3.5421,3.5408,3.537,3.5272,3.531,3.54,3.537,3.4757,3.4466,3.4398,3.3941,3.3642,3.3612,3.3492,3.3462,3.3455,3.3335,3.3372,3.3305,3.3275,3.3395,3.3275,3.3245,3.3335,3.3327,3.3365,3.2721,3.175,3.1533,3.16,3.157,3.154,3.2079,3.335,3.3335,3.3963,3.516,3.531,3.5332,3.5459,3.5489,3.5489,3.5489,3.5489,3.5519,3.5541,3.5514,3.5657,3.6005,3.6208,3.6517,3.6992,3.7125,3.6978,3.639,3.6279,3.6467,3.6611,3.6775,3.6793,3.6669,3.7413,3.7705,3.7712,3.8237,3.8666,3.8907,3.8978,3.8934,3.8934,3.901,3.9149,3.9275,3.9345,3.9468,3.9507,3.9486,3.934,3.9165,3.9201,3.931,3.9351,3.9315,3.9427,3.9394,3.9382,3.9442,3.9511,3.966,3.969,3.9472,3.9571,3.9918,4.0217,4.0726,4.1085,4.1283,4.1334,4.1543,3.5489,3.5489,3.5489,3.5489,3.5489,3.5489,3.5489,3.5489,3.5489,3.5489,3.5489,3.5489,3.5489,3.5489,3.5489,3.5489,3.5489,3.5489,3.5489,3.5489,3.5489,3.5489,3.5459,3.522,3.513,3.51,3.4891,3.4771,3.4711,3.4368,3.4136,3.4039,3.3702,3.3522,3.3522,3.3522,3.3522,3.3522,3.3522,3.3522,3.3552,3.3522,3.3237,3.2811,3.2781,3.2781,3.2781,3.2789,3.3036,3.3492,3.3522,3.3903,3.4779,3.528,3.528,3.4959,3.525,3.5489,3.5489,3.5489,3.5699,3.6088,3.6018,3.6262,3.6858,3.7224,3.7473,3.7821,3.8406,3.8534,3.8215,3.7819,3.7482,3.7451,3.7808,3.8069,3.8092,3.8407,3.86,3.8454,3.8734,3.8953,3.9131,3.9092,3.911,3.9222,3.9622,3.9859,4.0035,4.0339,4.0616,4.0666,4.0666,4.0647,4.0601,3.9785,3.9412,3.9532,3.9621,3.995,4.0058,4.0397,4.0546,4.0487,4.0487,4.0457,4.0427,4.0576,4.0765,4.0915,4.1424,4.1783,4.1952,4.1992,4.2222,3.5489,3.5489,3.5489,3.5631,3.5818,3.5848,3.593,3.608,3.6109,3.6118,3.6118,3.6118,3.6109,3.6109,3.6118,3.6109,3.6041,3.5721,3.5489,3.5489,3.5489,3.5489,3.5489,3.5489,3.5489,3.5481,3.5489,3.5489,3.5451,3.5048,3.4809,3.4787,3.4352,3.4135,3.4143,3.4143,3.4143,3.4151,3.4143,3.4173,3.4143,3.4143,3.4135,3.4143,3.4143,3.3933,3.3552,3.3522,3.3612,3.3791,3.3829,3.4128,3.4779,3.5258,3.531,3.4929,3.525,3.5593,3.5789,3.5818,3.6088,3.6725,3.6705,3.6926,3.7618,3.7837,3.8103,3.8525,3.8993,3.9319,3.9076,3.864,3.8322,3.8252,3.8659,3.8962,3.8925,3.9062,3.9108,3.9005,3.9017,3.916,3.9412,3.9508,3.9721,3.9999,4.0457,4.0696,4.0795,4.1064,4.1413,4.1413,4.1313,4.1283,4.1195,4.0597,4.0298,4.0397,4.0367,4.0616,4.0825,4.1244,4.1463,4.1463,4.1443,4.1443,4.1502,4.1613,4.1673,4.1703,4.2082,4.2482,4.2581,4.2651,4.2791,3.5519,3.5549,3.5519,3.5938,3.6455,3.6477,3.6844,3.7216,3.7268,3.7178,3.7148,3.7268,3.7178,3.7298,3.7148,3.7306,3.7037,3.6178,3.5691,3.5691,3.5661,3.5669,3.5661,3.5721,3.5729,3.5699,3.5579,3.5541,3.5579,3.5549,3.5489,3.5451,3.537,3.525,3.5429,3.531,3.537,3.534,3.5272,3.5362,3.5489,3.5332,3.531,3.537,3.534,3.4831,3.3724,3.3642,3.3949,3.442,3.4488,3.4801,3.534,3.5549,3.5541,3.5549,3.5579,3.5878,3.6387,3.6493,3.6746,3.7276,3.7379,3.7678,3.8263,3.8434,3.8656,3.9116,3.9334,3.9319,3.927,3.9294,3.9289,3.9364,3.9301,3.9265,3.9192,3.9304,3.9412,3.9475,3.9546,3.9711,4.0178,4.0369,4.0567,4.0995,4.1313,4.1403,4.1433,4.1564,4.1523,4.1553,4.1723,4.1903,4.1673,4.1403,4.1433,4.1433,4.1373,4.1433,4.1454,4.1753,4.1953,4.1992,4.2013,4.1983,4.2052,4.2172,4.2322,4.2441,4.2841,4.301,4.301,4.305,4.313,3.5759,3.6156,3.6186,3.6537,3.7075,3.7127,3.7246,3.7387,3.7387,3.7387,3.7387,3.7387,3.7387,3.7396,3.7387,3.7387,3.7357,3.6985,3.6827,3.6798,3.6798,3.6759,3.6768,3.6806,3.6827,3.6798,3.6798,3.6558,3.6246,3.6186,3.5968,3.5579,3.5519,3.5489,3.5549,3.5489,3.5489,3.5489,3.5489,3.5489,3.5489,3.5519,3.5519,3.5489,3.5489,3.5459,3.5527,3.513,3.4981,3.5198,3.5198,3.5288,3.5549,3.5938,3.6194,3.6246,3.6588,3.6857,3.7084,3.7144,3.7404,3.7943,3.8093,3.8422,3.899,3.908,3.9191,3.9382,3.9412,3.9505,3.9905,4.0052,3.9863,3.9249,3.9301,3.9463,3.9468,3.9813,4.0109,4.0328,4.0576,4.0726,4.0687,4.0836,4.1194,4.1463,4.1832,4.2071,4.2122,4.2372,4.2681,4.2711,4.2711,4.2542,4.2422,4.2342,4.2332,4.2222,4.2142,4.2082,4.2142,4.2222,4.2422,4.2482,4.2542,4.2571,4.2631,4.2721,4.2851,4.296,4.313,4.321,4.33,4.329,4.329,3.6118,3.6515,3.6725,3.7195,3.7764,3.7764,3.7934,3.8114,3.8144,3.8153,3.8144,3.8135,3.8318,3.8435,3.8283,3.8318,3.8486,3.8301,3.8144,3.8015,3.7545,3.7387,3.7387,3.7387,3.7387,3.7387,3.7387,3.7216,3.6836,3.6814,3.6635,3.6267,3.6199,3.6229,3.6199,3.6199,3.6199,3.6199,3.6229,3.6207,3.6229,3.6199,3.6207,3.6199,3.6191,3.6409,3.6784,3.6417,3.6199,3.6199,3.6199,3.6207,3.6237,3.6596,3.6844,3.6896,3.7157,3.7486,3.7734,3.7772,3.8063,3.8631,3.8772,3.8922,3.937,3.9541,3.975,3.978,4.0058,4.0307,4.0675,4.0756,4.0491,4.0031,4.0114,4.0148,4.0208,4.0487,4.0657,4.0797,4.1046,4.1265,4.1315,4.1474,4.1882,4.2112,4.2481,4.275,4.28,4.301,4.321,4.33,4.315,4.309,4.324,4.324,4.324,4.307,4.2871,4.2791,4.2761,4.2871,4.3,4.298,4.3,4.2971,4.301,4.309,4.318,4.33,4.329,4.329,4.329,4.329,4.329,3.662,3.6732,3.7293,3.7944,3.8532,3.8562,3.891,3.9388,3.9526,3.9537,3.9531,3.95,3.9802,4.0165,3.9606,3.9623,4.0152,3.9533,3.9173,3.8913,3.8255,3.7725,3.7716,3.7746,3.7746,3.7686,3.7656,3.7545,3.7464,3.7456,3.7417,3.7246,3.7186,3.7336,3.7208,3.7336,3.7238,3.7186,3.7276,3.7268,3.7276,3.7306,3.7306,3.7276,3.7246,3.7298,3.7434,3.7494,3.7456,3.7404,3.7238,3.7186,3.7336,3.7426,3.7456,3.7486,3.7477,3.7913,3.8341,3.8452,3.876,3.937,3.9451,3.9472,3.972,4.0187,4.0457,4.0487,4.0915,4.1304,4.1403,4.1463,4.1424,4.1513,4.1265,4.1214,4.1403,4.1433,4.1394,4.1165,4.1294,4.1663,4.2053,4.2292,4.2641,4.298,4.316,4.316,4.318,4.324,4.33,4.329,4.329,4.329,4.329,4.329,4.329,4.327,4.316,4.317,4.314,4.325,4.329,4.329,4.329,4.329,4.329,4.329,4.329,4.329,4.329,4.329,4.3359,4.3389,4.3569,3.7826,3.8689,3.8872,3.9314,3.9903,3.9925,4.0026,4.0279,4.0744,4.084,4.0916,4.0942,4.0735,4.0504,4.0296,4.0065,3.9764,3.9517,3.9412,3.9361,3.9083,3.8883,3.8883,3.8853,3.8814,3.8793,3.8733,3.8622,3.8153,3.8123,3.7913,3.7387,3.7516,3.7447,3.7387,3.7477,3.7387,3.7387,3.7426,3.7447,3.7447,3.7447,3.7387,3.7387,3.7417,3.7695,3.8123,3.8622,3.8344,3.7456,3.7387,3.7387,3.7507,3.7883,3.8123,3.8182,3.8593,3.8913,3.9071,3.9131,3.9451,4.0038,4.0157,4.0328,4.0846,4.1014,4.1134,4.1164,4.1343,4.1652,4.2012,4.2131,4.2322,4.2601,4.2043,4.1673,4.2002,4.2131,4.2241,4.2552,4.2672,4.2761,4.2861,4.2951,4.307,4.324,4.329,4.329,4.329,4.329,4.329,4.329,4.329,4.329,4.329,4.329,4.329,4.329,4.33,4.3309,4.328,4.327,4.329,4.329,4.329,4.329,4.329,4.329,4.329,4.3389,4.3419,4.3479,4.3569,4.3658,4.3997,3.8705,3.9953,4.0209,4.0574,4.0908,4.0939,4.0908,4.0992,4.1302,4.1501,4.1501,4.1501,4.1285,4.09,4.0624,4.0279,3.9862,3.9535,3.9412,3.9412,3.9352,3.9352,3.9382,3.9382,3.9412,3.9412,3.9412,3.9191,3.8871,3.8811,3.8601,3.8344,3.8263,3.8255,3.8285,3.8255,3.8225,3.8255,3.8225,3.8234,3.8234,3.8263,3.8255,3.8255,3.8234,3.8473,3.8862,3.9191,3.8993,3.8404,3.8255,3.8225,3.8255,3.8601,3.8811,3.8841,3.9221,3.9481,3.9789,3.9819,4.0118,4.0645,4.0825,4.1014,4.1343,4.1622,4.1832,4.1832,4.2022,4.2381,4.2681,4.28,4.294,4.31,4.2631,4.2372,4.2741,4.2761,4.294,4.318,4.329,4.329,4.329,4.329,4.33,4.329,4.329,4.329,4.329,4.3319,4.3389,4.3479,4.3449,4.3479,4.3479,4.3479,4.3758,4.3728,4.3938,4.3878,4.3569,4.3509,4.3449,4.3449,4.3359,4.3359,4.3479,4.3509,4.3509,4.3569,4.3628,4.3878,4.4087,4.4267,4.4566,3.9506,4.0769,4.1355,4.1607,4.1624,4.1616,4.1632,4.1632,4.1795,4.1836,4.1819,4.1689,4.1583,4.1451,4.0778,4.0426,4.0261,3.9643,3.9436,3.9412,3.9412,3.9412,3.9412,3.9412,3.9412,3.9412,3.9412,3.9382,3.9302,3.9331,3.9352,3.9203,3.9242,3.9331,3.9152,3.9263,3.9382,3.9233,3.9173,3.9152,3.9152,3.9152,3.9152,3.9152,3.9152,3.9182,3.9331,3.9481,3.949,3.9481,3.9451,3.9272,3.9302,3.9391,3.9511,3.955,3.9699,4.0029,4.0406,4.0526,4.0795,4.1334,4.1502,4.1553,4.1792,4.2211,4.2481,4.2481,4.299,4.313,4.318,4.328,4.3339,4.3449,4.3389,4.3419,4.3479,4.3389,4.329,4.329,4.329,4.329,4.329,4.3329,4.3339,4.3658,4.3658,4.3778,4.3868,4.4027,4.3967,4.3878,4.3818,4.3668,4.3668,4.3668,4.4027,4.4307,4.4696,4.4666,4.4117,4.3938,4.3758,4.3728,4.4027,4.4057,4.3908,4.3908,4.3938,4.4117,4.4366,4.4696,4.5035,4.5144,4.5384,4.0903,4.2171,4.2292,4.2373,4.238,4.238,4.238,4.238,4.2896,4.3036,4.3021,4.2601,4.2029,4.1476,4.0823,4.0192,3.9777,3.9481,3.9412,3.9412,3.9412,3.9412,3.9412,3.9412,3.9412,3.9412,3.9412,3.9412,3.9412,3.9412,3.9412,3.9412,3.9412,3.9412,3.9412,3.9412,3.9412,3.9412,3.9412,3.9412,3.9421,3.9451,3.9481,3.9511,3.9511,3.9451,3.9532,3.9909,4.0178,4.0058,3.9759,3.9571,3.9631,3.9969,4.0178,4.0277,4.0675,4.0984,4.1164,4.1233,4.1473,4.2071,4.2191,4.2391,4.2861,4.2951,4.307,4.31,4.321,4.3319,4.3389,4.3329,4.3628,4.3957,4.4087,4.4277,4.4546,4.3938,4.3509,4.3389,4.3389,4.3329,4.3359,4.3479,4.3638,4.3967,4.4177,4.4366,4.4516,4.4636,4.4576,4.4426,4.4456,4.4396,4.4426,4.4486,4.4755,4.5084,4.5414,4.5663,4.5084,4.4785,4.4785,4.4815,4.4905,4.4766,4.4366,4.4606,4.4666,4.4885,4.5095,4.5334,4.5574,4.5843,4.6072,4.1501,4.3042,4.3082,4.3075,4.3075,4.309,4.3082,4.3143,4.3408,4.3598,4.3539,4.3189,4.2499,4.1509,4.1085,4.0435,3.9589,3.9412,3.9412,3.9412,3.9412,3.9412,3.9412,3.9412,3.9412,3.9412,3.9412,3.9412,3.9412,3.9412,3.9412,3.9412,3.9412,3.9412,3.9412,3.9442,3.9412,3.9412,3.9412,3.9412,3.9421,3.972,4.0088,4.0277,4.0337,4.0328,4.0427,4.0645,4.0855,4.0795,4.0546,4.0337,4.0367,4.0675,4.0846,4.0945,4.1164,4.1592,4.1742,4.1892,4.2152,4.2771,4.2821,4.299,4.321,4.329,4.329,4.329,4.3319,4.3379,4.3728,4.4157,4.4426,4.4636,4.4766,4.4935,4.5095,4.4636,4.4147,4.4087,4.4187,4.4416,4.4446,4.4147,4.4277,4.4736,4.4755,4.4905,4.4915,4.5035,4.5095,4.5035,4.5125,4.5185,4.5234,4.5384,4.5623,4.5922,4.6221,4.6431,4.6311,4.6102,4.6003,4.5813,4.5484,4.5065,4.4796,4.5095,4.5394,4.5514,4.5663,4.5853,4.6153,4.6531,4.673,4.1784,4.3598,4.3598,4.3598,4.3598,4.3583,4.3561,4.3576,4.3598,4.3524,4.3404,4.3348,4.2325,4.1501,4.1085,4.04,3.9705,3.9412,3.9412,3.9412,3.9412,3.9412,3.9412,3.9412,3.9511,3.9511,3.9451,3.9451,3.9562,3.9571,3.978,3.972,3.978,3.9939,3.978,3.972,3.9879,3.9939,3.9939,3.99,3.9909,4.0337,4.0795,4.1104,4.1224,4.1184,4.1224,4.1403,4.1553,4.1553,4.1633,4.1693,4.1663,4.1573,4.1543,4.1553,4.1733,4.2082,4.2451,4.2561,4.2761,4.33,4.33,4.3359,4.3449,4.3569,4.3658,4.3718,4.3808,4.3967,4.4426,4.4796,4.5195,4.5394,4.5464,4.5494,4.5584,4.5614,4.5394,4.4866,4.4825,4.4995,4.5174,4.5125,4.5304,4.5434,4.5454,4.5484,4.5524,4.5614,4.5753,4.5903,4.6052,4.6082,4.6142,4.6102,4.6371,4.6491,4.682,4.6939,4.7089,4.6909,4.6561,4.6142,4.5783,4.5544,4.5514,4.5783,4.5992,4.6112,4.6262,4.6501,4.683,4.7238,4.7238,4.2161,4.3598,4.3598,4.3598,4.3598,4.3598,4.3598,4.3598,4.3576,4.3265,4.2749,4.2126,4.1517,4.0721,4.0003,3.9607,3.9454,3.9412,3.9412,3.9412,3.9412,3.9421,3.9511,3.9541,3.9759,3.9939,3.9849,3.9819,4.0148,4.0247,4.0457,4.0915,4.0984,4.0945,4.0915,4.1035,4.0885,4.0804,4.0825,4.0855,4.0924,4.1104,4.1343,4.1583,4.1643,4.1613,4.1643,4.1952,4.2231,4.2281,4.2731,4.2891,4.2781,4.2441,4.2241,4.2301,4.2581,4.2861,4.301,4.31,4.318,4.33,4.3359,4.3688,4.3967,4.4147,4.4296,4.4696,4.4845,4.5005,4.5105,4.5404,4.5633,4.5933,4.6161,4.63,4.6711,4.6741,4.6381,4.5614,4.5484,4.5484,4.5753,4.5903,4.5963,4.6052,4.6142,4.6311,4.6501,4.6621,4.68,4.692,4.704,4.707,4.707,4.701,4.7029,4.6969,4.7119,4.7119,4.7238,4.7268,4.701,4.6621,4.6591,4.6651,4.664,4.655,4.664,4.6741,4.695,4.71,4.7219,4.7298,4.7298,4.205,4.3043,4.344,4.3598,4.3598,4.3598,4.3598,4.3546,4.3235,4.2929,4.2467,4.1819,4.1158,4.0555,4.0174,3.9782,3.9454,3.9412,3.9412,3.9412,3.9421,3.9631,3.9879,3.9909,4.0337,4.0675,4.0606,4.0546,4.0885,4.0915,4.1124,4.1283,4.1413,4.1413,4.1413,4.1343,4.1433,4.1433,4.1433,4.1433,4.1502,4.1703,4.2022,4.2312,4.2362,4.2392,4.2452,4.2641,4.2851,4.291,4.313,4.327,4.321,4.307,4.2851,4.291,4.313,4.3329,4.33,4.3329,4.3419,4.3778,4.3808,4.4147,4.4606,4.4855,4.5025,4.5274,4.5713,4.5802,4.5843,4.6093,4.6471,4.6711,4.679,4.6939,4.7179,4.7268,4.686,4.6322,4.6411,4.6441,4.6471,4.6591,4.658,4.667,4.679,4.6999,4.7268,4.7298,4.7298,4.7298,4.7279,4.7279,4.7279,4.7309,4.7298,4.7298,4.7298,4.7298,4.7298,4.7298,4.7298,4.713,4.7268,4.7298,4.7209,4.6969,4.7179,4.7298,4.7238,4.7219,4.7279,4.7298,4.7399,4.1825,4.2546,4.3308,4.3598,4.3598,4.3598,4.3598,4.3479,4.2921,4.253,4.2301,4.1599,4.0874,4.04,4.0196,3.9924,3.9391,3.9412,3.9481,3.966,3.969,3.9969,4.0457,4.0675,4.0945,4.1493,4.1553,4.1583,4.1592,4.1622,4.1673,4.1903,4.1843,4.1783,4.1863,4.1983,4.1783,4.1783,4.1783,4.1783,4.1942,4.2301,4.28,4.324,4.329,4.323,4.315,4.318,4.324,4.324,4.33,4.329,4.329,4.329,4.329,4.329,4.329,4.3359,4.3509,4.3569,4.3868,4.4426,4.4486,4.4875,4.5354,4.5663,4.5783,4.5813,4.6132,4.648,4.658,4.695,4.7179,4.7238,4.7238,4.7298,4.7268,4.7298,4.7298,4.713,4.7298,4.7219,4.701,4.701,4.6939,4.6939,4.7059,4.7059,4.7298,4.7298,4.7298,4.7298,4.7298,4.7298,4.7298,4.7309,4.7298,4.7298,4.7298,4.7298,4.7298,4.7298,4.7339,4.7399,4.7298,4.7298,4.7298,4.7298,4.7298,4.7298,4.7298,4.7429,4.7638,4.7758,4.7848,4.1825,4.2546,4.33,4.3598,4.3598,4.3598,4.3598,4.3524,4.2875,4.2238,4.1673,4.0939,4.0209,3.9759,3.9598,3.949,3.9439,3.9511,3.9759,4.0088,4.0268,4.0636,4.1194,4.1274,4.1663,4.2182,4.2281,4.2291,4.2281,4.2281,4.2541,4.2841,4.2861,4.301,4.2801,4.2771,4.306,4.303,4.3,4.3,4.298,4.306,4.321,4.327,4.329,4.329,4.329,4.329,4.329,4.329,4.329,4.329,4.329,4.329,4.329,4.329,4.3349,4.3529,4.3997,4.4177,4.4486,4.5035,4.5185,4.5533,4.6042,4.658,4.686,4.707,4.7119,4.7089,4.7059,4.7219,4.7298,4.7298,4.7298,4.7298,4.7298,4.7298,4.7298,4.7298,4.7298,4.7298,4.7219,4.7249,4.7268,4.7298,4.7298,4.7298,4.7298,4.7298,4.7298,4.7298,4.7298,4.7298,4.7298,4.7298,4.7489,4.7429,4.7459,4.7489,4.7728,4.7818,4.7549,4.7578,4.7519,4.7519,4.7578,4.7549,4.7388,4.7448,4.7627,4.7878,4.8128,4.8248,4.8338,4.1586,4.195,4.3109,4.3598,4.3598,4.3598,4.3598,4.3355,4.2459,4.1803,4.131,4.0322,3.9696,3.9418,3.9412,3.9421,3.9481,3.9789,4.0088,4.0516,4.0816,4.1304,4.1832,4.2002,4.2301,4.2731,4.291,4.2901,4.291,4.291,4.308,4.325,4.329,4.324,4.329,4.329,4.329,4.327,4.33,4.33,4.329,4.329,4.329,4.329,4.329,4.329,4.329,4.329,4.329,4.329,4.329,4.329,4.3419,4.3638,4.3878,4.3918,4.4277,4.4396,4.4366,4.4676,4.5214,4.5653,4.5922,4.6161,4.673,4.7089,4.7298,4.7279,4.7309,4.7298,4.7298,4.7298,4.7298,4.7298,4.7388,4.7418,4.7418,4.7298,4.7298,4.7298,4.7358,4.7549,4.7638,4.7578,4.7489,4.7298,4.7298,4.7298,4.7298,4.7298,4.7298,4.7298,4.7298,4.7298,4.7298,4.7339,4.7758,4.7818,4.7978,4.8098,4.8457,4.8498,4.8218,4.8289,4.8528,4.8397,4.8057,4.7698,4.7448,4.7717,4.8046,4.8446,4.8816,4.8887,4.8977,4.1236,4.1534,4.2984,4.3598,4.3598,4.3598,4.3468,4.3189,4.2053,4.141,4.0942,4.0003,3.9439,3.9472,3.9571,3.972,3.972,4.0337,4.0705,4.1035,4.1424,4.1992,4.2441,4.2651,4.2851,4.329,4.321,4.321,4.324,4.327,4.324,4.329,4.329,4.329,4.329,4.329,4.329,4.329,4.329,4.329,4.329,4.329,4.329,4.329,4.329,4.329,4.329,4.329,4.329,4.3599,4.3628,4.3728,4.3967,4.4326,4.4546,4.4676,4.5095,4.5284,4.5204,4.5384,4.5882,4.63,4.658,4.6741,4.7119,4.7298,4.7298,4.7298,4.7298,4.7298,4.7298,4.7298,4.7459,4.7549,4.7638,4.7668,4.7758,4.7878,4.7908,4.7938,4.8057,4.8207,4.8207,4.7997,4.7758,4.7399,4.7298,4.7339,4.7399,4.7459,4.7399,4.7459,4.7717,4.7747,4.7728,4.7788,4.8087,4.8308,4.8457,4.8648,4.8977,4.9097,4.8947,4.9138,4.9408,4.9097,4.8637,4.8057,4.7627,4.8435,4.9123,4.9314,4.9535,4.9606,4.9726,4.0819,4.152,4.2977,4.3598,4.3591,4.3598,4.3235,4.2695,4.1836,4.1085,4.0495,3.9773,3.9421,3.9562,3.9989,4.0268,4.0358,4.1035,4.1553,4.1982,4.2351,4.2651,4.296,4.313,4.319,4.33,4.329,4.329,4.329,4.329,4.329,4.329,4.329,4.329,4.329,4.329,4.329,4.329,4.329,4.329,4.3329,4.3359,4.3389,4.3389,4.3359,4.329,4.3329,4.3479,4.3718,4.4207,4.4247,4.4426,4.4755,4.5084,4.5214,4.5364,4.5862,4.6091,4.6102,4.6161,4.654,4.6999,4.7189,4.713,4.7279,4.7298,4.7298,4.7339,4.7429,4.7418,4.7388,4.7399,4.7848,4.8057,4.8278,4.8397,4.8558,4.8768,4.8798,4.8667,4.8697,4.8757,4.8816,4.8648,4.8368,4.8038,4.7889,4.7919,4.7788,4.7799,4.7649,4.7728,4.8196,4.8345,4.8386,4.8596,4.8985,4.9105,4.9164,4.9265,4.9456,4.9486,4.9726,4.9666,4.9804,4.9516,4.9277,4.8925,4.8944,4.968,5.0129,5.02,5.029,5.035,5.0571,4.0793,4.1501,4.252,4.3168,4.3576,4.3166,4.2834,4.2428,4.1377,4.0486,3.9817,3.9556,3.964,3.9999,4.0238,4.0645,4.1074,4.1703,4.2131,4.2451,4.2771,4.307,4.33,4.329,4.33,4.329,4.329,4.329,4.329,4.329,4.329,4.329,4.3359,4.329,4.329,4.3349,4.3359,4.3359,4.3359,4.3319,4.3389,4.3758,4.3908,4.3908,4.4426,4.4486,4.4546,4.4546,4.4696,4.4815,4.4905,4.5114,4.5414,4.5713,4.5892,4.5963,4.652,4.679,4.685,4.6879,4.7059,4.7149,4.7309,4.7298,4.7298,4.7328,4.7298,4.7399,4.7728,4.7908,4.7938,4.8278,4.8727,4.8858,4.8977,4.9127,4.9307,4.9516,4.9516,4.9385,4.9217,4.9157,4.9258,4.9288,4.8989,4.8708,4.8588,4.8468,4.8349,4.8278,4.8188,4.8188,4.8626,4.8895,4.8936,4.9374,4.9871,4.9871,4.9871,4.9972,5.0092,5.0481,5.0631,5.0481,5.0361,5.0301,5.0182,4.9991,5.0039,5.0308,5.0637,5.0936,5.1026,5.1026,5.1086,4.0587,4.1428,4.1957,4.2752,4.348,4.3105,4.2648,4.2118,4.126,4.0235,3.9409,3.9412,3.978,4.0268,4.0675,4.1104,4.1733,4.2331,4.261,4.283,4.307,4.33,4.329,4.329,4.329,4.329,4.329,4.329,4.329,4.329,4.329,4.3359,4.3479,4.3539,4.3349,4.3499,4.3658,4.3848,4.3908,4.3908,4.4027,4.4337,4.4576,4.4606,4.4975,4.5125,4.5125,4.5125,4.5294,4.5473,4.5623,4.5713,4.5982,4.6281,4.655,4.676,4.698,4.7298,4.7298,4.7298,4.7298,4.7298,4.7298,4.7298,4.7328,4.7459,4.7698,4.7728,4.8188,4.8607,4.8618,4.8917,4.9295,4.9404,4.9523,4.9673,4.9972,5.0212,5.0133,5.0044,4.9995,5.0014,5.0044,5.0103,4.9606,4.9277,4.8977,4.8917,4.8917,4.8887,4.8947,4.8966,4.9105,4.9325,4.9535,5.0032,5.0499,5.0548,5.0559,5.0667,5.0877,5.1146,5.1217,5.0948,5.0918,5.1158,5.0978,5.0619,5.0518,5.0578,5.0877,5.1176,5.1176,5.1116,5.1146,4.0157,4.1361,4.1461,4.2281,4.3517,4.3568,4.2757,4.1673,4.1302,4.0538,3.9463,3.9451,3.9849,4.0526,4.1104,4.1733,4.2352,4.293,4.319,4.321,4.321,4.33,4.329,4.329,4.329,4.329,4.329,4.329,4.329,4.329,4.329,4.3599,4.3938,4.4067,4.3469,4.3967,4.4576,4.5095,4.5095,4.5035,4.5035,4.5165,4.5274,4.5334,4.5544,4.5693,4.5693,4.5693,4.5892,4.6221,4.6271,4.6491,4.692,4.7029,4.7149,4.7209,4.7238,4.7298,4.7298,4.7298,4.7369,4.7369,4.7399,4.7489,4.7519,4.7829,4.8278,4.8338,4.8876,4.9217,4.9277,4.9408,4.9793,5.0021,5.014,5.0249,5.0559,5.0709,5.0631,5.0571,5.09,5.1128,5.1098,5.0948,5.0361,4.9894,4.9456,4.9378,4.9516,4.9636,4.9786,4.9804,4.9853,4.9972,5.0272,5.0739,5.1068,5.1146,5.1116,5.1086,5.1086,5.1176,5.1217,5.1217,5.1217,5.1217,5.1217,5.1158,5.1026,5.0877,5.0996,5.1217,5.1217,5.1217,5.1217,4.0123,4.1394,4.1428,4.2255,4.338,4.2585,4.1909,4.1385,4.0564,3.9826,3.9601,3.9819,4.0427,4.1104,4.1742,4.2352,4.293,4.31,4.329,4.329,4.329,4.329,4.329,4.329,4.329,4.329,4.329,4.329,4.329,4.3389,4.3668,4.4007,4.4606,4.4825,4.4736,4.4915,4.5125,4.5244,4.5274,4.5274,4.5364,4.5713,4.5982,4.5992,4.6322,4.6501,4.6471,4.6441,4.661,4.685,4.6879,4.7029,4.7279,4.7298,4.7298,4.7298,4.7298,4.7298,4.7459,4.7578,4.7739,4.7638,4.7728,4.7948,4.8027,4.8588,4.8858,4.9086,4.9553,4.9823,4.9901,5.0391,5.0739,5.0799,5.0888,5.0888,5.1038,5.1068,5.1038,5.1008,5.1217,5.1217,5.1217,5.1217,5.0769,5.0631,5.0283,5.0331,5.0481,5.0601,5.072,5.0709,5.0727,5.0787,5.0966,5.1128,5.1187,5.1187,5.1176,5.1176,5.1187,5.1217,5.1217,5.1217,5.1217,5.1217,5.1217,5.1217,5.1217,5.1187,5.1217,5.1217,5.1217,5.1217,5.1217,4.013,4.1361,4.1428,4.2255,4.3309,4.2348,4.164,4.1018,3.9932,3.9412,3.9541,4.0098,4.0765,4.1403,4.2101,4.2711,4.327,4.329,4.329,4.329,4.329,4.329,4.329,4.329,4.329,4.329,4.329,4.329,4.3319,4.3569,4.4197,4.4954,4.5403,4.5783,4.5813,4.5862,4.5802,4.5992,4.6172,4.6132,4.6221,4.6401,4.6629,4.6749,4.6969,4.7238,4.7268,4.7298,4.7298,4.7298,4.7298,4.7298,4.7298,4.7298,4.7298,4.7298,4.7298,4.7429,4.7739,4.7948,4.8109,4.8188,4.8438,4.8607,4.8757,4.9265,4.9505,4.9781,5.0189,5.0398,5.0607,5.1158,5.1158,5.1187,5.1187,5.1187,5.1187,5.1217,5.1217,5.1217,5.1217,5.1217,5.1217,5.1217,5.1068,5.1128,5.1158,5.1217,5.1217,5.1217,5.1217,5.1176,5.1146,5.1086,5.1068,5.1158,5.1217,5.1217,5.1217,5.1217,5.1217,5.1217,5.1217,5.1217,5.1217,5.1217,5.1217,5.1217,5.1277,5.1247,5.1217,5.1217,5.1217,5.1277,5.1307,4.0123,4.1269,4.1401,4.2201,4.3251,4.2592,4.164,4.0435,3.9702,3.9412,3.9442,4.0148,4.0855,4.1463,4.2122,4.2761,4.321,4.33,4.329,4.329,4.329,4.329,4.329,4.329,4.329,4.329,4.3329,4.3389,4.3409,4.4227,4.5164,4.5912,4.6211,4.655,4.67,4.664,4.6621,4.68,4.689,4.6879,4.6939,4.7089,4.7119,4.7179,4.7238,4.7298,4.7298,4.7298,4.7298,4.7298,4.7298,4.7298,4.7298,4.7298,4.7298,4.7309,4.7309,4.7769,4.8139,4.8319,4.8828,4.9056,4.9366,4.9366,4.9475,4.9883,5.017,5.0368,5.0686,5.0936,5.1217,5.1187,5.1187,5.1217,5.1217,5.1217,5.1217,5.1217,5.1217,5.1217,5.1217,5.1217,5.1217,5.1217,5.1217,5.1217,5.1217,5.1217,5.1217,5.1217,5.1217,5.1217,5.1187,5.1217,5.1217,5.1217,5.1217,5.1217,5.1217,5.1217,5.1217,5.1217,5.1217,5.1217,5.1217,5.1217,5.1217,5.1277,5.1397,5.1397,5.1576,5.1546,5.1666,5.1517,5.1576,3.9839,4.0727,4.1203,4.1665,4.1946,4.1378,4.0572,3.972,3.9454,3.9412,3.9481,4.0606,4.1194,4.1484,4.2551,4.304,4.324,4.329,4.329,4.329,4.329,4.329,4.329,4.329,4.329,4.329,4.3359,4.3539,4.4177,4.5014,4.5702,4.6271,4.673,4.7078,4.7149,4.71,4.7189,4.7249,4.7298,4.7298,4.7298,4.7298,4.7298,4.7298,4.7298,4.7298,4.7298,4.7298,4.7298,4.7298,4.7298,4.7298,4.7298,4.7298,4.7298,4.7369,4.7679,4.8169,4.8438,4.9123,4.9722,4.9972,5.0301,5.0278,5.0308,5.044,5.0817,5.0936,5.0996,5.1146,5.1217,5.1217,5.1217,5.1217,5.1217,5.1217,5.1217,5.1217,5.1217,5.1217,5.1217,5.1217,5.1217,5.1217,5.1217,5.1217,5.1217,5.1217,5.1217,5.1217,5.1217,5.1217,5.1217,5.1217,5.1217,5.1217,5.1217,5.1217,5.1217,5.1217,5.1217,5.1217,5.1217,5.1337,5.1576,5.1457,5.1217,5.1427,5.1876,5.2127,5.2276,5.2187,5.2097,5.2025,5.2115,3.9495,4.0427,4.0863,4.1233,4.1374,4.0763,4.0082,3.9472,3.9412,3.9412,3.955,4.0795,4.1413,4.1613,4.2661,4.33,4.33,4.329,4.329,4.329,4.329,4.329,4.329,4.329,4.329,4.329,4.3419,4.3628,4.4506,4.5553,4.635,4.676,4.7179,4.7238,4.7268,4.7238,4.7268,4.7309,4.7298,4.7298,4.7298,4.7298,4.7298,4.7298,4.7298,4.7298,4.7298,4.7298,4.7298,4.7298,4.7298,4.7298,4.7399,4.7519,4.7698,4.7859,4.8349,4.8816,4.9224,4.971,5.0207,5.0607,5.0948,5.0877,5.0847,5.0907,5.1056,5.1146,5.1187,5.1217,5.1217,5.1217,5.1217,5.1217,5.1217,5.1217,5.1217,5.1217,5.1217,5.1217,5.1217,5.1217,5.1217,5.1217,5.1217,5.1217,5.1217,5.1217,5.1217,5.1217,5.1217,5.1217,5.1217,5.1217,5.1217,5.1217,5.1217,5.1217,5.1217,5.1217,5.1247,5.1546,5.1798,5.1977,5.2097,5.2007,5.1947,5.2247,5.2606,5.2827,5.2977,5.2995,5.2875,5.2755,5.2995,3.9128,4.0307,4.0359,4.0827,4.1365,4.0679,3.9994,3.9436,3.9412,3.9412,3.966,4.0726,4.1313,4.1583,4.2571,4.318,4.327,4.329,4.329,4.329,4.329,4.329,4.329,4.329,4.329,4.329,4.3449,4.3748,4.4625,4.5732,4.6809,4.7298,4.7298,4.7298,4.7298,4.7298,4.7298,4.7298,4.7298,4.7298,4.7298,4.7298,4.7298,4.7298,4.7298,4.7298,4.7298,4.7298,4.7298,4.7298,4.7298,4.7298,4.7638,4.8038,4.8289,4.8577,4.9026,4.9434,4.9841,5.0237,5.0607,5.0936,5.1217,5.1146,5.1116,5.1128,5.1187,5.1217,5.1217,5.1217,5.1217,5.1217,5.1217,5.1217,5.1217,5.1217,5.1217,5.1217,5.1217,5.1217,5.1217,5.1217,5.1217,5.1217,5.1217,5.1217,5.1217,5.1217,5.1277,5.1277,5.1307,5.1307,5.1217,5.1217,5.1217,5.1217,5.1217,5.1217,5.1307,5.1427,5.1576,5.2007,5.2498,5.2558,5.2618,5.2857,5.2947,5.3156,5.3234,5.3366,5.3545,5.3743,5.3713,5.3605,5.3785,3.9247,3.9558,3.9586,4.0309,4.1272,4.0196,3.9589,3.9421,3.9412,3.9412,3.9571,4.0247,4.0935,4.1543,4.2292,4.288,4.324,4.329,4.329,4.329,4.329,4.329,4.329,4.329,4.329,4.329,4.3479,4.4027,4.5114,4.6251,4.7059,4.7268,4.7298,4.7298,4.7298,4.7298,4.7298,4.7298,4.7298,4.7298,4.7298,4.7298,4.7298,4.7298,4.7298,4.7298,4.7298,4.7298,4.7298,4.7298,4.7298,4.7578,4.8068,4.8708,4.9007,4.9146,4.9613,5.0039,5.0308,5.0637,5.0966,5.1098,5.1217,5.1217,5.1217,5.1217,5.1217,5.1217,5.1217,5.1217,5.1217,5.1217,5.1217,5.1217,5.1217,5.1217,5.1217,5.1217,5.1217,5.1217,5.1217,5.1277,5.1277,5.1307,5.1217,5.1217,5.1217,5.1247,5.1367,5.1427,5.1546,5.1517,5.1247,5.1217,5.1217,5.1367,5.1427,5.1576,5.1738,5.1858,5.1965,5.2546,5.3097,5.3067,5.3139,5.3438,5.3695,5.3773,5.3862,5.3994,5.4174,5.4413,5.4593,5.4533,5.4713,3.859,3.8848,3.8885,3.9892,4.1045,4.0003,3.9412,3.9412,3.9412,3.9412,3.9502,4.0088,4.0765,4.1433,4.2101,4.2741,4.321,4.33,4.329,4.329,4.329,4.329,4.329,4.329,4.329,4.3359,4.4047,4.4845,4.5753,4.6621,4.7268,4.7298,4.7298,4.7298,4.7298,4.7298,4.7298,4.7298,4.7298,4.7298,4.7298,4.7298,4.7298,4.7298,4.7298,4.7298,4.7298,4.7339,4.7519,4.7788,4.8057,4.8338,4.8816,4.9344,4.9655,4.9883,5.0219,5.0637,5.0757,5.0936,5.1217,5.1217,5.1217,5.1217,5.1217,5.1217,5.1217,5.1217,5.1217,5.1217,5.1217,5.1217,5.1217,5.1217,5.1217,5.1217,5.1217,5.1217,5.1217,5.1217,5.1397,5.1768,5.1887,5.2247,5.2187,5.2276,5.2127,5.2007,5.2007,5.1828,5.1887,5.1858,5.1678,5.1337,5.1247,5.1487,5.1756,5.1947,5.2217,5.2695,5.3054,5.3384,5.3653,5.3815,5.3977,5.4174,5.4384,5.4401,5.4521,5.4653,5.4862,5.5102,5.5222,5.5222,5.5162,3.7942,3.8423,3.8521,3.9613,4.1033,3.9985,3.9412,3.9412,3.9412,3.9412,3.9442,3.9999,4.0666,4.1433,4.1982,4.2641,4.313,4.327,4.329,4.329,4.329,4.329,4.329,4.329,4.3389,4.3868,4.4566,4.5373,4.6181,4.6909,4.7298,4.7298,4.7298,4.7298,4.7298,4.7298,4.7298,4.7298,4.7298,4.7298,4.7298,4.7298,4.7298,4.7298,4.7298,4.7328,4.7399,4.7549,4.7829,4.8368,4.8925,4.9224,4.9523,4.9961,5.0219,5.0476,5.0727,5.1026,5.1158,5.1128,5.1217,5.1217,5.1217,5.1217,5.1217,5.1217,5.1217,5.1217,5.1217,5.1217,5.1217,5.1247,5.1247,5.1307,5.1307,5.1487,5.1487,5.1487,5.1487,5.1487,5.1786,5.2247,5.2618,5.3007,5.3097,5.3198,5.3228,5.3198,5.3079,5.2737,5.2588,5.2468,5.2288,5.1947,5.1636,5.1846,5.2324,5.2546,5.2875,5.3533,5.4072,5.4221,5.4461,5.4803,5.4982,5.4832,5.4892,5.4922,5.5102,5.5102,5.5162,5.5222,5.5222,5.5222,5.5222,3.8552,3.9184,3.9141,3.9738,4.0483,3.9755,3.9412,3.9412,3.9412,3.9412,3.9442,3.9571,4.0217,4.1413,4.1502,4.2162,4.321,4.329,4.329,4.329,4.329,4.329,4.3359,4.3449,4.3658,4.4267,4.4995,4.5613,4.642,4.7029,4.7298,4.7298,4.7298,4.7298,4.7298,4.7298,4.7298,4.7298,4.7298,4.7298,4.7328,4.7328,4.7298,4.7298,4.7298,4.7638,4.7919,4.8098,4.8528,4.9056,4.9643,4.9931,5.0189,5.0518,5.0787,5.0835,5.1116,5.1158,5.1217,5.1217,5.1217,5.1217,5.1217,5.1217,5.1217,5.1217,5.1217,5.1217,5.1217,5.1217,5.1217,5.1307,5.1367,5.1576,5.1666,5.2187,5.2498,5.2486,5.2486,5.2486,5.2594,5.2995,5.3396,5.3545,5.3396,5.3498,5.3516,5.3486,5.3558,5.3408,5.3318,5.3198,5.3037,5.2959,5.2827,5.2755,5.3025,5.3234,5.3533,5.4132,5.461,5.4922,5.5192,5.5192,5.5222,5.5102,5.5192,5.5222,5.5192,5.5162,5.5192,5.5222,5.5222,5.5222,5.5222]}]]